     2.10           OBSERVATION DATA    G (GPS)             RINEX VERSION / TYPE
teqc 2002Apr3 Duncan Agnew 20050511 23:58:17UTC             PGM / RUN BY / DATE
OSX 5.3|G3|cc|OSX 5.3+|G3+                                  COMMENT
BIT 2 OF LLI FLAGS DATA COLLECTED UNDER A/S CONDITION       COMMENT
T15S R17E S18 S17 S19 S20 1915                              MARKER NAME
0473                                                        MARKER NUMBER
Steve Van Buren Caltrans District 11                        OBSERVER / AGENCY
440100473 TRIMBLE 5700 NP 1.24 / SP 1.24                    REC # / TYPE / VERS
11885570 TRM41249.00                                        ANT # / TYPE
 -2287875.0000 -4851752.0000  3439018.0000                  APPROX POSITION XYZ
        2.0000        0.0000        0.0000                  ANTENNA: DELTA H/E/N
     1     1                                                WAVELENGTH FACT L1/2
     7    C1    L1    L2    P1    P2    S1    S2            # / TYPES OF OBSERV
SNR is mapped to RINEX snr flag value [1-9]                 COMMENT
L1: 3 -> 1; 8 -> 5; 40 -> 9                                 COMMENT
L2: 1 -> 1; 5 -> 5; 60 -> 9                                 COMMENT
  2004     7     6    17    44   50.0000000     GPS         TIME OF FIRST OBS
                                                            END OF HEADER
 04  7  6 17 44 50.0000000  0  6G 3G14G18G19G21G22
  22323242.7664       8504.93059        46.68557                  22323240.9064
        45.0004         33.5004
  20497830.5944     -82727.20359    -51511.60058                  20497827.3164
        50.0004         40.7504
  22346386.2584      35728.45359     14443.22457                  22346382.8794
        46.0004         31.2504
  23111497.1644     -96124.93059    -57363.28657                  23111492.7734
        45.0004         30.5004
  22483741.0164      75482.50059     36007.58357                  22483737.8204
        45.0004         29.5004
  21048914.8134     -14847.09459    -12505.31458                  21048909.6914
        51.2504         39.5004
 04  7  6 17 45  0.0000000  0  6G 3G14G18G19G21G22
  22323588.7504      10321.70749      1462.34347                  22323586.8444
        47.0004         33.2504
  20493907.3984    -103344.41849    -67576.97348                  20493903.9694
        50.5004         40.5004
  22347942.7424      43908.36349     20817.14247                  22347939.2074
        46.7504         30.2504
  23106940.6334    -120067.49649    -76019.85947                  23106936.7624
        44.5004         30.2504
  22487158.6724      93443.91049     50003.47147                  22487155.4024
        46.5004         28.7504
  21048178.7274     -18714.27049    -15518.71947                  21048173.8984
        51.5004         39.2504
 04  7  6 17 45 10.0000000  0  6G 3G14G18G19G21G22
  22323929.7344      12115.09449      2859.76547                  22323927.8914
        45.0004         34.2504
  20489980.4844    -123979.97349    -83656.63248                  20489977.1254
        50.2504         41.0004
  22349486.8444      52023.30149     27140.47147                  22349483.7234
        47.7504         32.0004
  23102381.2814    -144027.12549    -94689.69447                  23102377.3364
        44.0004         30.5004
  22490569.0944     111365.98849     63968.70947                  22490565.5164
        45.7504         30.0004
  21047431.5314     -22640.34849    -18578.00648                  21047426.7034
        51.0004         40.0004
 04  7  6 17 45 20.0000000  0  8G 3G 9G14G18G19G21G22G15
  22324266.9064      13886.15649      4239.79147                  22324265.1484
        47.0004         33.2504
  23308677.8984       1426.66459     -3305.19956                  23308676.0164
        43.5004         25.5004
  20486050.4694    -144632.86749    -99749.80648                  20486047.0314
        50.7504         40.7504
  22351019.0314      60074.37549     33414.00847                  22351015.4654
        47.5004         32.2504
  23097818.9304    -168002.71149   -113371.97647                  23097815.0904
        45.2504         31.0004
  22493972.1484     129249.83249     77904.12847                  22493969.0084
        46.2504         29.2504
  21046673.3284     -26624.13349    -21682.26847                  21046668.8014
        51.5004         39.2504
  20008233.6954     -28603.62559    -20721.43158                  20008230.9534
        50.7504         42.0004
 04  7  6 17 45 30.0000000  0  8G 3G 9G14G18G19G21G22G15
  22324600.4144      15639.36749      5605.91047                  22324598.5594
        47.2504         33.0004
  23308756.9534       1846.37549     -2978.14646                  23308755.2034
        44.2504         25.0004
  20482117.7894    -165298.42649   -115852.84248                  20482114.2774
        50.0004         40.5004
  22352540.1724      68066.18849     39641.38847                  22352536.7234
        47.5004         31.5004
  23093254.3134    -191989.58249   -132063.04147                  23093250.5744
        44.7504         30.5004
  22497368.7814     147100.03549     91813.36747                  22497365.7234
        46.2504         28.7504
  21045905.1564     -30661.12149    -24827.98648                  21045900.4494
        51.0004         39.5004
  20006616.0234     -37104.07449    -27345.15848                  20006613.3754
        51.5004         41.0004
 04  7  6 17 45 40.0000000  0  8G 3G 9G14G18G19G21G22G15
  22324931.7194      17379.12549      6961.57047                  22324929.5124
        47.5004         32.7504
  23308837.2034       2267.61749     -2649.93846                  23308835.0434
        44.0004         25.5004
  20478183.7584    -185972.18449   -131962.25548                  20478180.6174
        50.2504         40.0004
  22354050.5004      76003.12549     45825.99847                  22354046.6454
        47.7504         31.5004
  23088688.6094    -215983.22349   -150759.39547                  23088684.4064
        43.0004         30.2504
  22500760.5004     164920.97349    105699.80247                  22500756.8794
        46.0004         28.7504
  21045128.1564     -34746.84049    -28011.65447                  21045123.2854
        50.2504         39.0004
  20004996.5474     -45615.16849    -33977.19348                  20004993.9024
        50.7504         40.2504
 04  7  6 17 45 50.0000000  0  8G 3G 9G14G18G19G21G22G15
  22325260.5164      19107.37949      8308.25347                  22325258.7894
        46.0004         32.5004
  23308918.4614       2692.34849     -2318.95847                  23308916.3134
        44.0004         26.2504
  20474248.4224    -206652.10549   -148076.48248                  20474245.1414
        50.2504         40.5004
  22355550.7424      83887.30949     51969.50647                  22355547.2234
        48.0004         31.5004
  23084121.8204    -239981.59049   -169459.40447                  23084118.0164
        44.2504         30.2504
  22504146.2974     182714.62549    119564.98347                  22504142.6804
        46.7504         28.0004
  21044341.2424     -38879.33249    -31231.78747                  21044336.4734
        51.2504         38.7504
  20003375.3134     -54134.80949    -40615.88748                  20003372.7074
        49.2504         40.5004
 04  7  6 17 46  0.0000000  0  8G 3G 9G14G18G19G21G22G15
  22325587.1484      20824.81649      9646.48247                  22325585.5044
        46.0004         33.2504
  23309000.3594       3121.25449     -1984.76146                  23308998.1294
        44.0004         24.5004
  20470312.2274    -227337.41849   -164194.93048                  20470308.8054
        50.7504         40.5004
  22357041.0234      91719.46949     58072.45947                  22357037.2464
        48.5004         32.0004
  23079554.1564    -263983.85549   -188162.49447                  23079550.1604
        44.2504         30.0004
  22507527.4144     200481.75849    133409.45447                  22507524.0984
        46.5004         29.7504
  21043546.1094     -43057.85249    -34487.80547                  21043541.5354
        51.0004         39.2504
  20001752.6954     -62662.22749    -47260.63748                  20001749.6644
        50.5004         41.0004
 04  7  6 17 46 10.0000000  0  8G 3G 9G14G18G19G21G22G15
  22325912.0004      22531.61349     10976.43847                  22325910.2894
        45.2504         33.0004
  23309082.8054       3554.52049     -1647.15847                  23309080.7234
        44.2504         27.0004
  20466375.0474    -248027.93749   -180317.40848                  20466371.8364
        50.7504         40.7504
  22358521.2814      99499.61349     64134.91147                  22358518.0784
        48.0004         31.7504
  23074986.6094    -287989.76249   -206868.39047                  23074982.1644
        43.2504         29.7504
  22510903.4924     218222.48449    147233.37647                  22510900.3984
        46.7504         29.2504
  21042742.5944     -47282.15249    -37779.47447                  21042737.7304
        51.2504         39.0004
  20000128.5474     -71197.21949    -53911.28348                  20000125.9064
        50.2504         40.7504
 04  7  6 17 46 20.0000000  0  8G 3G 9G14G18G19G21G22G15
  22326234.4844      24227.18449     12297.64447                  22326233.1294
        44.7504         33.2504
  23309165.2894       3991.60249     -1306.57447                  23309163.9344
        44.0004         25.7504
  20462436.5784    -268724.20749   -196444.37248                  20462433.3014
        50.5004         41.0004
  22359992.0554     107227.39849     70156.55647                  22359988.2664
        48.0004         32.5004
  23070417.5784    -311999.82849   -225577.54647                  23070413.0314
        44.2504         29.5004
  22514274.3594     235936.19549    161036.24947                  22514271.3554
        46.7504         29.2504
  21041930.0164     -51552.73849    -41107.21048                  21041925.1604
        51.2504         39.5004
  19998502.6024     -79740.27049    -60568.22448                  19998500.3834
        49.2504         41.2504
 04  7  6 17 46 30.0000000  0  8G 3G 9G14G18G19G21G22G15
  22326556.0474      25915.85549     13613.47547                  22326554.2424
        46.0004         33.0004
  23309250.5164       4437.00049      -959.54547                  23309248.6604
        43.7504         27.0004
  20458498.0234    -289421.70749   -212572.30948                  20458494.7774
        50.5004         41.0004
  22361453.5944     114907.35949     76140.91047                  22361450.6024
        48.5004         32.0004
  23065848.7344    -336009.48449   -244286.37047                  23065844.1374
        44.5004         30.5004
  22517640.7584     253627.43049    174821.58747                  22517637.0594
        47.0004         28.7504
  21041109.3674     -55865.19949    -44467.59248                  21041104.3284
        51.0004         39.5004
  19996876.3204     -88286.82049    -67227.89148                  19996873.7304
        50.2504         41.5004
 04  7  6 17 46 40.0000000  0  8G 3G 9G14G18G19G21G22G15
  22326875.4924      27595.43449     14922.21947                  22326873.8484
        47.0004         32.7504
  23309336.4224       4888.47349      -607.74547                  23309334.9384
        44.2504         26.5004
  20454558.6254    -310122.68749   -228702.95948                  20454555.3404
        50.2504         41.0004
  22362905.5474     122537.28949     82086.29247                  22362902.1884
        48.5004         31.7504
  23061279.1804    -360020.93449   -262996.59147                  23061275.5354
        42.7504         30.5004
  22521002.2194     271293.94949    188587.69947                  22520999.1644
        47.0004         29.0004
  21040280.0704     -60221.72349    -47862.28747                  21040275.1804
        50.7504         38.5004
  19995248.7894     -96838.98849    -73891.92448                  19995246.3094
        50.7504         40.5004
 04  7  6 17 46 50.0000000  0  8G 3G 9G14G18G19G21G22G15
  22327193.4924      29265.90249     16223.87547                  22327191.8404
        47.5004         32.7504
  23309423.4384       5346.07049      -251.15747                  23309421.5314
        44.5004         26.0004
  20450618.9304    -330827.02049   -244836.19948                  20450615.8364
        50.7504         40.5004
  22364348.1884     130117.25049     87992.75147                  22364344.4414
        47.2504         31.5004
  23056709.4304    -384034.03949   -281708.09347                  23056705.9144
        43.7504         29.7504
  22524359.5164     288935.67249    202334.48247                  22524356.5664
        46.5004         29.2504
  21039442.8284     -64622.29349    -51291.30047                  21039438.0704
        50.5004         38.5004
  19993620.5634    -105396.66049    -80560.23848                  19993617.8094
        51.5004         41.0004
 04  7  6 17 47  0.0000000  0  8G 3G 9G14G18G19G21G22G15
  22327509.7034      30928.17249     17519.13247                  22327507.9534
        46.5004         32.0004
  23309511.5634       5810.73849       110.89846                  23309510.1094
        44.5004         25.0004
  20446678.4924    -351533.70749   -260971.28548                  20446674.9964
        50.5004         39.7504
  22365780.8754     137648.20749     93861.01647                  22365777.4774
        47.7504         31.0004
  23052139.9224    -408047.71949   -300420.05547                  23052135.9344
        44.5004         30.0004
  22527712.1334     306553.66049    216062.75447                  22527708.6804
        47.0004         29.5004
  21038597.2034     -69065.93049    -54753.88647                  21038592.2034
        50.7504         38.2504
  19991990.9924    -113958.85949    -87232.08848                  19991988.5664
        50.7504         40.5004
 04  7  6 17 47 10.0000000  0  8G 3G 9G14G18G19G21G22G15
  22327824.8054      32584.41849     18809.69447                  22327823.3794
        47.2504         32.5004
  23309601.7504       6284.71149       480.22346                  23309599.9654
        44.0004         24.5004
  20442738.0314    -372240.53549   -277106.48348                  20442734.9024
        50.0004         40.7504
  22367205.2344     145132.38349     99692.83047                  22367201.9104
        48.2504         31.5004
  23047570.3364    -432059.77049   -319130.75747                  23047566.4884
        43.2504         31.2504
  22531060.9844     324150.12549    229774.27247                  22531057.3014
        46.5004         30.0004
  21037743.8054     -73550.43449    -58248.30848                  21037739.2234
        51.0004         39.5004
  19990361.3284    -122523.25849    -93905.66648                  19990358.8444
        51.0004         40.7504
 04  7  6 17 47 20.0000000  0  8G 3G 9G14G18G19G21G22G15
  22328138.7734      34233.68049     20094.82547                  22328136.9844
        44.5004         32.7504
  23309693.8984       6767.02749       856.03747                  23309691.6954
        44.2504         26.2504
  20438797.5474    -392948.34449   -293242.44748                  20438794.2074
        50.5004         40.7504
  22368620.4304     152568.83649    105487.44947                  22368617.1334
        48.5004         31.0004
  23043001.1484    -456070.96549   -337840.77747                  23042997.6054
        43.5004         31.0004
  22534405.3594     341724.14549    243468.27647                  22534401.7384
        47.7504         29.5004
  21036882.4774     -78076.60249    -61775.21947                  21036877.7544
        51.2504         39.2504
  19988731.2424    -131090.69949   -100581.60148                  19988728.3834
        49.7504         40.5004
 04  7  6 17 47 30.0000000  0  8G 3G 9G14G18G19G21G22G15
  22328451.4844      35875.63749     21374.26647                  22328449.5274
        46.5004         32.2504
  23309787.2584       7257.46149      1238.20647                  23309785.1524
        44.0004         26.5004
  20434857.1804    -413657.42249   -309379.39148                  20434853.4184
        51.0004         41.0004
  22370026.4774     159957.54749    111244.87647                  22370023.2424
        47.7504         31.2504
  23038432.7664    -480081.53949   -356550.32147                  23038428.2504
        43.2504         30.7504
  22537745.0634     359275.31649    257144.50947                  22537741.6564
        47.5004         29.0004
  21036012.9694     -82644.73449    -65334.80048                  21036008.5314
        50.7504         39.7504
  19987100.1174    -139661.41849   -107260.07748                  19987097.6214
        50.5004         41.0004
 04  7  6 17 47 40.0000000  0  8G 3G 9G14G18G19G21G22G15
  22328762.9304      37512.23049     22649.50147                  22328761.0044
        47.0004         33.5004
  23309882.2584       7757.97349      1628.19947                  23309880.4344
        45.0004         27.5004
  20430916.0394    -434365.77049   -325515.78248                  20430912.9304
        51.0004         41.0004
  22371423.6884     167300.36749    116966.53747                  22371420.0784
        47.2504         31.7504
  23033863.7814    -504089.42249   -375257.79247                  23033859.7234
        44.2504         30.7504
  22541080.9144     376805.68849    270804.49847                  22541077.8594
        46.2504         29.7504
  21035136.3834     -87252.82849    -68925.53747                  21035131.6134
        50.5004         39.0004
  19985469.0164    -148233.33649   -113939.51348                  19985466.3364
        51.2504         41.0004
 04  7  6 17 47 50.0000000  0  8G 3G 9G14G18G19G21G22G15
  22329072.9774      39142.50049     23919.82347                  22329071.2584
        46.7504         33.2504
  23309979.1334       8267.70749      2025.38847                  23309977.2624
        44.5004         26.0004
  20426975.5234    -455074.16449   -341652.19048                  20426972.2854
        50.5004         41.0004
  22372812.1334     174596.39549    122651.73047                  22372808.7814
        47.0004         30.7504
  23029295.8524    -528095.44149   -393963.76447                  23029291.3984
        44.0004         31.0004
  22544412.6334     394314.31649    284447.57847                  22544409.4884
        46.0004         29.0004
  21034251.6024     -91901.78949    -72548.12147                  21034247.0704
        51.0004         39.0004
  19983837.4694    -156807.32849   -120620.55148                  19983834.5744
        51.2504         40.7504
 04  7  6 17 48  0.0000000  0  8G 3G 9G14G18G19G21G22G15
  22329381.8834      40764.52349     25183.73447                  22329379.9414
        46.7504         33.0004
  23310077.8594       8784.77749      2428.27847                  23310075.7384
        44.0004         25.7504
  20423034.3834    -475784.53149   -357790.13948                  20423031.1644
        50.5004         40.7504
  22374191.3284     181843.78949    128299.04747                  22374187.9144
        47.5004         30.5004
  23024727.3524    -552101.41449   -412669.71147                  23024723.4264
        45.5004         30.7504
  22547740.0004     411799.34049    298072.25647                  22547736.7504
        46.0004         28.7504
  21033358.7424     -96593.44549    -76203.94947                  21033354.2344
        51.2504         38.7504
  19982205.1724    -165385.23849   -127304.64148                  19982202.4844
        50.5004         40.7504
 04  7  6 17 48 10.0000000  0  8G 3G 9G14G18G19G21G22G15
  22329688.8444      42379.25449     26441.92747                  22329687.5554
        45.7504         32.7504
  23310177.7734       9310.15249      2837.66146                  23310176.3554
        44.0004         25.5004
  20419093.1724    -496495.86749   -373928.84848                  20419089.7544
        51.0004         40.0004
  22375561.2584     189043.51649    133909.21547                  22375557.8794
        47.2504         30.5004
  23020159.4534    -576106.32049   -431374.85447                  23020155.3794
        45.0004         30.7504
  22551063.0864     429261.68849    311679.27447                  22551059.9734
        46.0004         29.0004
  21032458.1254    -101326.85249    -79892.32747                  21032453.5124
        50.7504         38.5004
  19980572.1884    -173966.02049   -133990.97848                  19980569.3134
        51.0004         40.0004
 04  7  6 17 48 20.0000000  0  8G 3G 9G14G18G19G21G22G15
  22329995.0004      43988.63749     27696.00947                  22329993.6994
        44.7504         32.2504
  23310279.2504       9845.84049      3255.10347                  23310278.0044
        43.2504         26.7504
  20415152.1414    -517206.14549   -390066.72448                  20415148.7734
        50.0004         39.7504
  22376922.6334     196197.58649    139483.82147                  22376919.4734
        46.0004         31.0004
  23015591.6254    -600108.12549   -450077.55447                  23015588.1454
        45.0004         31.7504
  22554382.0084     446703.32849    325270.12347                  22554379.0704
        45.0004         28.5004
  21031549.9614    -106099.96549    -83611.63747                  21031545.0664
        50.7504         38.5004
  19978939.2974    -182547.65649   -140677.97548                  19978936.4614
        50.0004         40.7504
 04  7  6 17 48 30.0000000  0  8G 3G 9G14G18G19G21G22G15
  22330299.7734      45590.94949     28944.54447                  22330298.5784
        46.5004         32.5004
  23310383.4064      10390.22749      3679.28747                  23310381.8674
        44.5004         26.0004
  20411211.3054    -537916.93049   -406205.01548                  20411207.9144
        50.2504         40.2504
  22378275.0704     203304.45349    145021.61647                  22378271.7074
        47.5004         30.7504
  23011025.0084    -624108.29349   -468778.99247                  23011020.9104
        45.0004         31.0004
  22557696.6954     464122.68449    338843.63647                  22557693.8094
        46.2504         30.2504
  21030633.8984    -110914.32049    -87363.10347                  21030629.3164
        50.7504         39.0004
  19977305.7734    -191131.62149   -147366.79048                  19977302.9024
        50.7504         40.7504
 04  7  6 17 48 40.0000000  0  8G 3G 9G14G18G19G21G22G15
  22330603.8754      47187.16049     30188.33447                  22330602.7114
        45.5004         32.5004
  23310489.0784      10944.22349      4110.95747                  23310487.4224
        42.5004         26.2504
  20407270.2034    -558627.37149   -422343.01348                  20407266.3014
        50.7504         40.0004
  22379618.8914     210365.06649    150523.38747                  22379615.3524
        46.5004         31.0004
  23006458.3834    -648105.87949   -487478.40347                  23006454.1884
        45.7504         31.5004
  22561007.3754     481520.64549    352400.47547                  22561004.3364
        45.2504         29.7504
  21029710.0164    -115769.08649    -91146.03647                  21029705.3444
        51.5004         39.0004
  19975672.0474    -199716.93749   -154056.64348                  19975669.3484
        50.0004         40.5004
 04  7  6 17 48 50.0000000  0  8G 3G 9G14G18G19G21G22G15
  22330906.8834      48779.31349     31428.94347                  22330905.0904
        46.7504         33.2504
  23310596.4924      11509.90649      4551.72947                  23310594.6684
        43.5004         27.0004
  20403329.4144    -579335.21949   -438479.02248                  20403326.1724
        50.2504         40.7504
  22380953.8594     217381.58249    155990.76447                  22380950.6604
        47.0004         31.5004
  23001892.6884    -672098.60549   -506174.05847                  23001888.5634
        46.7504         31.7504
  22564314.2584     498899.33249    365942.25747                  22564312.0474
        45.2504         28.7504
  21028778.7664    -120661.97349    -94958.69048                  21028773.8834
        51.7504         39.7504
  19974038.2814    -208301.41049   -160745.86848                  19974035.5984
        51.0004         41.2504
 04  7  6 17 49  0.0000000  0  8G 3G 9G14G18G19G21G22G15
  22331209.1724      50366.74249     32665.86647                  22331207.1334
        45.5004         32.5004
  23310706.4454      12086.59849      5001.08947                  23310704.8874
        43.7504         27.5004
  20399388.6724    -600041.12149   -454613.49248                  20399385.8874
        50.5004         40.7504
  22382280.5234     224353.26249    161423.24747                  22382277.1024
        45.2504         30.7504
  22997327.7344    -696087.12549   -524866.40947                  22997323.6524
        46.0004         31.5004
  22567617.7974     516258.04749    379468.50847                  22567614.6764
        43.7504         29.2504
  21027840.2974    -125593.77749    -98801.66347                  21027835.4104
        51.5004         39.2504
  19972404.8364    -216885.71949   -167434.94148                  19972402.2074
        50.2504         40.5004
 04  7  6 17 49 10.0000000  0  8G 3G 9G14G18G19G21G22G15
  22331510.3524      51950.57449     33900.02847                  22331508.7464
        47.5004         32.5004
  23310818.4224      12675.59449      5460.05247                  23310816.2664
        44.5004         27.2504
  20395449.3284    -620743.78549   -470745.44148                  20395446.4884
        51.0004         40.5004
  22383598.8834     231281.48849    166821.85747                  22383596.0744
        47.5004         30.2504
  22992764.1804    -720070.21149   -543554.52547                  22992759.9774
        46.2504         31.2504
  22570917.1414     533598.10949    392980.23447                  22570914.2664
        45.5004         28.2504
  21026894.6334    -130563.16049   -102673.90547                  21026890.0554
        50.7504         38.7504
  19970771.4224    -225468.49249   -174122.81548                  19970769.2034
        51.7504         40.0004
 04  7  6 17 49 20.0000000  0  8G 3G 9G14G18G19G21G22G15
  22331811.0164      53531.39549     35131.81847                  22331809.4344
        47.0004         32.5004
  23310932.7114      13277.52749      5929.08147                  23310931.0434
        43.7504         27.5004
  20391510.4694    -641442.59049   -486874.38648                  20391506.9454
        50.5004         39.7504
  22384909.1484     238166.89149    172187.07947                  22384905.9144
        46.2504         31.0004
  22988201.8594    -744047.11749   -562237.85047                  22988197.4304
        46.2504         31.7504
  22574213.4924     550920.04749    406477.82547                  22574210.4614
        45.0004         28.2504
  21025941.9694    -135569.50049   -106574.96847                  21025937.2704
        50.7504         38.7504
  19969138.7114    -234049.00849   -180808.95048                  19969136.0904
        50.7504         40.5004
 04  7  6 17 49 30.0000000  0  8G 3G 9G14G18G19G21G22G15
  22332111.2814      55107.26249     36359.75747                  22332109.3874
        46.2504         31.5004
  23311049.2814      13890.48049      6406.71246                  23311047.6724
        43.7504         25.5004
  20387572.2734    -662139.30549   -503001.69047                  20387569.2384
        50.0004         39.0004
  22386211.2034     245007.59849    177517.49747                  22386207.6884
        46.5004         30.0004
  22983639.2814    -768019.62949   -580917.72247                  22983635.9414
        45.7504         31.0004
  22577505.9614     568221.94549    419959.83047                  22577503.1724
        45.0004         26.5004
  21024981.8524    -140614.65249   -110506.25047                  21024977.3364
        51.2504         37.5004
  19967506.1644    -242629.07049   -187494.69548                  19967503.5634
        50.5004         39.5004
 04  7  6 17 49 40.0000000  0  8G 3G 9G14G18G19G21G22G15
  22332410.2034      56680.52049     37585.64547                  22332408.7464
        45.2504         32.5004
  23311168.9224      14516.83249      6894.75846                  23311166.7384
        44.5004         25.5004
  20383634.4774    -682831.66449   -519125.60848                  20383631.3244
        50.2504         40.5004
  22387504.7194     251806.04749    182814.96047                  22387501.7074
        46.2504         31.7504
  22979079.2424    -791985.30949   -599592.29547                  22979075.2464
        46.2504         31.5004
  22580795.2034     585506.10949    433427.96247                  22580792.1524
        45.0004         26.7504
  21024014.7974    -145696.28149   -114465.98047                  21024010.1374
        50.5004         38.2504
  19965873.6254    -251206.27049   -194178.26048                  19965871.3754
        50.2504         40.5004
 04  7  6 17 49 50.0000000  0  8G 3G 9G14G18G19G21G22G15
  22332709.3284      58250.74649     38809.19547                  22332707.9614
        47.5004         32.2504
  23311290.5944      15156.19549      7392.95847                  23311288.4064
        44.5004         26.2504
  20379697.7814    -703520.01649   -535246.41048                  20379694.3484
        50.5004         40.2504
  22388790.2344     258561.80949    188079.20547                  22388787.1334
        46.5004         31.5004
  22974520.1724    -815944.51249   -618261.79347                  22974516.1054
        46.2504         31.5004
  22584080.8054     602772.16049    446882.01447                  22584077.9414
        45.0004         27.2504
  21023041.0084    -150814.75449   -118454.40247                  21023036.3594
        51.2504         38.2504
  19964242.1484    -259780.98849   -200859.85748                  19964239.6254
        51.2504         40.5004
 04  7  6 17 50  0.0000000  0  8G 3G 9G14G18G19G21G22G15
  22333007.6954      59818.26649     40030.60647                  22333005.9344
        45.0004         33.5004
  23311414.4454      15808.92649      7901.57747                  23311412.8634
        44.5004         27.5004
  20375761.8284    -724203.93049   -551363.76048                  20375758.4494
        50.5004         41.5004
  22390067.7504     265275.36749    193310.50847                  22390064.4654
        47.2504         32.7504
  22969961.8754    -839896.84449   -636925.96747                  22969958.4804
        46.0004         32.5004
  22587362.7814     620020.42649    460322.17247                  22587360.1214
        46.0004         28.7504
  21022060.0394    -155969.71549   -122471.27947                  21022055.1254
        51.7504         39.2504
  19962611.0474    -268352.80149   -207539.22948                  19962608.3754
        50.2504         40.7504
 04  7  6 17 50 10.0000000  0  8G 3G 9G14G18G19G21G22G15
  22333306.2734      61387.08649     41253.04847                  22333304.0594
        46.2504         32.2504
  23311542.0004      16479.09049      8423.76047                  23311540.1024
        43.5004         26.0004
  20371827.3284    -744879.31649   -567474.45748                  20371823.8364
        51.0004         41.0004
  22391337.9774     271950.67649    198512.05347                  22391334.4534
        47.0004         31.7504
  22965405.9454    -863838.11349   -655581.50247                  22965402.0234
        45.2504         32.5004
  22590642.2584     637254.95349    473751.62747                  22590639.4884
        45.7504         27.0004
  21021072.9304    -161156.96549   -126513.29547                  21021067.7894
        51.5004         39.0004
  19960981.1414    -276917.52749   -214213.03048                  19960978.4614
        50.5004         40.7504
 04  7  6 17 50 20.0000000  0  8G 3G 9G14G18G19G21G22G15
  22333605.2194      62959.15649     42478.04247                  22333603.6294
        47.5004         32.2504
  23311672.9614      17168.68849      8961.12047                  23311671.5044
        43.5004         26.5004
  20367895.0554    -765544.25049   -583576.99648                  20367891.5634
        50.5004         40.2504
  22392601.2274     278589.86749    203685.44947                  22392598.3954
        46.5004         31.0004
  22960852.7974    -887766.24649   -674226.79947                  22960848.3364
        45.7504         31.0004
  22593920.2424     654477.80549    487172.04547                  22593916.9654
        44.7504         27.0004
  21020080.0314    -166374.55549   -130578.95147                  21020075.2194
        51.5004         38.7504
  19959352.9774    -285473.14149   -220879.75348                  19959350.6724
        51.0004         40.5004
 04  7  6 17 50 30.0000000  0  8G 3G 9G14G18G19G21G22G15
  22333904.6484      64533.15649     43704.50447                  22333902.9884
        46.0004         32.2504
  23311807.8134      17876.39149      9512.58147                  23311805.9924
        44.0004         27.2504
  20363964.2344    -786199.85249   -599672.27648                  20363961.0984
        50.5004         40.0004
  22393857.4924     285191.69549    208829.69847                  22393854.3754
        47.2504         31.0004
  22956301.5164    -911682.48449   -692862.83147                  22956297.6024
        45.0004         31.5004
  22597194.7344     671687.66849    500582.31147                  22597191.7344
        45.2504         27.7504
  21019081.2344    -171623.79349   -134669.27847                  21019076.3794
        51.7504         38.7504
  19957726.6024    -294020.85249   -227540.31748                  19957723.9264
        50.5004         40.2504
 04  7  6 17 50 40.0000000  0  8G 3G 9G14G18G19G21G22G15
  22334204.7974      66109.71149     44932.98147                  22334202.8444
        45.7504         30.5004
  23311946.1724      18602.93449     10078.67347                  23311944.5004
        43.5004         25.7504
  20360035.4534    -806845.46549   -615759.75548                  20360032.1334
        50.5004         39.5004
  22395107.2504     291756.82049    213945.38347                  22395103.5204
        46.5004         30.2504
  22951752.6954    -935586.06249   -711489.00047                  22951748.9844
        45.0004         30.2504
  22600467.9064     688885.25049    513983.00847                  22600464.6604
        44.7504         26.5004
  21018076.3364    -176903.89849   -138783.63447                  21018071.6724
        51.0004         38.0004
  19956101.6644    -302559.88749   -234194.09248                  19956098.7384
        50.5004         40.2504
 04  7  6 17 50 50.0000000  0  8G 3G 9G14G18G19G21G22G15
  22334505.1254      67688.67649     46163.33747                  22334503.5394
        45.7504         32.5004
  23312087.9384      19348.16049     10659.35747                  23312086.5434
        43.5004         27.5004
  20356108.5784    -827481.17649   -631839.54548                  20356105.4654
        51.0004         40.2504
  22396349.3524     298285.20349    219032.41547                  22396346.0784
        47.0004         31.2504
  22947206.5944    -959477.03149   -730105.35747                  22947202.7034
        44.7504         31.0004
  22603737.7734     706070.27349    527373.88347                  22603734.7114
        45.0004         28.0004
  21017065.6414    -182215.03949   -142922.20247                  21017061.0944
        50.7504         38.5004
  19954478.3594    -311090.33249   -240841.22948                  19954475.5704
        50.5004         40.7504
 04  7  6 17 51  0.0000000  0  8G 3G 9G14G18G19G21G22G15
  22334806.4384      69270.98049     47396.29347                  22334804.8794
        46.2504         32.5004
  23312233.3754      20113.10549     11255.42747                  23312231.9024
        42.5004         27.0004
  20352183.9454    -848105.90649   -647910.75248                  20352180.7734
        50.7504         40.0004
  22397584.8444     304777.82849    224091.58347                  22397581.7344
        46.7504         31.0004
  22942662.5084    -983354.37949   -748711.08547                  22942658.8954
        45.2504         31.0004
  22607005.9224     723243.89849    540755.93447                  22607002.7034
        45.0004         28.0004
  21016049.4224    -187556.09849   -147084.06447                  21016044.4804
        51.0004         38.5004
  19952857.0314    -319611.08649   -247480.76648                  19952854.6254
        50.7504         40.5004
 04  7  6 17 51 10.0000000  0  8G 3G 9G14G18G19G21G22G15
  22335108.2114      70857.75049     48632.69647                  22335106.9414
        45.2504         33.2504
  23312383.2274      20898.87549     11867.69847                  23312381.9184
        42.0004         28.0004
  20348261.2504    -868718.60249   -663972.61448                  20348257.9884
        50.5004         41.5004
  22398813.8284     311235.85949    229123.78747                  22398810.4104
        46.5004         32.0004
  22938122.0474   -1007216.89149   -767305.25847                  22938117.5474
        44.7504         32.5004
  22610272.0864     740407.19949    554129.89047                  22610268.8914
        46.2504         27.5004
  21015027.4304    -192926.01649   -151268.44248                  21015022.3674
        51.5004         39.5004
  19951237.4774    -328120.98449   -254111.88648                  19951235.0124
        50.5004         41.2504
 04  7  6 17 51 20.0000000  0  8G 3G 9G14G18G19G21G22G15
  22335410.9454      72447.90649     49871.78247                  22335409.3524
        46.7504         32.7504
  23312536.1254      21704.55149     12495.47947                  23312535.3324
        42.5004         27.2504
  20344340.9694    -889320.11349   -680025.74548                  20344337.7154
        50.0004         41.0004
  22400035.7034     317658.39549    234128.34647                  22400032.6804
        47.0004         31.5004
  22933584.3364   -1031065.35949   -785888.47247                  22933579.8284
        46.0004         31.5004
  22613535.7734     757559.12549    567495.01547                  22613532.7894
        46.2504         29.2504
  21014000.0394    -198325.76249   -155476.03147                  21013995.1414
        51.2504         39.2504
  19949620.0314    -336620.91049   -260735.20848                  19949617.5944
        50.7504         41.2504
 04  7  6 17 51 30.0000000  0  8G 3G 9G14G18G19G21G22G15
  22335714.6804      74044.65649     51115.97947                  22335712.9184
        46.5004         31.5004
  23312693.6484      22533.22749     13141.19146                  23312693.2424
        42.5004         25.2504
  20340423.4534    -909907.21549   -696067.64748                  20340419.9534
        50.7504         40.0004
  22401252.0554     324048.70349    239107.82647                  22401248.7034
        47.7504         30.2504
  22929048.6414   -1054896.53549   -804458.21847                  22929044.6724
        45.2504         31.5004
  22616798.5864     774702.98049    580853.82047                  22616795.3834
        46.2504         28.7504
  21012967.1644    -203752.02749   -159704.29947                  21012962.4494
        51.7504         38.0004
  19948005.0554    -345107.59849   -267348.21948                  19948002.6374
        50.2504         40.5004
 04  7  6 17 51 40.0000000  0  8G 3G 9G14G18G19G21G22G15
  22336020.0164      75649.29749     52366.34747                  22336018.1914
        46.7504         31.7504
  23312856.5864      23386.30549     13805.91747                  23312855.1174
        43.0004         26.5004
  20336508.9694    -930478.61349   -712097.30548                  20336505.8594
        50.7504         40.5004
  22402462.1414     330408.07049    244063.15647                  22402459.3364
        47.2504         31.0004
  22924517.2974   -1078709.11349   -823013.48947                  22924513.4104
        46.2504         31.2504
  22620059.4304     791839.92249    594207.26847                  22620056.6524
        46.2504         27.5004
  21011930.1884    -209203.47749   -163952.17947                  21011925.2814
        51.5004         38.5004
  19946392.9064    -353579.66849   -273949.83848                  19946390.4304
        50.7504         41.0004
 04  7  6 17 51 50.0000000  0  8G 3G 9G14G18G19G21G22G15
  22336327.0634      77263.01649     53623.78547                  22336325.2424
        46.2504         30.7504
  23313023.5234      24265.10249     14490.69346                  23313022.2974
        43.0004         25.2504
  20332597.8524    -951032.83649   -728113.58048                  20332594.4654
        50.5004         40.0004
  22403666.7974     336737.84049    248995.43547                  22403663.9024
        47.5004         31.0004
  22919989.8914   -1102501.67649   -841553.14147                  22919985.8404
        46.0004         30.7504
  22623319.3444     808971.35549    607556.41847                  22623316.1804
        45.5004         26.7504
  21010888.0944    -214678.72349   -168218.61047                  21010883.2894
        50.5004         38.5004
  19944783.6954    -362035.69549   -280538.93448                  19944781.2304
        50.2504         40.0004
 04  7  6 17 52  0.0000000  0  8G 3G 9G14G18G19G21G22G15
  22336635.8524      78884.55949     54887.30547                  22336633.4884
        45.7504         31.7504
  23313195.6804      25168.28149     15194.44047                  23313194.4494
        42.2504         26.0004
  20328689.1174    -971571.20349   -744117.50848                  20328686.0084
        50.5004         40.7504
  22404865.7034     343036.70749    253903.63147                  22404862.1214
        47.2504         31.5004
  22915466.0164   -1126275.34849   -860078.09047                  22915462.0124
        46.5004         32.0004
  22626578.2344     826095.96149    620900.24347                  22626575.2194
        45.7504         28.5004
  21009841.1884    -220179.10549   -172504.63947                  21009836.3484
        51.7504         39.0004
  19943177.4064    -370476.98049   -287116.58448                  19943174.9654
        51.0004         41.5004
 04  7  6 17 52 10.0000000  0  8G 3G 9G14G18G19G21G22G15
  22336946.6884      80518.22749     56160.26447                  22336945.0204
        47.2504         31.7504
  23313372.8594      26100.23449     15920.64647                  23313371.0634
        42.7504         26.5004
  20324785.1094    -992089.38349   -760105.69948                  20324781.6254
        50.7504         40.2504
  22406059.0004     349309.07849    258791.18247                  22406055.2464
        47.7504         31.5004
  22910946.6094   -1150025.85949   -878584.99047                  22910942.2704
        47.0004         31.7504
  22629836.2894     843218.08249    634242.12647                  22629833.3244
        46.0004         26.2504
  21008790.6804    -225700.23449   -176806.80747                  21008785.8244
        51.2504         38.5004
  19941574.7114    -378899.07049   -293679.25748                  19941572.0704
        51.5004         40.2504
 04  7  6 17 52 20.0000000  0  8G 3G 9G14G18G19G21G22G15
  22337259.4454      82162.58649     57441.56347                  22337258.0904
        45.0004         32.5004
  23313554.8834      27059.56649     16668.17047                  23313553.6414
        43.0004         25.7504
  20320883.5164   -1012588.74649   -776079.25448                  20320880.6604
        50.7504         41.2504
  22407247.2664     355553.67249    263657.08047                  22407244.1914
        48.0004         32.0004
  22906431.0474   -1173754.47349   -897074.83447                  22906426.8014
        47.2504         32.7504
  22633093.9844     860336.28949    647580.95347                  22633090.9024
        45.5004         27.5004
  21007735.8204    -231243.46549   -181126.23948                  21007731.1174
        51.5004         39.5004
  19939975.4694    -387303.25049   -300227.99048                  19939973.0394
        50.7504         41.5004
 04  7  6 17 52 30.0000000  0  8G 3G 9G14G18G19G21G22G15
  22337574.4304      83818.12149     58731.57747                  22337573.0004
        46.7504         32.5004
  23313743.4224      28046.80549     17437.43747                  23313741.1094
        42.5004         25.7504
  20316986.7274   -1033068.73049   -792037.67948                  20316983.4614
        50.5004         40.7504
  22408430.6254     361771.06349    268501.78947                  22408427.3444
        47.5004         31.2504
  22901920.2114   -1197460.59849   -915547.12847                  22901916.0594
        47.0004         32.5004
  22636351.2584     877451.23449    660917.26147                  22636347.7734
        46.0004         28.0004
  21006677.1644    -236808.18749   -185462.37447                  21006672.2074
        51.5004         39.0004
  19938379.7344    -395688.91449   -306762.27948                  19938377.1214
        51.0004         41.0004
 04  7  6 17 52 40.0000000  0  8G 3G 9G14G18G19G21G22G15
  22337891.8054      85486.44949     60031.56747                  22337890.5004
        47.2504         32.0004
  23313936.0634      29063.59849     18229.72846                  23313934.9614
        43.0004         24.0004
  20313093.6094   -1053527.67649   -807979.70448                  20313090.2814
        50.2504         40.2504
  22409608.8364     367962.88349    273326.58347                  22409605.5434
        47.5004         30.5004
  22897413.5004   -1221142.45749   -934000.53147                  22897409.2074
        47.0004         31.7504
  22639607.0004     894564.48449    674252.24547                  22639604.1914
        45.5004         28.2504
  21005614.4924    -242392.76249   -189813.99747                  21005609.5824
        51.0004         38.7504
  19936787.8834    -404054.41449   -313280.84748                  19936785.2504
        51.2504         40.5004
 04  7  6 17 52 50.0000000  0  8G 3G 9G14G18G19G21G22G15
  22338212.2664      87169.34849     61342.92247                  22338210.3754
        46.5004         31.7504
  23314135.9614      30111.74649     19046.45146                  23314134.7544
        42.5004         25.0004
  20309204.7814   -1073963.72349   -823903.89348                  20309201.3164
        50.7504         40.5004
  22410782.4064     374130.89549    278132.79947                  22410779.5274
        47.0004         30.5004
  22892911.8594   -1244798.23849   -952433.60747                  22892907.9344
        46.0004         32.2504
  22642864.2974     911677.69549    687587.22147                  22642860.8524
        45.7504         26.5004
  21004548.1254    -247995.38349   -194179.68447                  21004543.3484
        51.2504         38.7504
  19935200.2424    -412397.89549   -319782.28048                  19935197.5084
        51.2504         41.0004
 04  7  6 17 53  0.0000000  0  8G 3G 9G14G18G19G21G22G15
  22338535.5394      88866.90649     62665.67147                  22338533.5704
        47.5004         30.5004
  23314340.8054      31191.35249     19887.71446                  23314340.1564
        41.7504         25.5004
  20305319.9844   -1094376.68449   -839810.10248                  20305316.7344
        50.5004         39.5004
  22411952.0314     380275.37949    282920.71647                  22411948.5944
        47.5004         30.0004
  22888415.3754   -1268427.68449   -970846.16647                  22888411.2734
        45.7504         30.7504
  22646120.5554     928791.05549    700922.27447                  22646117.5164
        46.0004         26.0004
  21003478.7114    -253615.87949   -198559.29447                  21003473.8404
        50.7504         37.7504
  19933616.7664    -420719.08649   -326266.32648                  19933614.1724
        51.0004         40.0004
 04  7  6 17 53 10.0000000  0  8G 3G 9G14G18G19G21G22G15
  22338860.7584      90577.69549     63998.74347                  22338859.3244
        47.0004         31.7504
  23314552.7584      32301.04349     20752.39446                  23314551.3164
        39.0004         23.7504
  20301439.6884   -1114767.93749   -855699.39848                  20301436.3364
        50.5004         40.5004
  22413116.3284     386394.98049    287689.21947                  22413113.1254
        47.7504         31.5004
  22883923.7974   -1292032.16049   -989239.26847                  22883919.4574
        46.2504         32.2504
  22649376.8444     945903.23049    714256.41147                  22649373.9534
        45.5004         27.2504
  21002405.4384    -259255.64849   -202953.92847                  21002400.5824
        51.0004         38.5004
  19932037.2194    -429019.37549   -332734.08948                  19932034.5274
        51.0004         41.0004
 04  7  6 17 53 20.0000000  0  8G 3G 9G14G18G19G21G22G15
  22339189.7424      92303.72349     65343.68447                  22339187.6484
        45.0004         30.7504
  23314769.7274      33442.88349     21642.09647                  23314768.6994
        41.7504         26.0004
  20297563.9694   -1135135.32849   -871570.08648                  20297561.0904
        50.2504         40.0004
  22414276.5084     392491.80549    292439.98747                  22414273.5044
        46.5004         31.5004
  22879436.9614   -1315609.50049  -1007611.22347                  22879432.9494
        45.7504         31.7504
  22652633.0004     963016.27049    727591.22047                  22652630.4024
        45.7504         27.7504
  21001329.0234    -264912.58649   -207361.92747                  21001324.1724
        51.5004         38.7504
  19930462.1564    -437296.56249   -339183.84448                  19930459.6644
        50.0004         40.5004
 04  7  6 17 53 30.0000000  0  8G 3G 9G14G18G19G21G22G15
  22339521.2424      94045.43449     66700.83747                  22339519.2814
        45.5004         31.7504
  23314993.5234      34617.43849     22557.35146                  23314992.1604
        40.5004         24.5004
  20293693.2894   -1155478.28549   -887421.75348                  20293689.8134
        50.5004         41.0004
  22415432.3444     398566.45749    297173.46647                  22415428.9884
        47.0004         31.0004
  22874955.9694   -1339159.06649  -1025961.54647                  22874951.8134
        45.7504         32.0004
  22655890.4384     980130.66849    740927.10047                  22655887.7234
        45.7504         29.0004
  21000249.3134    -270586.03149   -211782.81148                  21000244.4024
        51.7504         39.5004
  19928891.4614    -445550.07449   -345615.18048                  19928889.0354
        50.7504         41.2504
 04  7  6 17 53 40.0000000  0  8G 3G 9G14G18G19G21G22G15
  22339855.5554      95803.21149     68070.53447                  22339853.7774
        46.2504         31.5004
  23315223.1884      35825.10549     23498.36446                  23315221.8794
        41.5004         23.2504
  20289826.6564   -1175796.48049   -903254.11148                  20289823.1054
        50.2504         40.5004
  22416584.2274     404619.28149    301889.94547                  22416581.2154
        46.7504         31.5004
  22870479.5314   -1362680.42249  -1044289.88047                  22870475.4924
        45.2504         32.2504
  22659147.0784     997246.85549    754264.36147                  22659144.5944
        45.7504         28.2504
  20999166.7274    -276275.67249   -216216.30047                  20999161.7704
        51.5004         38.7504
  19927325.3754    -453779.50449   -352027.71548                  19927322.9304
        50.7504         40.7504
 04  7  6 17 53 50.0000000  0  8G 3G 9G14G18G19G21G22G15
  22340192.8834      97577.98449     69453.44847                  22340191.3954
        46.0004         31.0004
  23315459.4144      37066.76649     24465.88846                  23315458.0394
        42.2504         24.0004
  20285965.1484   -1196088.87949   -919066.36448                  20285961.6604
        50.0004         40.5004
  22417731.8594     410651.28549    306590.19247                  22417728.9534
        46.7504         30.0004
  22866009.1804   -1386172.60549  -1062595.46847                  22866005.3204
        46.0004         32.0004
  22662405.2664    1014365.72749    767603.72547                  22662401.8164
        46.0004         27.0004
  20998081.3054    -281980.50049   -220661.61947                  20998076.5164
        51.2504         38.7504
  19925764.3364    -461983.73849   -358420.63648                  19925761.6414
        50.2504         40.2504
 04  7  6 17 54  0.0000000  0  8G 3G 9G14G18G19G21G22G15
  22340533.9384      99368.60949     70848.74447                  22340531.7734
        47.0004         30.5004
  23315701.5164      38341.44549     25459.12046                  23315700.2384
        41.2504         22.2504
  20282108.2424   -1216356.46949   -934859.29348                  20282105.1604
        50.2504         40.5004
  22418875.7114     416661.50849    311273.48947                  22418872.8014
        47.2504         31.0004
  22861544.1334   -1409636.50849  -1080879.03247                  22861539.9774
        45.7504         32.0004
  22665662.7344    1031486.27349    780944.38747                  22665659.8834
        46.0004         27.5004
  20996992.5314    -287701.47349   -225119.53047                  20996987.6844
        50.7504         38.5004
  19924207.7034    -470163.84049   -364794.74948                  19924205.1334
        50.5004         40.5004
 04  7  6 17 54 10.0000000  0  8G 3G 9G14G18G19G21G22G15
  22340877.7974     101176.97749     72257.83647                  22340876.3554
        45.5004         31.0004
  23315951.6484      39651.05149     26479.56846                  23315949.8244
        42.2504         24.5004
  20278256.2424   -1236597.37949   -950631.44248                  20278253.0824
        50.2504         40.0004
  22420015.5634     422651.83249    315941.25747                  22420012.5004
        46.0004         30.2504
  22857084.7344   -1433070.25049  -1099139.10747                  22857080.8484
        45.0004         31.2504
  22668921.3204    1048610.42249    794287.84947                  22668918.5664
        45.7504         26.0004
  20995900.9694    -293436.72349   -229588.57247                  20995896.1804
        50.0004         38.2504
  19922655.8134    -478317.81249   -371148.48448                  19922653.5274
        50.2504         39.7504
 04  7  6 17 54 20.0000000  0  8G 3G 9G14G18G19G21G22G15
  22341225.7814     103003.73849     73681.27147                  22341223.8404
        47.0004         31.5004
  23316207.3914      40996.19149     27527.73746                  23316205.9304
        41.0004         23.7504
  20274409.8284   -1256810.88749   -966382.23248                  20274406.6414
        51.2504         40.5004
  22421151.7194     428623.06649    320594.14947                  22421148.9064
        47.5004         30.2504
  22852631.6094   -1456473.03949  -1117375.05147                  22852627.4264
        45.5004         32.0004
  22672181.0314    1065738.68849    807634.53147                  22672177.9804
        46.2504         27.5004
  20994807.3754    -299185.54749   -234068.18647                  20994802.2234
        51.2504         39.2504
  19921109.3524    -486444.93049   -377481.31248                  19921106.6644
        51.0004         41.0004
 04  7  6 17 54 30.0000000  0  8G 3G 9G14G18G19G21G22G15
  22341576.5864     104847.55149     75118.00147                  22341574.8594
        45.7504         31.2504
  23316469.9224      42375.63349     28602.60846                  23316468.0864
        42.0004         24.5004
  20270568.7894   -1276998.16849   -982112.57048                  20270565.3324
        51.0004         39.7504
  22422284.3834     434573.91049    325231.16147                  22422281.8794
        47.5004         30.2504
  22848183.9064   -1479846.10949  -1135587.82447                  22848179.5944
        45.0004         30.7504
  22675440.6804    1082869.86749    820983.48047                  22675438.0434
        45.2504         28.5004
  20993710.3364    -304949.11749   -238559.27247                  20993705.5554
        50.5004         38.7504
  19919567.8914    -494546.34849   -383794.11148                  19919565.1334
        50.2504         39.7504
 04  7  6 17 54 40.0000000  0  8G 3G 9G14G18G19G21G22G15
  22341930.8364     106710.14549     76569.35447                  22341929.1994
        45.7504         32.0004
  23316739.4844      43791.10549     29705.58246                  23316737.6684
        40.5004         23.2504
  20266732.2114   -1297157.49249   -997821.13848                  20266729.1884
        50.7504         41.0004
  22423412.9304     440506.07449    329853.61347                  22423409.9024
        47.0004         30.2504
  22843741.5554   -1503187.61349  -1153776.01547                  22843738.0744
        45.0004         32.0004
  22678701.7664    1100005.69949    834336.05547                  22678698.7934
        45.2504         28.0004
  20992611.0864    -310725.75049   -243060.54247                  20992606.1994
        50.7504         39.2504
  19918031.5004    -502620.30549   -390085.51448                  19918028.6764
        50.2504         41.2504
 04  7  6 17 54 50.0000000  0  8G 3G 9G14G18G19G21G22G15
  22342289.3984     108591.29749     78035.16847                  22342287.1914
        45.0004         31.7504
  23317014.8284      45242.49249     30836.53546                  23317013.6054
        37.7504         22.7504
  20262901.6884   -1317289.05549  -1013508.08848                  20262898.2854
        50.5004         40.5004
  22424538.6484     446419.57849    334461.53247                  22424535.5204
        47.5004         29.5004
  22839306.2974   -1526497.59449  -1171939.64947                  22839302.5434
        45.0004         31.0004
  22681963.4384    1117146.00849    847692.12847                  22681960.3834
        45.2504         28.7504
  20991509.4384    -316515.53549   -247572.07847                  20991504.3914
        51.0004         39.0004
  19916500.3204    -510666.86349   -396355.55948                  19916497.8244
        49.7504         40.5004
 04  7  6 17 55  0.0000000  0  8G 3G 9G14G18G19G21G22G15
  22342650.0704     110490.18449     79514.81547                  22342648.6604
        44.0004         31.5004
  23317298.6254      46728.84449     31994.66846                  23317296.2194
        37.5004         22.7504
  20259075.7664   -1337393.66449  -1029174.01448                  20259072.2234
        50.5004         40.2504
  22425660.1804     452313.56349    339054.23747                  22425657.1334
        47.5004         29.5004
  22834876.3754   -1549776.90649  -1190079.37847                  22834872.1414
        46.0004         31.5004
  22685225.7034    1134289.89849    861050.97747                  22685223.0394
        45.5004         27.7504
  20990405.0394    -322319.27349   -252094.47547                  20990400.2504
        52.0004         38.5004
  19914974.0944    -518686.81649   -402604.89148                  19914971.2854
        50.0004         40.0004
 04  7  6 17 55 10.0000000  0  8G 3G 9G14G18G19G21G22G15
  22343014.9224     112406.58249     81008.11047                  22343013.3364
        46.7504         31.5004
  23317587.7504      48250.17649     33180.16746                  23317585.9144
        38.2504         22.0004
  20255254.9454   -1357471.34849  -1044818.95548                  20255251.9454
        50.5004         40.2504
  22426777.9224     458187.98449    343631.69947                  22426774.7584
        47.5004         30.2504
  22830452.4304   -1573025.52749  -1208195.17447                  22830448.1134
        46.0004         31.0004
  22688489.0704    1151437.39149    874412.62947                  22688485.5124
        46.0004         27.5004
  20989297.7114    -328137.01649   -256627.78147                  20989292.9024
        51.7504         38.2504
  19913452.7584    -526680.14149   -408833.44748                  19913450.2624
        50.7504         40.5004
 04  7  6 17 55 20.0000000  0  8G 3G 9G14G18G19G21G22G15
  22343383.9534     114343.86749     82517.66647                  22343382.3094
        45.7504         31.0004
  23317883.9304      49809.78949     34395.43246                  23317882.7974
        39.2504         22.0004
  20251440.1954   -1377518.66049  -1060440.23248                  20251436.8674
        51.0004         40.0004
  22427892.7814     464046.21949    348196.54547                  22427889.9844
        47.2504         29.2504
  22826035.0314   -1596240.00449  -1226284.37347                  22826030.4654
        45.0004         31.0004
  22691753.5004    1168591.85249    887779.74647                  22691750.2734
        45.2504         26.7504
  20988188.8834    -333965.38349   -261169.36247                  20988184.1254
        51.0004         38.0004
  19911937.5164    -534643.40649   -415038.60448                  19911934.9654
        50.0004         40.0004
 04  7  6 17 55 30.0000000  0  8G 3G 9G14G18G19G21G22G15
  22343756.5004     116301.82049     84043.33247                  22343754.6414
        46.2504         32.0004
  23318188.4064      51407.57049     35640.43846                  23318186.7704
        40.2504         22.5004
  20247630.8364   -1397535.82049  -1076038.01348                  20247627.5744
        50.5004         40.5004
  22429004.2504     469888.18449    352748.71247                  22429001.2894
        47.5004         29.2504
  22821623.7274   -1619420.50049  -1244347.09247                  22821619.6844
        45.7504         30.5004
  22695018.9924    1185753.01649    901152.04347                  22695015.9414
        45.0004         27.5004
  20987077.4384    -339804.54749   -265719.37247                  20987072.7704
        51.5004         38.5004
  19910428.1174    -542576.78549   -421220.46948                  19910425.5354
        50.5004         40.7504
 04  7  6 17 55 40.0000000  0  8G 3G 9G14G18G19G21G22G15
  22344132.3284     118278.06349     85583.24747                  22344130.5474
        45.5004         32.0004
  23318499.2894      53041.13749     36913.34246                  23318498.0824
        40.2504         22.5004
  20243827.4534   -1417525.09449  -1091614.08148                  20243823.8244
        50.5004         41.0004
  22430112.2664     475711.54349    357286.37547                  22430109.6454
        47.0004         29.5004
  22817218.1644   -1642569.25049  -1262385.09347                  22817214.3164
        46.0004         31.5004
  22698285.5234    1202918.50449    914527.73747                  22698282.7734
        45.0004         27.5004
  20985964.0784    -345656.77749   -270279.55847                  20985959.1484
        51.0004         38.2504
  19908923.5314    -550482.46149   -427380.74348                  19908920.9304
        50.0004         40.2504
 04  7  6 17 55 50.0000000  0  8G 3G 9G14G18G19G21G22G15
  22344512.3134     120274.30549     87138.76347                  22344510.3054
        46.0004         31.7504
  23318817.6644      54712.15249     38215.42246                  23318815.6914
        41.2504         22.7504
  20240028.5864   -1437484.79749  -1107167.09648                  20240025.9414
        50.2504         41.0004
  22431217.6564     481518.00849    361810.90047                  22431214.5664
        47.0004         29.7504
  22812819.6644   -1665684.51249  -1280396.99047                  22812815.2774
        46.2504         31.2504
  22701553.0784    1220090.05949    927908.13347                  22701550.3014
        44.7504         27.5004
  20984848.2814    -351520.33249   -274848.56747                  20984843.3094
        51.7504         38.7504
  19907424.8134    -558358.70749   -433518.06448                  19907422.2074
        50.2504         40.7504
 04  7  6 17 56  0.0000000  0  8G 3G 9G14G18G19G21G22G15
  22344895.8834     122289.88749     88709.31847                  22344893.9804
        45.5004         32.5004
  23319142.1254      56420.08249     39546.24646                  23319140.8054
        41.5004         22.7504
  20236236.1884   -1457415.40249  -1122697.45048                  20236233.3714
        50.2504         40.7504
  22432318.6564     487307.02049    366321.78047                  22432316.0004
        47.5004         30.7504
  22808427.3914   -1688766.72749  -1298383.16847                  22808423.3954
        45.7504         30.7504
  22704821.6094    1237267.10249    941292.84147                  22704819.2074
        44.5004         27.2504
  20983730.2274    -357395.73049   -279426.80447                  20983725.4224
        51.5004         39.0004
  19905931.5864    -566206.00449   -439632.86648                  19905928.8404
        50.0004         40.7504
 04  7  6 17 56 10.0000000  0  8G 3G 9G14G18G19G21G22G15
  22345283.1884     124325.87549     90295.78347                  22345281.2384
        43.7504         32.0004
  23319474.8984      58166.00049     40906.72046                  23319473.2774
        40.5004         22.2504
  20232449.2114   -1477315.79749  -1138204.25648                  20232446.0944
        51.2504         41.2504
  22433417.8284     493079.82849    370820.06147                  22433414.5394
        46.7504         31.0004
  22804041.5554   -1711814.83649  -1316342.72547                  22804037.2034
        46.2504         31.0004
  22708091.9144    1254450.72349    954682.61747                  22708088.9454
        45.0004         27.5004
  20982610.1094    -363281.91449   -284013.44847                  20982604.9884
        51.2504         39.0004
  19904444.0004    -574023.27049   -445724.24348                  19904441.3014
        50.0004         40.7504
 04  7  6 17 56 20.0000000  0  8G 3G 9G14G18G19G21G22G15
  22345674.5634     126382.04749     91898.00947                  22345672.5984
        46.2504         31.2504
  23319814.1644      59949.80549     42296.68446                  23319812.5864
        41.0004         22.2504
  20228668.0944   -1497186.12949  -1153687.61648                  20228665.0664
        50.2504         40.5004
  22434513.1254     498836.27749    375305.60347                  22434510.0634
        47.5004         29.5004
  22799661.6884   -1734828.85549  -1334275.72647                  22799657.8164
        45.7504         30.7504
  22711362.7194    1271640.77349    968077.47447                  22711360.1094
        45.0004         27.0004
  20981487.8674    -369178.97749   -288608.55247                  20981483.0864
        51.2504         38.0004
  19902962.2194    -581810.50049   -451792.21348                  19902959.2664
        50.2504         40.5004
 04  7  6 17 56 30.0000000  0  8G 3G 9G14G18G19G21G22G15
  22346069.6884     128457.39549     93515.13447                  22346068.0704
        44.5004         31.5004
  23320160.2734      61770.56349     43715.37846                  23320158.7854
        38.5004         22.5004
  20224892.6254   -1517027.32849  -1169148.30148                  20224889.0004
        50.5004         40.2504
  22435605.2034     504575.43849    379777.67547                  22435602.3134
        47.2504         29.5004
  22795289.1484   -1757809.60949  -1352182.81047                  22795285.1914
        46.2504         31.0004
  22714635.2814    1288836.32049    981476.56647                  22714632.4614
        45.5004         28.0004
  20980363.5004    -375087.76649   -293212.81447                  20980358.8754
        51.5004         38.5004
  19901486.0084    -589568.59049   -457837.50748                  19901483.0044
        49.5004         40.2504
 04  7  6 17 56 40.0000000  0  8G 3G 9G14G18G19G21G22G15
  22346467.9774     130553.14549     95148.17647                  22346467.1884
        46.5004         31.5004
  23320513.9614      63629.39549     45163.90446                  23320512.8794
        39.7504         21.5004
  20221122.9064   -1536838.08649  -1184585.23648                  20221119.4734
        50.2504         39.7504
  22436694.6414     510298.63749    384237.29947                  22436691.5434
        46.2504         29.0004
  22790922.5944   -1780755.84049  -1370062.98447                  22790918.5664
        45.7504         30.2504
  22717908.4304    1306038.55149    994880.89047                  22717905.7344
        45.0004         26.7504
  20979237.1094    -381006.97749   -297825.18047                  20979232.3284
        50.5004         38.0004
  19900015.3834    -597296.23849   -463859.02248                  19900012.6334
        50.5004         40.0004
 04  7  6 17 56 50.0000000  0  8G 3G 9G14G18G19G21G22G15
  22346871.4384     132669.90249     96797.57847                  22346869.4454
        46.7504         32.5004
  23320875.4774      65527.01249     46642.52846                  23320873.8984
        40.2504         22.5004
  20217358.6954   -1556617.78949  -1199998.01448                  20217355.3984
        50.7504         40.7504
  22437780.3284     516006.43049    388684.90347                  22437777.6564
        47.7504         30.7504
  22786562.6724   -1803666.82849  -1387915.72347                  22786558.5234
        46.0004         31.5004
  22721183.5554    1323247.98449   1008290.81847                  22721180.6914
        45.5004         26.5004
  20978108.6484    -386936.03149   -302445.24247                  20978103.9304
        51.7504         38.5004
  19898550.5784    -604992.75849   -469856.33748                  19898547.7624
        51.0004         40.7504
 04  7  6 17 57  0.0000000  0  8G 3G 9G14G18G19G21G22G15
  22347277.9844     134807.34849     98463.12147                  22347276.2774
        46.5004         32.2504
  23321242.9774      67463.02048     48151.05046                  23321242.2114
        35.7504         22.0004
  20213600.6094   -1576366.66049  -1215386.73448                  20213597.5314
        50.5004         40.2504
  22438863.7584     521698.64149    393120.39447                  22438860.5664
        47.0004         30.0004
  22782209.3834   -1826542.79349  -1405741.13847                  22782205.5864
        46.5004         32.0004
  22724459.5314    1340464.45349   1021706.24347                  22724457.0634
        45.0004         26.7504
  20976978.5704    -392875.18449   -307073.15247                  20976973.9614
        51.7504         38.0004
  19897091.8284    -612658.38749   -475829.55148                  19897089.5554
        50.5004         40.0004
 04  7  6 17 57 10.0000000  0  8G 3G 9G14G18G19G21G22G15
  22347688.4534     136963.71949    100143.38747                  22347686.5274
        47.0004         33.2504
  23321619.2814      69435.89549     49688.35346                  23321617.7624
        38.2504         22.5004
  20209848.4224   -1596086.36349  -1230752.76048                  20209844.7934
        50.5004         41.7504
  22439943.8134     527373.68849    397542.48647                  22439940.2074
        47.0004         30.7504
  22777862.9144   -1849385.32049  -1423540.53647                  22777858.2734
        46.0004         32.0004
  22727736.7034    1357686.25849   1035125.77947                  22727734.6914
        44.7504         27.5004
  20975846.0944    -398826.08249   -311710.23248                  20975841.2234
        51.0004         39.5004
  19895638.8284    -620294.71949   -481779.96748                  19895635.9184
        50.7504         41.2504
 04  7  6 17 57 20.0000000  0  8G 3G 9G14G18G19G21G22G15
  22348102.5084     139140.85249    101839.84147                  22348100.7854
        45.5004         32.7504
  23322002.1094      71447.34449     51255.71746                  23322000.3794
        39.0004         21.7504
  20206101.5554   -1615774.96949  -1246094.52948                  20206098.3244
        50.7504         40.5004
  22441020.6414     533033.43849    401952.66947                  22441017.3714
        47.0004         29.2504
  22773522.7504   -1872192.51649  -1441312.36947                  22773518.5594
        47.0004         32.0004
  22731015.9454    1374915.31349   1048551.00247                  22731012.3754
        45.2504         27.2504
  20974711.6174    -404786.81649   -316354.96047                  20974706.9184
        52.2504         38.5004
  19894191.4694    -627899.82049   -487706.02748                  19894188.9344
        50.2504         41.0004
 04  7  6 17 57 30.0000000  0  8G 3G 9G14G18G19G21G22G15
  22348520.9454     141340.35949    103553.74147                  22348519.1484
        45.2504         31.7504
  23322392.5704      73499.08249     52854.45846                  23322390.8324
        39.2504         22.7504
  20202361.2814   -1635430.88749  -1261410.83148                  20202357.7424
        50.5004         40.2504
  22442095.0704     538679.53549    406352.21047                  22442091.8674
        47.0004         29.7504
  22769189.5004   -1894962.69949  -1459055.37947                  22769185.6254
        46.2504         31.0004
  22734295.8914    1392153.17649   1061983.07847                  22734292.9534
        45.5004         26.0004
  20973575.8834    -410755.71949   -321006.05047                  20973571.2974
        50.7504         38.0004
  19892750.8754    -635471.96549   -493606.39648                  19892748.2974
        49.5004         40.0004
 04  7  6 17 57 40.0000000  0  8G 3G 9G14G18G19G21G22G15
  22348943.8674     143561.77349    105284.70747                  22348941.9614
        46.0004         32.0004
  23322790.5164      75590.65249     54484.22746                  23322789.1844
        40.2504         22.5004
  20198626.9144   -1655054.48449  -1276701.93648                  20198623.5554
        50.5004         40.2504
  22443167.1954     544311.65249    410740.88747                  22443163.8244
        46.5004         29.2504
  22764863.2504   -1917696.16849  -1476769.76747                  22764859.3714
        46.2504         32.0004
  22737577.7664    1409399.41849   1075421.67647                  22737575.3054
        45.0004         26.7504
  20972438.4454    -416733.13349   -325663.77247                  20972433.6994
        51.5004         37.5004
  19891316.2734    -643011.55549   -499481.41148                  19891313.2464
        50.0004         40.7504
 04  7  6 17 57 50.0000000  0  8G 3G 9G14G18G19G21G22G15
  22349370.7814     145804.31649    107032.12247                  22349369.1684
        47.5004         31.5004
  23323196.3984      77721.34449     56144.51746                  23323193.9104
        40.5004         22.7504
  20194898.6024   -1674646.41049  -1291968.37648                  20194895.3444
        50.0004         39.5004
  22444235.8444     549929.20749    415118.19347                  22444232.5704
        47.0004         30.2504
  22760544.7664   -1940393.62549  -1494456.10447                  22760540.3204
        47.0004         30.5004
  22740860.7504    1426653.34049   1088866.28047                  22740858.3594
        45.0004         26.5004
  20971299.5634    -422719.81249   -330328.72947                  20971294.6134
        51.2504         38.0004
  19889887.4144    -650519.25849   -505331.58048                  19889884.4414
        51.0004         40.0004
 04  7  6 17 58  0.0000000  0  8G 3G 9G14G18G19G21G22G15
  22349801.4924     148069.03149    108796.81347                  22349799.7034
        47.0004         32.2504
  23323609.7584      79892.32849     57836.15046                  23323607.3014
        41.0004         22.5004
  20191176.5474   -1694205.50849  -1307209.23948                  20191173.2114
        50.7504         40.7504
  22445302.3594     555533.21949    419484.94647                  22445299.2344
        47.0004         31.0004
  22756232.4384   -1963053.91049  -1512113.47747                  22756228.2854
        46.7504         31.2504
  22744145.8674    1443916.01649   1102317.68247                  22744143.4344
        45.0004         27.0004
  20970158.8284    -428714.58249   -334999.98847                  20970153.9884
        49.7504         38.2504
  19888465.0314    -657993.84849   -511155.93648                  19888462.1644
        51.0004         40.7504
 04  7  6 17 58 10.0000000  0  8G 3G 9G14G18G19G21G22G15
  22350236.0944     150353.30549    110576.75747                  22350234.6884
        46.2504         32.7504
  23324029.7894      82100.93849     59557.15846                  23324027.8204
        40.2504         22.2504
  20187460.2114   -1713734.38749  -1322426.54748                  20187456.9144
        50.2504         40.2504
  22446365.7194     561121.11349    423839.14247                  22446362.2584
        47.7504         29.5004
  22751926.4454   -1985679.49649  -1529743.80247                  22751922.9144
        46.2504         31.5004
  22747432.1174    1461184.84849   1115773.88447                  22747429.8754
        45.2504         26.7504
  20969015.7114    -434720.01249   -339679.54247                  20969011.0744
        51.2504         38.0004
  19887048.4614    -665437.87549   -516956.47648                  19887046.1024
        51.2504         40.0004
 04  7  6 17 58 20.0000000  0  8G 3G 9G14G18G19G21G22G15
  22350675.6334     152660.07849    112374.24247                  22350673.3594
        45.2504         32.5004
  23324457.8134      84350.10249     61309.70246                  23324456.3014
        40.2504         22.2504
  20183750.7734   -1733230.02749  -1337617.96448                  20183747.4104
        50.2504         41.5004
  22447426.6174     566695.86349    428183.09447                  22447423.0744
        46.7504         31.2504
  22747628.6174   -2008267.42649  -1547344.79247                  22747624.8324
        47.0004         31.7504
  22750720.0634    1478462.74249   1129237.13047                  22750717.4774
        44.5004         27.5004
  20967871.3444    -440733.15649   -344365.11747                  20967866.6374
        51.0004         39.2504
  19885638.4224    -672848.31249   -522730.86448                  19885635.5314
        50.2504         41.2504
 04  7  6 17 58 30.0000000  0  8G 3G 9G14G18G19G21G22G15
  22351118.7664     154991.10549    114190.61247                  22351117.4694
        44.5004         32.2504
  23324893.9614      86641.64549     63095.34846                  23324892.7194
        40.5004         23.0004
  20180047.2114   -1752690.68049  -1352782.11048                  20180044.2774
        50.0004         41.0004
  22448485.6884     572259.40249    432518.30947                  22448482.2154
        47.2504         30.7504
  22743337.7504   -2030815.79349  -1564914.96047                  22743333.6844
        46.7504         31.5004
  22754009.9534    1495751.54749   1142708.93947                  22754007.8054
        44.2504         27.5004
  20966726.2114    -446752.07849   -349055.19547                  20966721.4224
        50.2504         39.0004
  19884234.6884    -680223.30149   -528477.61648                  19884232.3524
        49.5004         40.7504
 04  7  6 17 58 40.0000000  0  8G 3G 9G14G18G19G21G22G15
  22351566.1724     157343.23049    116023.40047                  22351564.8984
        43.7504         31.5004
  23325337.2664      88972.44549     64911.51646                  23325335.9184
        39.7504         22.5004
  20176350.2814   -1772119.43049  -1367921.40848                  20176346.7544
        50.2504         41.0004
  22449541.2114     577808.70349    436842.42047                  22449538.0394
        47.2504         29.7504
  22739053.7424   -2053327.60249  -1582456.63747                  22739049.8164
        45.7504         31.2504
  22757301.7274    1513048.24649   1156186.83046                  22757298.6994
        44.5004         25.5004
  20965579.0864    -452779.90649   -353752.20547                  20965574.3324
        50.5004         38.7504
  19882837.9224    -687565.92249   -534199.12748                  19882835.0124
        49.7504         40.2504
 04  7  6 17 58 50.0000000  0  8G 3G 9G14G18G19G21G22G15
  22352018.0864     159718.44149    117874.22847                  22352016.8874
        45.7504         32.0004
  23325789.0634      91344.59849     66759.91646                  23325786.5394
        39.0004         22.7504
  20172659.5084   -1791514.12549  -1383034.14848                  20172655.8714
        51.0004         40.7504
  22450594.7034     583345.79749    441157.03347                  22450591.8634
        47.5004         30.7504
  22734777.2274   -2075800.79349  -1599968.21247                  22734773.1724
        45.5004         30.5004
  22760594.8524    1530354.72349   1169672.38847                  22760591.8444
        44.2504         26.2504
  20964430.8054    -458814.47749   -358454.47047                  20964426.2624
        50.2504         39.0004
  19881446.7664    -694874.03549   -539893.76648                  19881444.1414
        50.0004         40.2504
 04  7  6 17 59  0.0000000  0  8G 3G 9G14G18G19G21G22G15
  22352474.4614     162115.19949    119741.80347                  22352473.0984
        44.7504         32.2504
  23326247.6804      93756.56349     68639.40746                  23326245.5594
        38.5004         23.7504
  20168975.0634   -1810876.19149  -1398121.46648                  20168971.7854
        49.7504         40.5004
  22451646.1724     588869.25449    445461.04847                  22451642.8874
        46.7504         29.5004
  22730507.4614   -2098236.80549  -1617450.84147                  22730503.7384
        45.5004         30.5004
  22763889.8054    1547669.55949   1183164.46946                  22763886.7384
        44.2504         25.0004
  20963280.9694    -464857.28149   -363163.14047                  20963276.0704
        51.2504         38.2504
  19880062.4694    -702149.05949   -545562.63148                  19880059.7504
        49.7504         39.7504
 04  7  6 17 59 10.0000000  0  8G 3G 9G14G18G19G21G22G15
  22352935.1884     164535.00049    121627.35247                  22352933.0474
        44.5004         31.7504
  23326714.4614      96209.91849     70551.07546                  23326712.8874
        40.7504         23.0004
  20165296.9454   -1830204.11349  -1413182.20048                  20165293.8834
        50.5004         40.7504
  22452694.8134     594380.67249    449755.62647                  22452692.2194
        47.2504         29.7504
  22726245.8754   -2120633.90249  -1634903.12347                  22726241.9694
        45.5004         31.5004
  22767186.2504    1564994.21949   1196664.15047                  22767183.4454
        43.7504         26.5004
  20962130.2274    -470906.78949   -367877.06247                  20962125.1294
        51.0004         38.7504
  19878684.8054    -709389.39549   -551204.44748                  19878681.9064
        49.7504         40.5004
 04  7  6 17 59 19.9990000  0  8G 3G 9G14G18G19G21G22G15
  22353399.1834     166974.90649    123528.57047                  22353397.9764
        43.7504         31.7504
  23327188.8624      98701.60249     72492.64146                  23327186.8514
        41.2504         23.2504
  20161625.4334   -1849498.72349  -1428216.96548                  20161621.8314
        50.0004         40.7504
  22453740.7534     599876.77749    454038.29747                  22453738.0304
        47.5004         30.2504
  22721990.8084   -2142992.65249  -1652325.53547                  22721987.3084
        45.5004         30.2504
  22770484.3624    1582324.30949   1210168.09047                  22770481.2574
        43.7504         26.7504
  20960977.0344    -476965.07049   -372597.81447                  20960971.8864
        51.2504         38.5004
  19877313.1514    -716597.00049   -556820.77248                  19877310.7614
        49.0004         40.2504
 04  7  6 17 59 29.9990000  0  8G 3G 9G14G18G19G21G22G15
  22353867.6674     169436.34449    125446.56447                  22353866.3824
        45.5004         32.5004
  23327670.1514     101233.14549     74465.22946                  23327668.6204
        41.2504         23.0004
  20157959.4874   -1868762.80549  -1443227.94348                  20157956.1714
        50.2504         41.2504
  22454784.4174     605359.78949    458310.76447                  22454781.1904
        47.0004         31.7504
  22717743.0814   -2165316.42249  -1669720.69247                  22717739.2614
        46.0004         31.2504
  22773784.5504    1599664.21149   1223679.72647                  22773781.2104
        43.5004         27.5004
  20959822.1054    -483032.29749   -377325.52147                  20959817.7144
        50.7504         39.0004
  19875948.2064    -723772.22749   -562411.86548                  19875945.0974
        50.2504         41.2504
 04  7  6 17 59 39.9990000  0  8G 3G 9G14G18G19G21G22G15
  22354340.0504     171919.45349    127381.42247                  22354338.3554
        45.2504         32.5004
  23328159.9174     103804.71549     76469.08246                  23328158.2144
        39.5004         25.2504
  20154299.8864   -1887993.99649  -1458213.29248                  20154296.5224
        50.0004         41.0004
  22455824.9564     610829.59049    462572.92847                  22455821.8194
        46.5004         30.2504
  22713502.1834   -2187602.47349  -1687086.44447                  22713498.5544
        45.7504         31.5004
  22777084.9874    1617012.64849   1237197.93347                  22777082.9254
        43.7504         26.5004
  20958666.4644    -489107.37549   -382059.35747                  20958661.6674
        50.0004         38.7504
  19874588.7534    -730913.84449   -567976.77448                  19874585.9764
        49.5004         41.0004
 04  7  6 17 59 49.9990000  0  8G 3G 9G14G18G19G21G22G15
  22354817.0734     174424.73849    129333.60047                  22354815.4404
        46.0004         31.7504
  23328657.3234     106417.02349     78504.62346                  23328654.7184
        40.2504         23.7504
  20150646.7064   -1907191.58649  -1473172.45448                  20150643.4724
        50.5004         40.5004
  22456863.5114     616286.90249    466825.38747                  22456860.4054
        47.5004         30.0004
  22709268.4564   -2209850.14149  -1704422.30147                  22709264.7024
        45.2504         31.2504
  22780388.3084    1634370.26649   1250723.32847                  22780386.2804
        45.0004         27.0004
  20957508.8474    -495189.65649   -386798.80947                  20957504.1404
        50.7504         38.5004
  19873236.1364    -738021.12949   -573514.92548                  19873233.4374
        50.0004         40.2504
 04  7  6 17 59 59.9990000  0  8G 3G 9G14G18G19G21G22G15
  22355298.3234     176951.80949    131302.73347                  22355296.4214
        45.7504         32.0004
  23329162.2374     109069.53149     80571.49446                  23329159.8394
        41.2504         24.2504
  20146999.8624   -1926356.03949  -1488105.78548                  20146996.6834
        50.5004         40.5004
  22457899.6594     621731.35949    471067.81247                  22457896.7414
        47.2504         29.5004
  22705042.1364   -2232059.76249  -1721728.49947                  22705038.3354
        45.0004         31.5004
  22783693.3474    1651736.52749   1264255.46647                  22783690.6594
        44.5004         27.0004
  20956349.9404    -501279.46549   -391544.11347                  20956345.2694
        51.0004         38.5004
  19871890.5584    -745094.51649   -579026.66048                  19871887.6714
        50.2504         40.5004
 04  7  6 18  0  9.9990000  0  8G 3G 9G14G18G19G21G22G15
  22355783.4484     179501.87149    133289.77947                  22355781.5224
        43.0004         31.7504
  23329674.5194     111763.53549     82670.73046                  23329672.3624
        40.7504         24.2504
  20143359.4804   -1945485.99249  -1503012.24748                  20143356.2884
        50.0004         40.2504
  22458933.3474     627164.15249    475301.13747                  22458930.2064
        47.0004         29.2504
  22700823.2764   -2254230.00449  -1739004.01547                  22700819.2964
        45.5004         30.7504
  22786999.9014    1669112.78549   1277795.38547                  22786997.0344
        45.0004         26.5004
  20955189.8864    -507375.54749   -396294.31947                  20955185.2844
        50.0004         37.7504
  19870551.0734    -752132.67249   -584510.94648                  19870548.3514
        48.5004         40.0004
 04  7  6 18  0 19.9990000  0  9G 3G 9G14G18G19G21G22G15G25
  22356272.4174     182072.32449    135292.71447                  22356270.9834
        45.0004         31.5004
  23330194.5424     114496.56349     84800.30546                  23330192.1474
        41.5004         22.5004
  20139725.2614   -1964583.93749  -1517893.76948                  20139722.1084
        50.7504         40.7504
  22459964.5734     632582.80149    479523.44847                  22459961.5814
        46.5004         29.7504
  22696611.4404   -2276363.25449  -1756250.70747                  22696607.6474
        45.5004         31.7504
  22790307.9484    1686496.57049   1291341.15547                  22790304.3394
        44.5004         27.5004
  20954028.2144    -513480.37549   -401051.32647                  20954023.4054
        50.2504         38.7504
  19869217.7844    -759137.99649   -589969.64048                  19869215.2064
        50.5004         40.7504
  24248558.5584    -155818.30959   -116876.05156                  24248558.6014
        39.0004         19.0004
 04  7  6 18  0 29.9990000  0  9G 3G 9G14G18G19G21G22G15G25
  22356765.5974     184665.03949    137312.98647                  22356764.2614
        46.0004         31.0004
  23330721.9404     117270.44149     86961.79646                  23330719.8624
        41.0004         22.5004
  20136097.6754   -1983648.01649  -1532748.90448                  20136094.2534
        50.2504         40.5004
  22460993.7374     637989.40649    483736.37647                  22460990.3044
        46.7504         30.2504
  22692407.1364   -2298457.58249  -1773467.08147                  22692402.9254
        46.2504         31.2504
  22793618.2614    1703889.67649   1304894.22147                  22793614.5624
        45.5004         25.7504
  20952865.3004    -519592.06649   -405813.68347                  20952860.4764
        51.2504         38.2504
  19867891.7224    -766108.56249   -595401.25648                  19867888.8354
        50.2504         40.0004
  24239561.8314    -203094.45349   -153714.55746                  24239561.7224
        37.5004         19.7504
 04  7  6 18  0 39.9990000  0  9G 3G 9G14G18G19G21G22G15G25
  22357263.2614     187280.19949    139350.77047                  22357262.0934
        45.7504         31.5004
  23331258.0894     120085.44149     89155.28646                  23331255.9644
        38.5004         22.5004
  20132476.2064   -2002677.93049  -1547577.40348                  20132473.1014
        50.7504         41.7504
  22462019.5974     643384.14149    487940.05547                  22462017.0264
        47.0004         29.7504
  22688210.1984   -2320512.67649  -1790652.87047                  22688205.9764
        46.0004         31.2504
  22796929.4094    1721292.12549   1318454.53147                  22796926.1674
        45.0004         26.5004
  20951700.7844    -525710.27049   -410581.11747                  20951696.0224
        49.0004         38.7504
  19866571.9174    -773044.02349   -600805.52648                  19866568.7964
        49.0004         41.0004
  24230560.8624    -250397.16849   -190573.74546                  24230559.8084
        40.0004         19.5004
 04  7  6 18  0 49.9990000  0  9G 3G 9G14G18G19G21G22G15G25
  22357764.8864     189917.57849    141405.85347                  22357763.6554
        45.2504         31.7504
  23331800.7764     122941.31349     91380.67246                  23331799.5694
        40.0004         22.5004
  20128861.5264   -2021673.82849  -1562379.41348                  20128857.9484
        50.0004         41.7504
  22463044.3624     648766.84049    492134.36547                  22463041.1474
        46.2504         30.5004
  22684020.3474   -2342528.73449  -1807808.24547                  22684016.5854
        46.2504         31.7504
  22800242.4954    1738704.06349   1332022.26847                  22800240.0464
        46.0004         26.0004
  20950535.1674    -531835.16849   -415353.78447                  20950530.7304
        48.0004         38.2504
  19865258.8394    -779944.52349   -606182.54748                  19865255.9954
        48.5004         41.0004
  24221554.0654    -297726.62949   -227453.85346                  24221552.9404
        39.0004         21.7504
 04  7  6 18  0 59.9990000  0  9G 3G 9G14G18G19G21G22G15G25
  22358271.2064     192574.90649    143476.48347                  22358269.6124
        44.5004         31.0004
  23332352.0424     125835.87549     93636.11546                  23332350.2264
        41.0004         22.7504
  20125253.0654   -2040637.85549  -1577156.57848                  20125249.6084
        50.0004         41.0004
  22464066.2224     654135.38349    496317.63847                  22464062.7104
        47.0004         30.0004
  22679838.1514   -2364507.86749  -1824934.83847                  22679834.0384
        45.7504         31.0004
  22803557.5264    1756123.22349   1345595.59747                  22803554.5934
        45.5004         26.2504
  20949368.4014    -537968.96549   -420133.36747                  20949363.5544
        50.0004         38.2504
  19863951.5194    -786812.14549   -611533.94848                  19863949.0544
        50.0004         40.5004
  24212542.2534    -345084.69549   -264356.21746                  24212540.5114
        39.7504         20.7504
 04  7  6 18  1  9.9990000  0  9G 3G 9G14G18G19G21G22G15G25
  22358780.6284     195252.62149    145563.00147                  22358779.0584
        46.2504         31.2504
  23332910.5344     128769.48449     95922.05046                  23332908.8944
        42.0004         22.7504
  20121650.1834   -2059569.71549  -1591908.66648                  20121647.1714
        50.0004         40.5004
  22465084.9334     659490.22749    500490.24347                  22465082.1324
        46.7504         30.0004
  22675662.6364   -2386449.66449  -1842032.34947                  22675658.6984
        46.0004         30.5004
  22806874.1284    1773549.92249   1359174.84447                  22806870.5934
        45.5004         27.0004
  20948199.4174    -544111.18749   -424919.51547                  20948194.3904
        50.5004         38.2504
  19862651.1984    -793646.51649   -616859.42448                  19862648.7884
        50.5004         40.5004
  24203524.6984    -392471.01249   -301280.60846                  24203523.0694
        40.0004         20.7504
 04  7  6 18  1 19.9990000  0  9G 3G 9G14G18G19G21G22G15G25
  22359293.8624     197951.35549    147665.89747                  22359292.2764
        44.7504         31.2504
  23333476.7144     131742.78949     98238.89946                  23333474.7964
        41.2504         23.7504
  20118053.7924   -2078468.58249  -1606635.06548                  20118050.5934
        50.0004         40.5004
  22466101.0114     664832.11349    504652.71247                  22466098.3434
        46.2504         29.2504
  22671494.4094   -2408353.32449  -1859100.14847                  22671490.3664
        45.7504         30.0004
  22810191.5114    1790984.72349   1372760.36847                  22810187.7804
        45.0004         25.7504
  20947029.0814    -550261.14549   -429711.69047                  20947024.4174
        48.0004         38.5004
  19861357.2374    -800446.88749   -622158.42548                  19861354.7574
        48.2504         40.7504
  24194502.0894    -439884.72349   -338226.26446                  24194500.7334
        39.2504         20.0004
 04  7  6 18  1 29.9990000  0  9G 3G 9G14G18G19G21G22G15G25
  22359811.6594     200671.19949    149785.24947                  22359810.4564
        44.7504         31.2504
  23334049.6444     134756.02349    100586.86246                  23334047.6474
        40.7504         23.0004
  20114463.9174   -2097334.31649  -1621335.63548                  20114460.3474
        50.2504         40.7504
  22467115.1674     670161.16449    508805.22747                  22467112.5074
        46.7504         29.5004
  22667333.9724   -2430218.59449  -1876138.02747                  22667329.3974
        46.5004         30.2504
  22813510.4334    1808427.94149   1386352.48146                  22813507.8354
        45.0004         25.5004
  20945857.3784    -556418.63349   -434509.74147                  20945852.4014
        46.0004         38.5004
  19860069.6594    -807213.04749   -627430.76948                  19860066.8944
        46.5004         41.0004
  24185474.5034    -487325.51649   -375193.07846                  24185473.3434
        39.2504         20.7504
 04  7  6 18  1 39.9990000  0  9G 3G 9G14G18G19G21G22G15G25
  22360333.1514     203411.78949    151920.74247                  22360331.7654
        44.5004         31.5004
  23334631.2224     137808.89549    102965.71946                  23334629.1084
        42.2504         22.7504
  20110880.0504   -2116167.18749  -1636010.61248                  20110876.5734
        50.5004         41.0004
  22468127.4874     675477.21149    512947.58247                  22468124.3154
        46.7504         29.2504
  22663180.0504   -2452045.74649  -1893146.22847                  22663176.1284
        46.0004         30.5004
  22816831.7614    1825879.31649   1399950.94246                  22816828.6014
        45.5004         25.5004
  20944684.0894    -562583.88749   -439313.85547                  20944679.4294
        47.0004         38.5004
  19858788.6364    -813945.18749   -632676.60248                  19858785.6674
        48.0004         41.0004
  24176441.6754    -534793.53949   -412181.15746                  24176440.6834
        40.7504         21.2504
 04  7  6 18  1 49.9990000  0  9G 3G 9G14G18G19G21G22G15G25
  22360859.1444     206174.57449    154073.55247                  22360857.8704
        46.0004         32.0004
  23335219.5814     140902.74249    105376.49646                  23335217.3514
        42.0004         24.5004
  20107302.7534   -2134965.78549  -1650658.87048                  20107299.5814
        50.0004         40.7504
  22469136.6834     680781.69549    517080.95947                  22469133.4334
        46.7504         30.0004
  22659034.4954   -2473833.24249  -1910123.49747                  22659030.0774
        46.5004         30.5004
  22820154.3004    1843340.20749   1413556.79947                  22820151.4684
        45.5004         27.2504
  20943509.7614    -568755.40249   -444122.81947                  20943504.7804
        49.7504         38.7504
  19857514.2764    -820641.79749   -637894.74448                  19857511.8434
        50.5004         41.5004
  24167403.6904    -582287.17649   -449189.11946                  24167402.4014
        40.5004         20.2504
 04  7  6 18  1 59.9990000  0  9G 3G 9G14G18G19G21G22G15G25
  22361388.3154     208958.36749    156242.72747                  22361387.5344
        46.0004         31.7504
  23335815.9874     144036.48449    107818.36647                  23335813.9174
        40.7504         26.0004
  20103731.7844   -2153731.09449  -1665281.18948                  20103728.6834
        50.7504         41.2504
  22470143.1444     686073.54749    521204.44547                  22470140.4484
        46.2504         30.0004
  22654895.5424   -2495582.15249  -1927070.69247                  22654891.0854
        46.7504         31.2504
  22823478.8944    1860809.52349   1427169.23247                  22823475.0694
        45.7504         25.7504
  20942333.8864    -574934.19549   -448937.47347                  20942328.9214
        50.5004         38.7504
  19856246.3394    -827303.95349   -643086.03648                  19856243.8314
        51.2504         41.7504
  24158360.9334    -629807.43049   -486217.85346                  24158359.7844
        41.0004         20.2504
 04  7  6 18  2  9.9990000  0  9G 3G 9G14G18G19G21G22G15G25
  22361922.2924     211763.00049    158428.13947                  22361920.8354
        44.7504         31.0004
  23336419.9174     147210.03949    110291.25847                  23336417.8004
        40.0004         26.5004
  20100167.3394   -2172463.21549  -1679877.66248                  20100164.1084
        50.2504         41.2504
  22471147.5654     691352.74649    525318.09447                  22471145.0544
        46.5004         29.7504
  22650764.2924   -2517292.50849  -1943987.85947                  22650760.3704
        46.5004         31.7504
  22826804.4094    1878287.13749   1440788.11946                  22826801.0224
        45.7504         25.5004
  20941156.7144    -581120.39149   -453757.89847                  20941151.6514
        50.5004         39.0004
  19854985.1904    -833931.68749   -648250.52048                  19854982.8084
        51.0004         40.7504
  24149313.5424    -677354.22749   -523267.25246                  24149311.7924
        42.0004         21.5004
 04  7  6 18  2 19.9990000  0  9G 3G 9G14G18G19G21G22G15G25
  22362460.0034     214588.44549    160629.79347                  22362458.5504
        45.0004         31.2504
  23337031.3704     150423.36349    112795.17146                  23337029.5894
        40.5004         24.2504
  20096608.8394   -2191162.12949  -1694448.23648                  20096605.8474
        50.0004         40.2504
  22472150.1754     696619.34849    529421.91747                  22472147.4684
        46.5004         29.7504
  22646640.4564   -2538964.25849  -1960874.93347                  22646635.7884
        47.0004         30.5004
  22830131.6204    1895773.04349   1454413.50246                  22830129.4294
        45.0004         25.0004
  20939978.2924    -587313.94949   -458584.03847                  20939973.2574
        50.5004         38.2504
  19853730.6124    -840524.91449   -653388.09548                  19853728.1014
        51.2504         40.2504
  24140259.8314    -724927.43449   -560337.20146                  24140259.2654
        40.5004         22.5004
 04  7  6 18  2 29.9990000  0  9G 3G 9G14G18G19G21G22G15G25
  22363001.7924     217435.66849    162848.37347                  22363000.4604
        43.2504         31.5004
  23337650.2304     153677.42649    115330.77246                  23337648.9724
        39.7504         24.5004
  20093057.2144   -2209826.89149  -1708992.20648                  20093053.7414
        50.5004         40.2504
  22473150.3624     701874.33249    533516.70847                  22473146.9684
        46.5004         29.7504
  22642523.5814   -2560596.39549  -1977731.15547                  22642519.4374
        46.7504         31.0004
  22833461.3154    1913268.10949   1468045.95646                  22833458.8624
        45.2504         24.5004
  20938798.0584    -593513.93749   -463415.20347                  20938793.6514
        51.0004         38.0004
  19852482.7924    -847082.65649   -658498.02548                  19852480.1874
        51.0004         40.2504
  24131202.4404    -772525.92249   -597426.96446                  24131200.8784
        42.0004         22.2504
 04  7  6 18  2 39.9990000  0  9G 3G 9G14G18G19G21G22G15G25
  22363547.3784     220304.34049    165083.68747                  22363546.3234
        43.5004         31.7504
  23338277.3234     156972.00049    117897.93446                  23338275.5974
        38.5004         24.7504
  20089511.6834   -2228457.70349  -1723509.71848                  20089508.4724
        50.0004         40.7504
  22474148.2144     707117.63749    537602.37247                  22474145.1244
        46.5004         29.2504
  22638414.7614   -2582189.03549  -1994556.59147                  22638410.7264
        46.7504         30.5004
  22836792.1984    1930772.11749   1481685.41947                  22836789.3904
        44.7504         26.5004
  20937617.1204    -599720.43749   -468251.44647                  20937612.7064
        50.2504         38.2504
  19851241.5194    -853605.03549   -663580.41848                  19851238.8864
        51.0004         41.0004
  24122140.3234    -820149.73849   -634536.38446                  24122138.8084
        41.5004         22.5004
 04  7  6 18  2 49.9990000  0  9G 3G 9G14G18G19G21G22G15G25
  22364097.8234     223195.60949    167336.59647                  22364096.6594
        45.0004         31.2504
  23338912.3314     160308.32049    120497.69346                  23338910.8664
        38.2504         24.0004
  20085973.3704   -2247053.29349  -1737999.80448                  20085970.0344
        50.2504         40.5004
  22475144.0034     712350.46149    541679.89647                  22475140.8124
        47.0004         29.2504
  22634313.5264   -2603740.90649  -2011350.26447                  22634309.7304
        47.0004         31.7504
  22840124.8154    1948286.33249   1495332.85546                  22840122.6284
        45.5004         24.5004
  20936435.2064    -605932.21149   -473091.79847                  20936430.4054
        50.2504         38.2504
  19850007.4174    -860090.76249   -668634.23548                  19850004.6054
        50.5004         41.0004
  24113072.3784    -867797.66449   -671664.57946                  24113071.6754
        39.5004         22.7504
 04  7  6 18  2 59.9990000  0  9G 3G 9G14G18G19G21G22G15G25
  22364652.1754     226109.02049    169606.78447                  22364650.7304
        46.0004         31.7504
  23339555.0734     163685.82049    123129.48046                  23339553.6944
        38.5004         25.2504
  20082441.2534   -2265614.10549  -1752462.76748                  20082438.0464
        50.0004         41.2504
  22476137.5734     717572.27349    545748.84047                  22476134.2104
        47.0004         29.5004
  22630219.6984   -2625252.43749  -2028112.50647                  22630216.0934
        47.0004         31.5004
  22843459.9484    1965810.33249   1508987.90947                  22843457.2764
        45.5004         26.0004
  20935252.1674    -612149.80549   -477936.67147                  20935247.0584
        49.0004         38.5004
  19848780.1444    -866540.30149   -673659.86348                  19848777.6514
        50.5004         41.5004
  24104001.1444    -915469.97749   -708811.78346                  24103999.8784
        40.5004         22.7504
 04  7  6 18  3  9.9990000  0  9G 3G 9G14G18G19G21G22G15G25
  22365210.7304     229044.28549    171893.97347                  22365209.5654
        45.5004         31.7504
  23340205.8154     167104.29749    125793.18947                  23340204.1364
        40.5004         26.0004
  20078915.7224   -2284140.36749  -1766898.83648                  20078912.6754
        50.0004         41.0004
  22477129.1514     722783.03549    549809.15147                  22477125.9954
        46.5004         29.5004
  22626134.5424   -2646723.82449  -2044843.46847                  22626130.4254
        47.5004         31.0004
  22846796.3084    1983343.80549   1522650.34747                  22846793.1324
        45.7504         26.2504
  20934067.7374    -618373.32049   -482786.18347                  20934062.8354
        48.5004         38.2504
  19847560.0894    -872953.75049   -678657.35548                  19847557.3824
        49.7504         41.5004
  24094924.6594    -963166.70749   -745978.02746                  24094923.4834
        40.0004         22.0004
 04  7  6 18  3 19.9990000  0  9G 3G 9G14G18G19G21G22G15G25
  22365773.7844     232001.51649    174198.29747                  22365772.4014
        45.0004         32.2504
  23340863.7924     170563.89549    128488.97046                  23340862.4444
        39.5004         25.5004
  20075397.0584   -2302631.90249  -1781307.82248                  20075393.7144
        50.0004         41.0004
  22478118.8554     727982.84049    553860.94547                  22478115.8434
        46.0004         29.5004
  22622056.2694   -2668154.85949  -2061542.99547                  22622052.3274
        47.5004         31.5004
  22850134.4094    2000886.83649   1536320.17747                  22850131.9404
        45.0004         26.2504
  20932882.3624    -624602.55949   -487640.13847                  20932877.3864
        48.5004         38.0004
  19846346.2924    -879330.97349   -683626.63948                  19846343.3004
        49.5004         41.2504
  24085843.4254   -1010887.61749   -783163.12646                  24085842.3744
        39.0004         20.7504
 04  7  6 18  3 29.9990000  0  9G 3G 9G14G18G19G21G22G15G25
  22366340.4254     234981.40649    176520.27647                  22366339.3044
        45.5004         31.2504
  23341530.8784     174065.35549    131217.40347                  23341529.0194
        39.5004         26.0004
  20071884.8554   -2321087.91449  -1795689.12048                  20071881.8394
        50.0004         40.5004
  22479105.9724     733172.62949    557904.94847                  22479102.9914
        45.7504         29.2504
  22617985.8704   -2689544.72749  -2078210.40447                  22617981.7764
        47.0004         30.7504
  22853474.8154    2018440.28149   1549998.17746                  22853472.1444
        44.7504         25.0004
  20931696.4564    -630836.70749   -492497.90447                  20931691.2264
        48.5004         38.0004
  19845139.9644    -885671.07849   -688566.96748                  19845137.2764
        49.0004         40.5004
  24076757.7064   -1058631.76249   -820366.24846                  24076757.0854
        37.5004         20.7504
 04  7  6 18  3 39.9990000  0  9G 3G 9G14G18G19G21G22G15G25
  22366912.3624     237983.72349    178859.73547                  22366910.5694
        46.2504         31.0004
  23342204.2454     177608.56649    133978.30046                  23342203.2414
        40.5004         25.5004
  20068379.8004   -2339508.52749  -1810042.85548                  20068376.1324
        50.2504         40.2504
  22480092.2694     738352.09449    561940.87547                  22480088.9254
        46.7504         29.5004
  22613922.9644   -2710893.44149  -2094845.77247                  22613919.2844
        47.0004         30.5004
  22856816.7924    2036003.93049   1563684.12646                  22856814.0224
        45.5004         25.5004
  20930508.7224    -637075.87949   -497359.60647                  20930503.9804
        48.5004         37.7504
  19843940.3234    -891974.18449   -693478.49348                  19843937.5934
        50.0004         40.5004
  24067667.6514   -1106399.14549   -857587.47146                  24067667.3904
        37.7504         20.0004
 04  7  6 18  3 49.9990000  0  9G 3G 9G14G18G19G21G22G15G25
  22367487.0194     241006.39149    181215.06847                  22367486.1084
        46.2504         30.5004
  23342886.7064     181191.39849    136770.13146                  23342885.2654
        41.0004         24.7504
  20064880.6984   -2357895.71949  -1824370.50948                  20064877.6124
        49.7504         39.7504
  22481075.0734     743519.34849    565967.34647                  22481071.8624
        45.7504         28.7504
  22609868.3704   -2732203.08649  -2111450.68747                  22609864.3664
        45.7504         31.0004
  22860160.9254    2053575.73049   1577376.45147                  22860158.4294
        44.5004         25.7504
  20929320.4254    -643322.07449   -502226.74947                  20929315.6674
        48.5004         37.5004
  19842747.3704    -898242.26649   -698362.71548                  19842744.7024
        49.7504         40.5004
  24058573.4484   -1154191.71149   -894828.40046                  24058572.8234
        36.7504         20.7504
 04  7  6 18  3 59.9990000  0  9G 3G 9G14G18G19G21G22G15G25
  22368067.0814     244051.73049    183588.01047                  22368065.1984
        44.5004         31.2504
  23343576.4334     184816.19949    139594.61747                  23343574.6834
        40.2504         26.0004
  20061388.5344   -2376247.19149  -1838670.39148                  20061385.4134
        50.0004         40.7504
  22482056.5264     748676.77349    569986.05847                  22482053.5344
        46.5004         29.0004
  22605821.3314   -2753471.15249  -2128023.25347                  22605816.7844
        47.0004         31.5004
  22863506.6514    2071158.00849   1591076.82247                  22863504.2304
        45.0004         26.7504
  20928130.8314    -649572.92649   -507097.59447                  20928126.1054
        49.0004         38.0004
  19841561.8554    -904472.95749   -703217.82048                  19841559.0194
        50.5004         41.0004
  24049474.1834   -1202007.01249   -932087.06046                  24049473.8194
        37.0004         20.2504
 04  7  6 18  4  9.9990000  0  9G 3G 9G14G18G19G21G22G15G25
  22368650.9954     247120.52749    185979.28047                  22368649.2494
        46.5004         31.0004
  23344274.1364     188483.72749    142452.43646                  23344272.9444
        40.0004         24.7504
  20057903.3864   -2394562.10949  -1852941.74748                  20057900.0774
        50.5004         40.5004
  22483036.4254     753825.25849    573997.86347                  22483033.0584
        45.7504         29.5004
  22601782.3944   -2774696.83249  -2144562.72247                  22601777.9724
        47.0004         31.7504
  22866855.1204    2088751.55949   1604786.07747                  22866852.1794
        44.5004         25.7504
  20926940.4404    -655827.60249   -511971.34647                  20926936.0074
        48.5004         38.2504
  19840383.5344    -910665.41449   -708043.10648                  19840380.6874
        49.7504         41.0004
  24040371.0894   -1249844.07049   -969362.63246                  24040370.5814
        37.5004         20.0004
 04  7  6 18  4 19.9990000  0  9G 3G 9G14G18G19G21G22G15G25
  22369239.3864     250214.30149    188389.99347                  22369238.1124
        47.0004         32.0004
  23344979.7924     192195.58249    145344.77647                  23344979.2374
        42.0004         27.0004
  20054425.4874   -2412838.87549  -1867183.40048                  20054421.8474
        50.2504         41.2504
  22484014.6444     758966.37549    578003.90847                  22484011.5424
        45.7504         30.5004
  22597751.0734   -2795878.44149  -2161067.90147                  22597747.1634
        46.5004         31.2504
  22870204.7844    2106357.94149   1618505.31347                  22870202.3234
        44.5004         27.2504
  20925749.9644    -662084.46149   -516846.84447                  20925744.9134
        48.7504         38.7504
  19839212.9014    -916817.97349   -712837.32848                  19839210.0774
        50.0004         41.2504
  24031264.6124   -1297701.18449  -1006653.83946                  24031262.9564
        39.2504         19.7504
 04  7  6 18  4 29.9990000  0  9G 3G 9G14G18G19G21G22G15G25
  22369832.0424     253328.81649    190816.88147                  22369830.7654
        43.0004         32.0004
  23345694.5194     195947.51649    148268.35147                  23345692.8154
        42.0004         25.7504
  20050954.0734   -2431081.64149  -1881398.53548                  20050950.5194
        49.7504         40.5004
  22484990.7694     764095.93849    582000.96647                  22484987.7534
        45.7504         29.5004
  22593727.9174   -2817020.19149  -2177541.99047                  22593723.9684
        46.7504         31.0004
  22873556.9334    2123973.01649   1632231.30147                  22873554.4604
        44.7504         26.0004
  20924558.0734    -668347.69149   -521727.29047                  20924552.9954
        47.7504         38.2504
  19838048.7694    -922934.78549   -717603.68048                  19838045.8624
        49.7504         41.2504
  24022152.8474   -1345582.30149  -1043963.75146                  24022151.4914
        38.5004         19.5004
 04  7  6 18  4 39.9990000  0  9G 3G 9G14G18G19G21G22G15G25
  22370429.0734     256466.75449    193262.00947                  22370427.6594
        45.0004         30.2504
  23346416.4404     199742.26249    151225.28146                  23346414.7964
        41.0004         24.5004
  20047489.4254   -2449287.73049  -1895585.10448                  20047485.9524
        50.5004         40.2504
  22485965.0424     769216.83649    585991.26947                  22485962.1054
        47.0004         28.0004
  22589713.1444   -2838119.37949  -2193982.91347                  22589708.9914
        46.5004         31.0004
  22876911.0814    2141599.42249   1645966.16047                  22876908.9524
        44.7504         26.0004
  20923365.1834    -674614.50049   -526610.51547                  20923360.6014
        48.5004         37.7504
  19836892.2844    -929013.03949   -722339.97548                  19836889.7374
        50.0004         40.5004
  24013037.3624   -1393484.68049  -1081290.21146                  24013036.3824
        39.5004         19.0004
 04  7  6 18  4 49.9990000  0  9G 3G 9G14G18G19G21G22G15G25
  22371030.8234     259627.46949    195724.91047                  22371028.9484
        44.5004         30.7504
  23347146.5814     203579.20749    154215.10146                  23347144.8314
        40.5004         25.0004
  20044031.9014   -2467457.67649  -1909743.51748                  20044028.5074
        50.0004         40.7504
  22486937.9804     774328.42649    589974.33447                  22486934.7184
        46.5004         28.7504
  22585705.8394   -2859176.49649  -2210391.06547                  22585701.7924
        47.2504         30.7504
  22880267.9174    2159236.59049   1659709.35146                  22880265.1834
        45.0004         24.5004
  20922172.3234    -680885.44949   -531496.97247                  20922167.3514
        48.7504         38.0004
  19835742.8004    -935053.30149   -727046.69348                  19835740.0154
        50.5004         41.2504
  24003917.6204   -1441408.64149  -1118633.53046                  24003916.9764
        38.7504         19.2504
 04  7  6 18  4 59.9990000  0  9G 3G 9G14G18G19G21G22G15G25
  22371636.5974     262810.85549    198205.44547                  22371635.2144
        44.5004         30.2504
  23347884.8394     207458.32049    157237.79146                  23347883.5464
        39.5004         24.2504
  20040581.1364   -2485591.48849  -1923873.73648                  20040577.8234
        50.0004         40.0004
  22487908.7924     779430.76649    593950.18047                  22487905.8394
        45.5004         28.5004
  22581706.9954   -2880191.45749  -2226766.34847                  22581702.9994
        45.7504         30.0004
  22883625.8234    2176884.48449   1673460.94446                  22883623.4334
        44.5004         24.0004
  20920978.0114    -687160.56249   -536386.66947                  20920972.8584
        49.0004         37.5004
  19834600.4564    -941055.55549   -731723.74048                  19834598.1674
        50.5004         40.0004
  23994794.0424   -1489354.22349  -1155993.74046                  23994793.0304
        39.0004         19.7504
 04  7  6 18  5  9.9990000  0  9G 3G 9G14G18G19G21G22G15G25
  22372246.9724     266016.06649    200702.99447                  22372245.0654
        46.7504         31.7504
  23348630.4804     211378.83249    160292.73446                  23348629.5224
        38.7504         25.0004
  20037136.7844   -2503689.88749  -1937976.39448                  20037133.7104
        50.0004         41.0004
  22488878.3864     784523.15249    597918.24047                  22488874.8944
        46.7504         28.5004
  22577716.0114   -2901164.95749  -2243109.35647                  22577711.9214
        46.7504         32.0004
  22886986.5504    2194542.21549   1687220.14547                  22886983.8124
        45.0004         26.0004
  20919782.9094    -693440.56649   -541280.19747                  20919778.1204
        50.7504         38.5004
  19833465.2924    -947020.50849   -736371.79648                  19833462.7184
        52.2504         41.0004
  23985665.7144   -1537321.95349  -1193371.09746                  23985664.9764
        39.2504         18.2504
 04  7  6 18  5 19.9990000  0  9G 3G 9G14G18G19G21G22G15G25
  22372860.4174     269243.03149    203217.49247                  22372858.9994
        45.0004         31.0004
  23349384.3154     215340.62849    163379.82246                  23349383.3004
        39.7504         25.5004
  20033699.8234   -2521752.97749  -1952051.53148                  20033696.1404
        49.7504         40.7504
  22489844.9954     789605.48049    601878.50347                  22489842.0154
        46.5004         28.7504
  22573732.4014   -2922097.03949  -2259420.06547                  22573728.5464
        46.7504         31.2504
  22890348.9954    2212209.73449   1700987.05947                  22890346.1904
        45.2504         26.5004
  20918587.2614    -699725.50849   -546177.55347                  20918582.3044
        50.0004         38.2504
  19832337.2534    -952948.14849   -740990.73148                  19832334.8004
        51.2504         40.7504
  23976534.2694   -1585311.84049  -1230765.83346                  23976532.3944
        39.7504         19.5004
 04  7  6 18  5 29.9990000  0  9G 3G 9G14G18G19G21G22G15G25
  22373479.2304     272492.63749    205749.63547                  22373477.1014
        46.0004         31.7504
  23350146.6204     219344.87549    166499.97246                  23350145.5344
        37.0004         24.5004
  20030269.3314   -2539779.66849  -1966098.31548                  20030265.8584
        50.5004         41.5004
  22490810.4174     794678.85249    605831.75047                  22490807.5224
        46.2504         29.0004
  22569757.1834   -2942986.59849  -2275697.65847                  22569753.5074
        46.0004         32.0004
  22893712.2614    2229888.03549   1714762.30947                  22893710.0304
        44.0004         27.2504
  20917390.4724    -706014.22749   -551077.86747                  20917385.5654
        50.0004         39.0004
  19831216.5974    -958837.38749   -745579.77748                  19831214.0424
        51.7504         41.2504
  23967397.4804   -1633322.66849  -1268176.81146                  23967396.2144
        39.5004         20.5004
 04  7  6 18  5 39.9990000  0  9G 3G 9G14G18G19G21G22G15G25
  22374101.6444     275764.88749    208299.42747                  22374100.1594
        46.5004         31.2504
  23350916.6834     223391.31349    169653.01946                  23350915.6714
        39.0004         25.5004
  20026845.7844   -2557769.94949  -1980116.72348                  20026842.8974
        49.2504         41.2504
  22491774.6364     799743.35949    609778.11447                  22491771.2724
        46.7504         29.2504
  22565790.3154   -2963833.60249  -2291942.07347                  22565786.6164
        47.0004         31.0004
  22897078.7764    2247577.19149   1728546.03647                  22897076.1084
        45.0004         26.5004
  20916192.9254    -712306.72749   -555981.13047                  20916188.5934
        51.0004         39.0004
  19830103.4644    -964688.19149   -750138.84648                  19830100.6634
        51.5004         41.0004
  23958257.6904   -1681354.31249  -1305604.06046                  23958256.4134
        40.5004         19.7504
 04  7  6 18  5 49.9990000  0  9G 3G 9G14G18G19G21G22G15G25
  22374728.7454     279059.35949    210866.53447                  22374727.0504
        46.5004         31.0004
  23351694.3474     227479.62549    172838.71046                  23351693.3274
        39.7504         22.7504
  20023429.5194   -2575724.19549  -1994107.03648                  20023425.7264
        50.0004         40.5004
  22492736.5734     804798.63749    613717.28747                  22492733.3194
        46.0004         28.7504
  22561831.2144   -2984638.41049  -2308153.61847                  22561827.1514
        46.5004         30.7504
  22900446.6904    2265276.78149   1742337.92446                  22900444.4484
        44.5004         25.2504
  20914994.6364    -718603.39549   -560887.61647                  20914989.9564
        50.2504         38.5004
  19828997.0974    -970500.90649   -754668.23148                  19828994.4914
        51.5004         41.0004
  23949112.9874   -1729407.03549  -1343047.66946                  23949112.4374
        40.2504         19.2504
 04  7  6 18  5 59.9990000  0  9G 3G 9G14G18G19G21G22G15G25
  22375359.9954     282375.80149    213450.76047                  22375357.7494
        46.7504         31.0004
  23352480.9404     231609.59849    176056.88346                  23352479.3004
        39.7504         24.0004
  20020019.6054   -2593642.66849  -2008069.48148                  20020016.0624
        49.5004         41.0004
  22493696.1834     809844.46949    617649.10247                  22493693.4134
        46.5004         29.0004
  22557880.0974   -3005401.22349  -2324332.44747                  22557876.4914
        46.2504         31.7504
  22903816.8624    2282986.57449   1756137.71647                  22903814.0344
        45.5004         27.0004
  20913795.5734    -724904.35949   -565797.46647                  20913790.8274
        48.5004         38.2504
  19827898.0194    -976275.70349   -759168.08448                  19827895.6474
        49.7504         40.7504
  23939964.9804   -1777480.91049  -1380507.83246                  23939964.1284
        39.2504         17.7504
 04  7  6 18  6  9.9990000  0  9G 3G 9G14G18G19G21G22G15G25
  22375994.9484     285714.95349    216052.67847                  22375993.5894
        45.7504         30.0004
  23353274.7224     235781.93849    179308.00746                  23353273.2334
        38.0004         24.0004
  20016616.7224   -2611524.43449  -2022003.32348                  20016613.5734
        50.0004         40.2504
  22494655.5424     814881.75449    621574.25147                  22494652.3004
        45.0004         28.5004
  22553937.4804   -3026121.08249  -2340477.77947                  22553933.6754
        47.2504         31.0004
  22907189.3004    2300707.40649   1769946.09746                  22907186.1714
        45.0004         24.7504
  20912596.0814    -731208.85249   -570710.05847                  20912591.5894
        45.7504         37.7504
  19826806.8004    -982011.68749   -763637.67648                  19826803.9444
        47.0004         39.7504
  23930813.2764   -1825574.86749  -1417983.59446                  23930811.6874
        41.0004         19.5004
 04  7  6 18  6 19.9990000  0  9G 3G 9G14G18G19G21G22G15G25
  22376634.4564     289075.16849    218671.02347                  22376633.2534
        46.2504         31.7504
  23354076.5974     239995.11749    182590.99946                  23354074.9804
        38.2504         22.7504
  20013220.8154   -2629371.16449  -2035909.87448                  20013217.4374
        50.2504         41.0004
  22495611.6904     819908.89849    625491.48447                  22495608.0194
        44.7504         29.0004
  22550002.2694   -3046799.59849  -2356590.91447                  22549998.4484
        47.2504         32.0004
  22910563.2064    2318437.67249   1783761.89447                  22910560.2534
        45.0004         27.0004
  20911395.1904    -737518.35549   -575626.56447                  20911390.2764
        46.2504         38.7504
  19825722.3084    -987710.44549   -768078.29248                  19825719.5734
        47.7504         41.0004
  23921656.8864   -1873690.56249  -1455476.31646                  23921655.0774
        40.5004         19.7504
 04  7  6 18  6 29.9990000  0  9G 3G 9G14G18G19G21G22G15G25
  22377278.2224     292458.80149    221307.60247                  22377276.8084
        45.0004         30.5004
  23354886.2764     244251.41449    185907.62246                  23354884.8274
        36.5004         22.7504
  20009831.7764   -2647180.41849  -2049787.21548                  20009828.2224
        49.5004         41.0004
  22496566.9484     824928.46149    629402.82647                  22496563.9914
        45.0004         27.5004
  22546076.1364   -3067434.37149  -2372669.95047                  22546071.9054
        47.0004         31.2504
  22913939.3944    2336179.65249   1797586.77746                  22913936.1084
        45.0004         25.5004
  20910194.0034    -743830.53149   -580545.15247                  20910189.3664
        48.5004         37.5004
  19824645.6514    -993369.50849   -772487.94648                  19824642.7844
        50.0004         40.5004
  23912497.7614   -1921825.27049  -1492983.85046                  23912495.2224
        42.2504         18.5004
 04  7  6 18  6 39.9990000  0  9G 3G 9G14G18G19G21G22G15G25
  22377927.1444     295866.14149    223962.65147                  22377925.1444
        46.7504         32.0004
  23355704.0504     248551.26249    189258.11346                  23355703.2534
        37.5004         24.5004
  20006449.9334   -2664951.95349  -2063635.17148                  20006446.6794
        49.7504         41.5004
  22497520.4484     829940.67649    633308.42747                  22497517.8474
        45.5004         30.0004
  22542157.3624   -3088024.93049  -2388714.57647                  22542153.4804
        47.0004         32.5004
  22917318.0034    2353933.71949   1811421.09647                  22917314.9334
        45.7504         26.5004
  20908992.4014    -750144.91849   -585465.46647                  20908987.4484
        49.7504         38.5004
  19823575.9564    -998988.48449   -776866.39848                  19823573.6904
        51.7504         42.0004
  23903333.5894   -1969978.65649  -1530505.96246                  23903332.4014
        42.2504         18.5004
 04  7  6 18  6 49.9990000  0  9G 3G 9G14G18G19G21G22G15G25
  22378579.8474     299295.80549    226635.09847                  22378578.1984
        47.0004         31.2504
  23356530.4724     252893.29749    192641.47746                  23356529.0224
        39.5004         22.5004
  20003074.8474   -2682686.95749  -2077454.65448                  20003071.6014
        49.5004         41.0004
  22498472.6674     834944.30549    637207.33647                  22498469.7724
        43.2504         29.0004
  22538247.2844   -3108572.56249  -2404725.70647                  22538243.4644
        47.0004         31.2504
  22920698.3784    2371698.47349   1825263.73247                  22920695.3944
        44.7504         26.5004
  20907790.2224    -756462.84049   -590388.51947                  20907785.3824
        49.2504         38.2504
  19822514.4094   -1004568.59849   -781214.53648                  19822511.6164
        49.5004         41.2504
  23894166.6364   -2018151.86749  -1568043.54046                  23894164.9604
        41.5004         19.0004
 04  7  6 18  6 59.9990000  0  9G 3G 9G14G18G19G21G22G15G25
  22379236.3784     302748.02749    229325.14147                  22379235.1284
        46.5004         30.7504
  23357365.2614     257277.75449    196057.94046                  23357363.8044
        38.5004         21.2504
  19999707.1284   -2700385.15249  -2091245.45748                  19999703.6634
        49.5004         40.7504
  22499423.7844     839939.66449    641099.80447                  22499421.1284
        43.5004         28.5004
  22534345.6514   -3129076.94549  -2420703.15447                  22534341.2924
        47.0004         31.0004
  22924080.8944    2389474.24249   1839114.95646                  22924078.1714
        44.5004         22.5004
  20906587.4174    -762783.98849   -595314.09947                  20906582.4214
        48.0004         38.0004
  19821460.0034   -1010109.47349   -785532.09748                  19821457.4444
        49.2504         40.0004
  23884996.3624   -2066344.51649  -1605596.25246                  23884993.7264
        42.7504         19.5004
 04  7  6 18  7  9.9990000  0  9G 3G 9G14G18G19G21G22G15G25
  22379898.0114     306222.24249    232032.31147                  22379896.5344
        45.0004         30.7504
  23358206.9484     261704.11749    199507.09146                  23358206.0304
        39.2504         21.5004
  19996346.3474   -2718047.03549  -2105007.96648                  19996342.9994
        50.2504         41.0004
  22500372.0734     844926.39849    644985.57147                  22500369.1594
        45.0004         28.5004
  22530451.8624   -3149538.56249  -2436647.28647                  22530447.7844
        47.0004         30.7504
  22927465.3624    2407260.59049   1852974.39646                  22927462.7764
        45.0004         25.5004
  20905384.0034    -769108.78949   -600242.52247                  20905379.4174
        49.5004         38.0004
  19820412.8554   -1015611.60949   -789819.49348                  19820410.0934
        51.0004         40.2504
  23875821.9334   -2114556.92249  -1643164.29246                  23875819.5224
        42.7504         20.2504
 04  7  6 18  7 19.9990000  0  9G 3G 9G14G18G19G21G22G15G25
  22380563.4874     309719.50449    234757.43947                  22380561.4724
        46.2504         29.5004
  23359057.9644     266173.43848    202989.65446                  23359056.2884
        35.0004         20.7504
  19992992.5114   -2735671.48449  -2118741.28848                  19992988.8974
        49.7504         40.2504
  22501319.6674     849905.52049    648865.39747                  22501317.0854
        44.0004         28.5004
  22526566.5034   -3169956.28149  -2452557.19947                  22526562.4834
        46.7504         30.5004
  22930852.3784    2425058.46949   1866842.85846                  22930849.3234
        45.0004         24.5004
  20904179.8004    -775436.16849   -605172.93547                  20904175.5424
        50.5004         37.5004
  19819373.5734   -1021073.92649   -794075.81048                  19819371.1324
        50.5004         39.7504
  23866643.8474   -2162787.93749  -1680746.90746                  23866641.5074
        42.5004         20.2504
 04  7  6 18  7 29.9990000  0  9G 3G 9G14G18G19G21G22G15G25
  22381232.7764     313239.96149    237500.63847                  22381231.2654
        47.0004         30.2504
  23359915.9254     270685.89549    206505.81046                  23359914.7654
        38.0004         22.0004
  19989645.6054   -2753258.28149  -2132445.29648                  19989642.2724
        50.5004         41.5004
  22502266.1834     854877.35549    652739.54947                  22502262.8624
        45.2504         29.5004
  22522689.6204   -3190329.80949  -2468432.68547                  22522685.5934
        47.0004         31.7504
  22934241.7844    2442868.05149   1880720.42146                  22934238.4724
        45.7504         25.5004
  20902975.4804    -781765.75449   -610105.09947                  20902970.6554
        49.7504         38.5004
  19818341.6364   -1026496.11749   -798300.93348                  19818338.8974
        51.0004         40.5004
  23857462.2694   -2211037.07049  -1718343.65946                  23857460.6554
        42.7504         21.2504
 04  7  6 18  7 39.9990000  0  9G 3G 9G14G18G19G21G22G15G25
  22381907.2694     316783.66849    240261.97947                  22381905.8904
        45.7504         30.2504
  23360783.6984     275241.56649    210055.63346                  23360781.7144
        37.7504         20.5004
  19986306.6514   -2770807.27349  -2146119.82648                  19986303.0034
        49.7504         40.7504
  22503210.7924     859842.03149    656608.10147                  22503207.8864
        43.5004         29.0004
  22518821.0264   -3210658.94949  -2484273.56447                  22518817.1164
        46.5004         31.7504
  22937632.7924    2460689.49249   1894607.24946                  22937630.1124
        45.7504         24.0004
  20901770.3784    -788097.48849   -615038.90947                  20901765.8274
        48.7504         38.0004
  19817317.3704   -1031878.07049   -802494.65548                  19817315.1054
        50.5004         40.7504
  23848277.1444   -2259304.04749  -1755954.22946                  23848276.1794
        42.2504         21.5004
 04  7  6 18  7 49.9990000  0  9G 3G 9G14G18G19G21G22G15G25
  22382586.6594     320351.22749    243041.84647                  22382584.9724
        45.5004         31.5004
  23361658.4724     279841.14149    213639.75246                  23361656.7534
        38.5004         21.2504
  19982974.0194   -2788317.79749  -2159764.42248                  19982970.9874
        50.0004         41.0004
  22504154.5504     864800.31349    660471.69547                  22504151.5304
        42.0004         28.7504
  22514961.0734   -3230943.02049  -2500079.37447                  22514957.0034
        47.5004         32.7504
  22941026.5504    2478523.39849   1908503.74546                  22941023.4294
        45.5004         25.2504
  20900565.3624    -794430.64149   -619973.86247                  20900560.4874
        50.0004         39.0004
  19816301.0264   -1037219.03549   -806656.47248                  19816298.4804
        50.2504         41.5004
  23839089.0034   -2307588.16449  -1793578.20746                  23839087.7574
        42.5004         22.2504
 04  7  6 18  7 59.9990000  0  9G 3G 9G14G18G19G21G22G15G25
  22383269.8154     323940.11349    245838.37247                  22383267.5934
        46.7504         31.5004
  23362542.2764     284482.01649    217255.97646                  23362540.3124
        39.5004         21.5004
  19979649.0264   -2805792.38749  -2173380.98348                  19979645.4374
        50.5004         41.0004
  22505096.0344     869749.69549    664328.33747                  22505093.3354
        43.0004         29.5004
  22511109.3704   -3251184.47349  -2515851.92647                  22511105.1364
        47.5004         32.0004
  22944421.8474    2496367.19949   1922407.98247                  22944418.3704
        45.2504         26.2504
  20899359.5974    -800767.69149   -624911.81847                  20899354.7654
        50.2504         38.5004
  19815292.2064   -1042521.46949   -810788.25148                  19815289.4374
        50.0004         41.0004
  23829897.0424   -2355891.78149  -1831217.34046                  23829896.0194
        43.2504         23.2504
 04  7  6 18  8  9.9990000  0  9G 3G 9G14G18G19G21G22G15G25
  22383956.1674     327549.90649    248651.18247                  22383955.0194
        45.5004         30.5004
  23363433.1054     289163.93849    220904.20146                  23363431.6674
        38.2504         21.7504
  19976330.2534   -2823231.37549  -2186969.80648                  19976326.8514
        50.0004         40.0004
  22506036.4724     874689.77749    668177.76847                  22506033.6514
        43.7504         28.7504
  22507265.6444   -3271383.62949  -2531591.52647                  22507261.4294
        47.2504         31.5004
  22947819.1124    2514220.64849   1936319.75046                  22947816.2964
        45.5004         22.7504
  20898152.6674    -807108.92649   -629853.04647                  20898148.2534
        49.5004         38.2504
  19814290.3474   -1047785.67249   -814890.21648                  19814287.7224
        50.0004         40.2504
  23820701.8944   -2404215.08649  -1868871.82346                  23820700.8354
        43.2504         22.2504
 04  7  6 18  8 19.9990000  0  9G 3G 9G14G18G19G21G22G15G25
  22384647.4334     331183.11749    251482.23247                  22384646.0504
        47.0004         31.0004
  23364331.9644     293889.35949    224586.33846                  23364330.8744
        40.0004         22.0004
  19973018.9484   -2840632.07849  -2200528.80148                  19973015.5194
        50.5004         40.5004
  22506974.6904     879623.34849    672022.09547                  22506972.0734
        41.7504         28.5004
  22503430.8234   -3291537.84449  -2547296.11747                  22503426.3314
        47.5004         30.7504
  22951219.3234    2532086.37549   1950241.07246                  22951216.4484
        45.0004         24.2504
  20896945.7064    -813451.70749   -634795.47947                  20896941.0464
        51.0004         38.5004
  19813296.5894   -1053009.00849   -818960.36948                  19813294.1054
        50.2504         40.7504
  23811502.6284   -2452555.26649  -1906539.50346                  23811501.1594
        42.0004         22.0004
 04  7  6 18  8 29.9990000  0  9G 3G 9G14G18G19G21G22G15G25
  22385343.5194     334839.31349    254331.21147                  22385342.1904
        45.5004         29.7504
  23365239.0194     298657.88749    228302.10246                  23365238.0774
        36.7504         23.0004
  19969715.1674   -2857994.97749  -2214058.32848                  19969711.6904
        49.5004         39.7504
  22507912.8394     884550.04749    675861.06347                  22507909.8744
        43.0004         27.7504
  22499603.4564   -3311647.53549  -2562966.01847                  22499599.3624
        47.0004         31.0004
  22954621.4254    2549963.84849   1964171.51646                  22954618.5584
        44.5004         22.7504
  20895738.3004    -819796.37949   -639739.39047                  20895733.5854
        50.5004         37.0004
  19812310.1594   -1058191.81249   -822998.89848                  19812307.6554
        50.2504         39.7504
  23802300.5734   -2500912.74249  -1944220.58846                  23802299.2884
        41.0004         22.0004
 04  7  6 18  8 39.9990000  0  9G 3G 9G14G18G19G21G22G15G25
  22386043.7844     338518.00449    257197.70147                  22386041.3474
        45.7504         30.2504
  23366155.1054     303469.05949    232051.01846                  23366153.7724
        39.7504         22.5004
  19966418.2534   -2875320.50049  -2227558.74048                  19966414.7534
        50.2504         40.7504
  22508848.5194     889469.39149    679694.30347                  22508845.8434
        43.7504         28.7504
  22495785.8944   -3331712.95349  -2578601.42147                  22495781.0654
        47.2504         31.5004
  22958025.1444    2567852.58649   1978110.80646                  22958022.4094
        45.0004         24.5004
  20894530.6514    -826143.39549   -644685.10847                  20894525.8004
        51.0004         37.7504
  19811331.2844   -1063334.51249   -827006.22848                  19811328.9994
        51.5004         40.7504
  23793095.5814   -2549287.71149  -1981915.38946                  23793093.4484
        42.2504         21.5004
 04  7  6 18  8 49.9990000  0  9G 3G 9G14G18G19G21G22G15G25
  22386747.7224     342219.53149    260082.01047                  22386746.2844
        47.0004         30.5004
  23367079.2764     308323.32449    235833.55146                  23367077.5854
        40.0004         24.5004
  19963128.2844   -2892608.14149  -2241029.62448                  19963124.7184
        50.7504         40.2504
  22509783.3624     894381.90249    683522.25047                  22509780.5654
        42.0004         28.0004
  22491975.7694   -3351733.65649  -2594201.96947                  22491971.5814
        47.5004         31.7504
  22961431.6674    2585753.03149   1992059.15446                  22961428.6874
        44.5004         22.7504
  20893322.4014    -832492.28549   -649632.29847                  20893317.8704
        50.7504         37.0004
  19810360.6124   -1068436.58249   -830981.85948                  19810358.3824
        50.5004         40.5004
  23783886.0034   -2597679.66049  -2019623.37346                  23783884.8554
        39.7504         21.0004
 04  7  6 18  8 59.9990000  0  9G 3G 9G14G18G19G21G22G15G25
  22387456.4724     345943.02749    262983.40047                  22387455.0694
        46.5004         32.2504
  23368010.9014     313219.76649    239648.94146                  23368009.7334
        40.0004         24.5004
  19959845.5584   -2909858.79749  -2254471.71148                  19959842.2104
        50.0004         41.5004
  22510717.1444     899286.84049    687344.25347                  22510713.5894
        42.5004         29.7504
  22488174.4174   -3371710.56649  -2609768.41447                  22488170.1404
        47.0004         32.7504
  22964840.4484    2603664.30149   2006015.96546                  22964837.1054
        45.0004         23.7504
  20892113.8004    -838843.92249   -654581.64647                  20892109.1634
        50.5004         39.0004
  19809397.3474   -1073498.91849   -834926.56848                  19809394.9484
        51.5004         41.5004
  23774673.6984   -2646089.32449  -2057345.12846                  23774672.9174
        40.7504         21.5004
 04  7  6 18  9  9.9990000  0  9G 3G 9G14G18G19G21G22G15G25
  22388169.6754     349690.35549    265903.39247                  22388168.3274
        46.5004         31.7504
  23368950.5114     318160.31349    243498.71746                  23368949.6714
        39.7504         23.5004
  19956570.5034   -2927070.50049  -2267883.42548                  19956566.8624
        50.0004         41.5004
  22511648.8944     904185.98449    691161.76347                  22511646.5304
        45.0004         29.5004
  22484381.2924   -3391641.67649  -2625299.14647                  22484377.3824
        46.7504         31.7504
  22968251.1054    2621588.31649   2019982.73346                  22968248.2964
        44.7504         23.0004
  20890904.7924    -845196.29749   -659531.55447                  20890899.9374
        49.7504         38.7504
  19808441.9334   -1078519.50449   -838838.71448                  19808439.5074
        50.7504         41.2504
  23765458.3704   -2694514.70349  -2095079.18446                  23765457.8084
        40.5004         21.5004
 04  7  6 18  9 19.9990000  0  9G 3G 9G14G18G19G21G22G15G25
  22388886.7844     353460.17649    268840.89847                  22388885.5464
        46.0004         31.0004
  23369898.6674     323143.59049    247381.77746                  23369897.3584
        39.5004         22.7504
  19953302.3314   -2944244.56249  -2281265.81548                  19953299.1324
        50.0004         40.2504
  22512579.6514     909078.13749    694973.84247                  22512577.0974
        44.0004         28.5004
  22480597.2454   -3411528.19949  -2640795.14747                  22480593.1014
        47.5004         31.7504
  22971663.6984    2639523.76649   2033958.40346                  22971661.0814
        43.5004         22.2504
  20889695.9484    -851550.63349   -664482.97447                  20889690.7804
        50.7504         38.0004
  19807494.1514   -1083499.57849   -842719.30348                  19807491.5974
        51.0004         40.5004
  23756240.5034   -2742956.75049  -2132826.23146                  23756240.1554
        39.5004         21.5004
 04  7  6 18  9 29.9990000  0  9G 3G 9G14G18G19G21G22G15G25
  22389608.3004     357251.93049    271795.50247                  22389607.4094
        46.5004         30.5004
  23370855.2844     328169.10249    251297.73746                  23370853.9644
        39.5004         22.5004
  19950041.2144   -2961381.38749  -2294619.17448                  19950037.7924
        49.7504         40.7504
  22513509.5654     913962.94549    698780.16947                  22513506.9914
        43.5004         29.0004
  22476821.3154   -3431370.50449  -2656256.68347                  22476817.5384
        47.2504         32.0004
  22975078.7694    2657470.19949   2047942.53846                  22975075.8274
        43.5004         22.5004
  20888485.9404    -857907.35549   -669436.26247                  20888481.4444
        50.2504         37.5004
  19806554.2694   -1088439.55549   -846568.62648                  19806551.6014
        51.5004         40.5004
  23747018.6204   -2791415.80949  -2170586.44946                  23747018.4294
        39.0004         21.0004
 04  7  6 18  9 39.9990000  0  9G 3G 9G14G18G19G21G22G15G25
  22390334.3864     361066.75849    274768.07347                  22390333.2304
        45.7504         30.2504
  23371820.2694     333238.06349    255247.53246                  23371818.7374
        40.5004         22.5004
  19946787.8084   -2978479.78149  -2307942.62048                  19946784.4764
        49.7504         40.5004
  22514438.1124     918841.59849    702581.69647                  22514435.1244
        43.7504         28.7504
  22473054.0034   -3451167.46149  -2671682.89847                  22473050.1444
        47.0004         31.0004
  22978496.2614    2675428.63349   2061936.13646                  22978493.4644
        43.0004         22.5004
  20887276.1284    -864265.32849   -674390.54847                  20887271.2374
        49.0004         38.0004
  19805622.2764   -1093338.22349   -850385.78548                  19805619.4484
        50.7504         40.0004
  23737794.3314   -2839890.61349  -2208359.02846                  23737793.7694
        40.0004         22.0004
 04  7  6 18  9 49.9990000  0  9G 3G 9G14G18G19G21G22G15G25
  22391064.6284     364902.99649    277757.36247                  22391063.3084
        45.5004         29.7504
  23372792.5654     338348.75049    259229.89946                  23372791.2844
        39.5004         22.5004
  19943540.7534   -2995541.50449  -2321237.46048                  19943537.2334
        48.5004         40.5004
  22515364.4644     923712.48449    706377.17847                  22515361.9644
        43.7504         29.2504
  22469294.9254   -3470920.71149  -2687075.03547                  22469291.3354
        47.2504         31.2504
  22981915.4094    2693397.59449   2075937.90146                  22981913.2264
        43.7504         22.5004
  20886065.9724    -870626.10249   -679347.00747                  20886061.4604
        49.2504         37.7504
  19804697.6904   -1098197.18449   -854172.00148                  19804694.8354
        51.2504         41.0004
  23728566.2144   -2888382.77049  -2246145.07646                  23728565.9254
        39.2504         21.0004
 04  7  6 18  9 59.9990000  0  9G 3G 9G14G18G19G21G22G15G25
  22391798.8554     368761.69549    280764.10247                  22391797.3584
        44.5004         30.7504
  23373773.0504     343502.33449    263245.68046                  23373771.8194
        40.2504         24.0004
  19940301.1594   -3012565.39549  -2334502.83648                  19940297.9134
        48.0004         40.0004
  22516290.8944     928576.78549    710167.53147                  22516287.9724
        43.7504         29.0004
  22465544.4334   -3490629.02749  -2702432.17347                  22465540.5814
        47.0004         31.2504
  22985337.1674    2711378.10249   2089948.61146                  22985335.3864
        43.5004         22.0004
  20884854.7454    -876988.55549   -684304.76247                  20884850.6204
        48.7504         37.7504
  19803780.5114   -1103015.26649   -857926.34848                  19803778.0654
        50.5004         40.2504
  23719335.2374   -2936890.96149  -2283943.60446                  23719335.1164
        39.5004         20.5004
 04  7  6 18 10  9.9990000  0  9G 3G 9G14G18G19G21G22G15G25
  22392537.2144     372643.18049    283788.64647                  22392535.8584
        45.5004         31.0004
  23374762.8704     348699.10249    267295.10846                  23374760.8944
        40.5004         25.0004
  19937069.0424   -3029551.00849  -2347738.36348                  19937065.4724
        47.2504         40.7504
  22517215.1754     933435.04349    713953.18747                  22517212.1674
        42.7504         29.2504
  22461802.9174   -3510291.97349  -2717753.94347                  22461798.8974
        47.0004         31.5004
  22988761.3624    2729370.52749   2103968.66546                  22988759.6054
        43.0004         23.5004
  20883644.0424    -883352.18049   -689263.43147                  20883639.3704
        48.2504         38.2504
  19802871.7374   -1107791.94149   -861648.44548                  19802869.2804
        50.0004         41.0004
  23710101.9094   -2985414.72349  -2321754.33446                  23710101.7224
        40.0004         20.7504
 04  7  6 18 10 19.9990000  0  9G 3G 9G14G18G19G21G22G15G25
  22393279.9254     376547.76649    286831.14147                  22393279.2884
        45.0004         30.7504
  23375759.4014     353939.41449    271378.40846                  23375757.9014
        42.2504         23.0004
  19933844.2064   -3046497.96949  -2360943.80548                  19933840.7694
        49.0004         40.7504
  22518138.6364     938287.65249    717734.40947                  22518135.7374
        44.0004         29.2504
  22458070.0194   -3529909.10549  -2733040.05047                  22458065.2184
        47.0004         31.7504
  22992187.1594    2747375.26249   2117998.27646                  22992185.3434
        43.0004         22.7504
  20882433.3554    -889716.57449   -694222.71547                  20882428.1054
        49.7504         38.5004
  19801970.6674   -1112526.80149   -865337.95748                  19801968.0814
        51.5004         40.7504
  23700865.6904   -3033953.37549  -2359576.60446                  23700865.6834
        41.0004         22.0004
 04  7  6 18 10 29.9990000  0  9G 3G 9G14G18G19G21G22G15G25
  22394027.4874     380474.80149    289891.15847                  22394026.5544
        44.7504         31.0004
  23376764.7924     359222.68849    275495.28346                  23376763.4604
        41.5004         22.7504
  19930626.4954   -3063406.82849  -2374119.55048                  19930623.3194
        48.7504         40.2504
  22519061.0974     943133.90649    721510.71147                  22519057.9764
        43.5004         30.0004
  22454345.6754   -3549480.96549  -2748290.84247                  22454341.5584
        47.2504         31.5004
  22995615.8084    2765391.69149   2132037.06846                  22995613.4254
        43.2504         22.7504
  20881221.6754    -896082.31649   -699183.03047                  20881216.6944
        49.2504         37.5004
  19801077.4014   -1117220.52049   -868995.39748                  19801074.8004
        51.0004         40.5004
  23691625.5974   -3082507.34849  -2397410.81746                  23691625.9444
        41.5004         22.0004
 04  7  6 18 10 39.9990000  0  9G 3G 9G14G18G19G21G22G15G25
  22394779.3944     384424.84449    292969.11147                  22394778.4914
        45.7504         31.2504
  23377778.5114     364549.46549    279645.98346                  23377777.0974
        42.5004         22.7504
  19927416.3004   -3080276.95749  -2387265.10248                  19927412.7374
        48.0004         40.0004
  22519981.9014     947974.58649    725282.66447                  22519979.1404
        43.5004         28.2504
  22450629.8084   -3569006.88349  -2763505.83447                  22450625.6244
        47.0004         31.7504
  22999046.0504    2783420.31649   2146085.32646                  22999044.5934
        42.5004         22.5004
  20880010.2454    -902448.67649   -704143.82647                  20880005.5974
        49.0004         37.5004
  19800192.3234   -1121872.33249   -872620.19648                  19800189.7534
        51.7504         40.5004
  23682383.9644   -3131075.94149  -2435256.42746                  23682382.7184
        41.5004         22.5004
 04  7  6 18 10 49.9990000  0  9G 3G 9G14G18G19G21G22G15G25
  22395535.4874     388397.56349    296064.74247                  22395534.1634
        45.2504         30.5004
  23378800.3784     369919.40649    283830.33646                  23378799.0194
        43.0004         22.5004
  19924213.3004   -3097108.68049  -2400380.72448                  19924209.5974
        49.0004         40.5004
  22520902.3944     952809.41049    729050.06347                  22520899.3434
        43.2504         28.0004
  22446923.0194   -3588487.25049  -2778685.36947                  22446919.1084
        47.5004         31.0004
  23002479.4724    2801460.93849   2160142.88346                  23002477.5384
        43.0004         22.2504
  20878798.4174    -908816.02749   -709105.40947                  20878793.6364
        49.2504         37.2504
  19799315.0734   -1126482.56649   -876212.59648                  19799312.5344
        51.5004         40.5004
  23673138.7304   -3179659.28149  -2473113.56646                  23673138.0344
        42.0004         22.7504
 04  7  6 18 10 59.9990000  0  9G 3G 9G14G18G19G21G22G15G25
  22396295.5504     392393.01249    299178.01647                  22396294.6084
        46.7504         30.7504
  23379830.4954     375332.58249    288048.38346                  23379828.9054
        40.5004         24.2504
  19921017.5974   -3113901.92249  -2413466.37248                  19921014.3624
        48.0004         40.7504
  22521821.5504     957638.59049    732813.03447                  22521818.3154
        44.5004         28.7504
  22443224.7844   -3607921.81249  -2793829.18047                  22443220.5384
        47.2504         31.7504
  23005915.1514    2819513.46949   2174209.76446                  23005912.7454
        43.5004         22.5004
  20877586.7844    -915184.18449   -714067.61647                  20877582.1014
        50.0004         38.0004
  19798445.4724   -1131051.07049   -879772.48248                  19798443.1164
        50.7504         40.7504
  23663891.0114   -3228257.33649  -2510982.15446                  23663889.8004
        41.7504         22.5004
 04  7  6 18 11  9.9990000  0  9G 3G 9G14G18G19G21G22G15G25
  22397060.8704     396412.05149    302309.74847                  22397059.1634
        44.0004         30.5004
  23380869.4954     380789.95749    292300.86946                  23380867.9444
        41.5004         22.7504
  19917829.4954   -3130655.67649  -2426521.24748                  19917826.0074
        48.2504         40.5004
  22522739.1364     962462.95749    736572.26747                  22522736.1054
        44.5004         28.5004
  22439535.3234   -3627309.64849  -2808936.59347                  22439531.3824
        46.7504         32.0004
  23009353.1754    2837578.95349   2188286.70846                  23009350.3824
        43.7504         24.5004
  20876374.8154    -921552.25049   -719029.75247                  20876369.8434
        48.5004         38.0004
  19797584.6594   -1135576.81649   -883299.04548                  19797581.8824
        51.7504         40.5004
  23654640.4644   -3276868.96549  -2548861.29946                  23654639.3784
        42.0004         22.5004
 04  7  6 18 11 19.9990000  0  9G 3G 9G14G18G19G21G22G15G25
  22397829.0114     400452.53549    305458.16647                  22397827.8584
        44.5004         31.0004
  23381915.9804     386289.35949    296586.11546                  23381913.9404
        40.5004         23.5004
  19914648.6514   -3147372.07849  -2439547.01548                  19914645.0034
        49.5004         40.7504
  22523656.2304     967280.53549    740326.22347                  22523652.8904
        45.5004         28.5004
  22435854.0814   -3646652.71949  -2824009.12847                  22435850.5854
        46.5004         31.7504
  23012792.7224    2855655.30149   2202372.14847                  23012790.2534
        44.0004         26.5004
  20875162.8234    -927922.16449   -723993.31847                  20875158.3314
        50.5004         38.5004
  19796730.8864   -1140061.89149   -886793.89648                  19796728.5304
        51.7504         41.0004
  23645386.5974   -3325496.02749  -2586752.48446                  23645385.9524
        42.0004         22.0004
 04  7  6 18 11 29.9990000  0  9G 3G 9G14G18G19G21G22G15G25
  22398602.3864     404515.35949    308623.99247                  22398600.9954
        44.7504         31.2504
  23382970.5504     391831.77349    300904.85646                  23382969.1244
        37.5004         24.5004
  19911474.6054   -3164050.04349  -2452542.84848                  19911471.3744
        48.0004         40.7504
  22524571.3624     972092.37549    744075.66647                  22524568.4874
        44.7504         29.0004
  22432182.1444   -3665950.05549  -2839046.03047                  22432178.2654
        47.0004         31.7504
  23016235.1124    2873743.40249   2216466.75147                  23016232.2884
        44.2504         25.7504
  20873950.1984    -934292.98449   -728957.60947                  20873945.6324
        49.7504         38.0004
  19795885.3704   -1144505.26249   -890256.28548                  19795882.8784
        51.2504         40.5004
  23636130.1124   -3374137.45749  -2624654.92046                  23636130.1404
        42.5004         22.2504
 04  7  6 18 11 39.9990000  0  9G 3G 9G14G18G19G21G22G15G25
  22399380.2694     408602.16849    311808.48847                  22399379.0584
        44.5004         30.7504
  23384033.1124     397418.79349    305258.33346                  23384031.5734
        41.0004         23.2504
  19908308.7374   -3180687.94549  -2465507.44648                  19908305.4444
        48.5004         40.5004
  22525486.3554     976900.09449    747821.94347                  22525483.4334
        44.5004         29.0004
  22428519.3474   -3685199.95349  -2854045.95147                  22428515.1404
        47.0004         32.2504
  23019679.7614    2891845.00449   2230571.83046                  23019677.2264
        44.2504         25.2504
  20872738.3084    -940662.97349   -733921.24047                  20872733.8124
        49.7504         37.5004
  19795048.2454   -1148905.21149   -893684.83148                  19795045.5264
        51.5004         40.7504
  23626872.1674   -3422791.38349  -2662567.02346                  23626871.3784
        42.0004         22.5004
 04  7  6 18 11 49.9990000  0  9G 3G 9G14G18G19G21G22G15G25
  22400162.1984     412710.93049    315010.13647                  22400161.0854
        44.2504         30.2504
  23385104.2614     403048.49249    309645.12246                  23385102.8864
        40.2504         22.0004
  19905149.7534   -3197287.82849  -2478442.40348                  19905146.8004
        47.7504         40.0004
  22526400.1594     981701.80949    751563.56847                  22526397.0304
        44.7504         28.5004
  22424864.5194   -3704404.27349  -2869010.35747                  22424860.2374
        46.7504         32.2504
  23023126.4334    2909958.04749   2244685.92147                  23023124.0624
        44.0004         26.0004
  20871526.0584    -947034.05149   -738885.71447                  20871521.0774
        49.2504         37.2504
  19794218.6834   -1153263.70749   -897081.05048                  19794216.1674
        51.7504         40.5004
  23617611.0814   -3471459.70349  -2700490.32046                  23617609.7924
        44.0004         22.5004
 04  7  6 18 11 59.9990000  0  9G 3G 9G14G18G19G21G22G15G25
  22400947.8474     416843.19149    318230.05247                  22400947.7454
        45.2504         30.7504
  23386184.2614     408722.35249    314066.29646                  23386182.8274
        41.5004         22.5004
  19901998.4404   -3213848.05949  -2491346.50248                  19901995.0584
        48.7504         40.5004
  22527313.1834     986499.19949    755301.75747                  22527309.8474
        45.2504         27.5004
  22421219.1124   -3723561.52349  -2883938.09047                  22421215.2494
        46.5004         31.7504
  23026575.3864    2928084.00449   2258809.98147                  23026573.2414
        44.5004         25.7504
  20870313.5504    -953404.62949   -743849.81047                  20870309.1164
        49.2504         38.0004
  19793397.1904   -1157579.10549   -900443.72048                  19793395.1554
        51.2504         40.0004
  23608347.7924   -3520140.61749  -2738423.55046                  23608346.0504
        42.7504         22.0004
 04  7  6 18 12  9.9990000  0  9G 3G 9G14G18G19G21G22G15G25
  22401738.9404     420998.07049    321467.62247                  22401738.4804
        43.7504         29.7504
  23387273.0424     414439.60249    318521.30546                  23387270.9374
        39.5004         22.5004
  19898854.7454   -3230369.36749  -2504220.23748                  19898850.9404
        47.0004         39.5004
  22528224.8784     991291.56649    759036.06347                  22528222.1514
        45.2504         27.2504
  22417582.2064   -3742672.43749  -2898829.68847                  22417579.0154
        46.0004         31.0004
  23030026.8784    2946222.20749   2272943.63646                  23030024.8004
        44.0004         24.5004
  20869101.4254    -959775.40649   -748814.05147                  20869096.9374
        49.0004         36.7504
  19792584.5654   -1161852.09849   -903773.29248                  19792582.0504
        50.5004         40.2504
  23599081.0894   -3568834.86349  -2776367.03046                  23599079.9914
        42.5004         21.5004
 04  7  6 18 12 19.9990000  0  9G 3G 9G14G18G19G21G22G15G25
  22402533.8154     425173.94149    324721.51147                  22402532.8274
        46.0004         30.7504
  23388368.2534     420198.60949    323008.83146                  23388366.7414
        40.5004         21.0004
  19895717.9254   -3246853.43749  -2517064.98248                  19895714.3394
        49.2504         41.0004
  22529135.3474     996077.30549    762765.19647                  22529132.5504
        45.7504         28.0004
  22413954.4564   -3761738.56249  -2913686.44747                  22413950.4134
        46.5004         32.5004
  23033481.0504    2964371.03949   2287085.49347                  23033478.9054
        44.7504         26.5004
  20867888.6594    -966147.95749   -753779.69447                  20867884.0154
        50.5004         38.2504
  19791779.1124   -1166084.21949   -907071.09148                  19791776.5464
        50.7504         40.5004
  23589812.5344   -3617543.83249  -2814322.16746                  23589810.8704
        41.2504         21.7504
 04  7  6 18 12 29.9990000  0  9G 3G 9G14G18G19G21G22G15G25
  22403332.7454     429373.23449    327993.70547                  22403331.8124
        45.0004         30.2504
  23389472.7064     426001.82849    327530.80746                  23389471.2454
        39.5004         21.2504
  19892588.4804   -3263297.71549  -2529878.68848                  19892585.0934
        49.0004         40.0004
  22530045.4484    1000858.85949    766491.07547                  22530042.9254
        45.0004         27.5004
  22410335.1594   -3780757.37549  -2928506.28247                  22410331.7064
        46.2504         32.0004
  23036936.9014    2982532.93449   2301237.61347                  23036934.7304
        45.0004         26.2504
  20866676.1984    -972519.76249   -758744.72747                  20866671.5114
        50.0004         37.5004
  19790981.9874   -1170272.99649   -910335.06648                  19790979.3974
        51.2504         40.5004
  23580540.6984   -3666264.94549  -2852286.64946                  23580538.9014
        42.5004         21.7504
 04  7  6 18 12 39.9990000  0  9G 3G 9G14G18G19G21G22G15G25
  22404135.7064     433594.19949    331282.73147                  22404135.0624
        44.5004         31.5004
  23390585.1904     431847.57449    332085.89446                  23390582.9404
        39.7504         22.2504
  19889466.5344   -3279703.88349  -2542662.74148                  19889463.3554
        49.0004         41.0004
  22530954.1834    1005634.71549    770212.49847                  22530951.4764
        45.5004         28.0004
  22406724.6204   -3799730.41849  -2943290.50747                  22406720.8784
        47.2504         32.0004
  23040395.5344    3000706.16849   2315398.50847                  23040392.6284
        45.7504         26.2504
  20865463.4954    -978892.50449   -763710.51347                  20865458.8864
        50.7504         39.0004
  19790192.7224   -1174420.07049   -913566.58348                  19790190.3864
        51.0004         40.5004
  23571266.9644   -3714999.66449  -2890261.72646                  23571265.2264
        43.0004         22.5004
 04  7  6 18 12 49.9990000  0  9G 3G 9G14G18G19G21G22G15G25
  22404943.3314     437837.83649    334589.44547                  22404942.6554
        44.0004         30.5004
  23391706.0194     437736.83249    336674.95146                  23391704.0384
        40.7504         21.5004
  19886351.9644   -3296070.82449  -2555416.21248                  19886348.5814
        50.0004         40.5004
  22531862.5344    1010406.02349    773930.36947                  22531859.0584
        45.2504         27.7504
  22403123.4804   -3818656.59849  -2958038.18147                  22403119.7144
        46.5004         31.5004
  23043856.2694    3018891.88349   2329569.18247                  23043853.2844
        45.0004         26.0004
  20864250.5504    -985264.94949   -768676.05847                  20864246.1084
        49.7504         38.5004
  19789411.7844   -1178524.25849   -916764.65248                  19789409.2454
        50.7504         40.7504
  23561990.2764   -3763746.81649  -2928246.53746                  23561987.8904
        43.0004         21.5004
 04  7  6 18 12 59.9990000  0  9G 3G 9G14G18G19G21G22G15G25
  22405755.5344     442103.98449    337913.69947                  22405754.3474
        45.0004         29.5004
  23392833.9644     443669.47349    341297.74446                  23392832.4804
        39.5004         21.0004
  19883244.9874   -3312398.64149  -2568139.17448                  19883241.4914
        50.0004         40.0004
  22532769.2924    1015172.60549    777644.58447                  22532766.2694
        44.2504         26.7504
  22399530.9724   -3837536.01649  -2972749.40647                  22399526.5264
        46.2504         31.2504
  23047318.8784    3037089.89849   2343749.43146                  23047316.5304
        44.5004         25.2504
  20863038.1904    -991637.24249   -773641.47347                  20863033.5974
        50.2504         37.7504
  19788638.8784   -1182585.66049   -919929.38048                  19788636.7654
        51.2504         40.5004
  23552712.3154   -3812506.32849  -2966240.96446                  23552709.9334
        43.5004         21.0004
 04  7  6 18 13  9.9990000  0  9G 3G 9G14G18G19G21G22G15G25
  22406571.4254     446392.11349    341255.07347                  22406570.4644
        45.0004         29.7504
  23393971.7694     449645.00449    345953.98146                  23393969.7804
        40.5004         20.0004
  19880145.3234   -3328687.88749  -2580832.10248                  19880141.5974
        49.5004         40.2504
  22533675.6284    1019934.05949    781354.78147                  22533672.0624
        45.5004         26.0004
  22395946.7694   -3856369.19549  -2987424.63347                  22395942.6944
        46.5004         31.2504
  23050784.4014    3055299.85549   2357938.98747                  23050781.6364
        45.5004         25.7504
  20861825.7064    -998009.87949   -778607.18647                  20861820.8044
        50.0004         38.2504
  19787874.1204   -1186604.80549   -923061.18948                  19787871.7574
        51.2504         40.5004
  23543431.0974   -3861278.55949  -3004245.28546                  23543429.1474
        43.5004         22.5004
 04  7  6 18 13 19.9990000  0  9G 3G 9G14G18G19G21G22G15G25
  22407391.9724     450701.73049    344613.21647                  22407390.3044
        43.7504         30.0004
  23395117.5114     455663.00049    350643.33746                  23395114.8354
        41.2504         20.5004
  19877052.7614   -3344938.88349  -2593495.20348                  19877049.2024
        48.7504         40.0004
  22534580.3624    1024690.06349    785060.76647                  22534577.6364
        45.0004         27.5004
  22392371.3234   -3875156.40249  -3002064.02447                  22392367.4834
        46.7504         30.5004
  23054251.4874    3073521.26649   2372137.44847                  23054249.5114
        45.0004         26.2504
  20860612.4564   -1004383.12549   -783573.34547                  20860607.8394
        50.2504         36.2504
  19787117.4484   -1190581.93749   -926160.24648                  19787114.9764
        51.0004         39.5004
  23534147.1204   -3910063.75049  -3042259.69146                  23534145.6904
        43.0004         21.7504
 04  7  6 18 13 29.9990000  0  9G 3G 9G14G18G19G21G22G15G25
  22408215.6284     455032.33649    347987.71347                  22408214.7924
        44.2504         30.7504
  23396270.2374     461722.96549    355365.39046                  23396268.1164
        40.7504         20.0004
  19873967.3084   -3361152.07849  -2606128.86948                  19873963.8474
        49.0004         41.0004
  22535484.2694    1029440.16449    788762.11547                  22535481.4484
        45.2504         28.0004
  22388805.1364   -3893898.09049  -3016667.95547                  22388801.4914
        47.0004         31.7504
  23057720.8234    3091753.49249   2386344.34046                  23057719.2144
        44.0004         25.2504
  20859399.8394   -1010757.39849   -788540.31547                  20859395.1514
        49.7504         37.2504
  19786368.1444   -1194517.54749   -929226.97648                  19786365.7454
        51.5004         40.5004
  23524861.3234   -3958862.31649  -3080284.55346                  23524859.7024
        42.7504         21.5004
 04  7  6 18 13 39.9990000  0  9G 3G 9G14G18G19G21G22G15G25
  22409044.3474     459384.70749    351379.16647                  22409042.7334
        45.2504         30.2504
  23397431.6124     467825.63349    360120.67646                  23397429.3434
        40.7504         21.0004
  19870889.4564   -3377326.74249  -2618732.49248                  19870886.6284
        48.0004         40.7504
  22536387.3554    1034185.21149    792459.58047                  22536384.2494
        45.5004         27.0004
  22385247.9954   -3912593.43049  -3031235.74247                  22385243.9134
        46.7504         32.0004
  23061192.8154    3109997.26649   2400560.25446                  23061190.6874
        44.7504         23.0004
  20858186.9644   -1017131.90249   -793507.46547                  20858182.0774
        50.5004         37.2504
  19785627.4334   -1198410.75449   -932260.64048                  19785625.1444
        51.2504         40.5004
  23515572.6904   -4007673.26249  -3118319.02046                  23515571.2144
        42.2504         21.5004
 04  7  6 18 13 49.9990000  0  9G 3G 9G14G18G19G21G22G15G25
  22409876.2694     463759.13349    354787.77647                  22409875.0034
        44.5004         31.0004
  23398600.8004     473971.29349    364909.50846                  23398598.9254
        41.0004         21.2504
  19867819.0424   -3393462.50449  -2631305.84148                  19867815.7184
        48.7504         41.2504
  22537289.3084    1038925.62149    796153.35947                  22537286.4834
        44.7504         28.0004
  22381699.0344   -3931242.02049  -3045767.13147                  22381694.8044
        47.0004         33.0004
  23064666.6124    3128252.89549   2414785.34547                  23064664.4684
        45.0004         26.2504
  20856973.9334   -1023506.25049   -798474.51047                  20856969.2884
        49.7504         38.2504
  19784894.6834   -1202261.15649   -935260.98748                  19784892.2694
        51.5004         41.2504
  23506282.0194   -4056496.04349  -3156362.73946                  23506280.3904
        42.0004         20.7504
 04  7  6 18 13 59.9990000  0  9G 3G 9G14G18G19G21G22G15G25
  22410712.5504     468154.04349    358212.37847                  22410711.2764
        45.2504         30.7504
  23399778.5424     480158.49649    369730.72346                  23399776.2104
        40.2504         20.2504
  19864755.4564   -3409560.76249  -2643849.92748                  19864752.3044
        45.5004         41.0004
  22538190.4724    1043659.93449    799842.45147                  22538186.9684
        44.0004         27.7504
  22378159.2304   -3949845.27349  -3060263.16947                  22378155.0264
        46.7504         32.5004
  23068142.8394    3146518.85249   2429018.51846                  23068140.3044
        45.2504         24.5004
  20855760.7374   -1029881.87949   -803442.53647                  20855755.8004
        47.0004         38.2504
  19784170.1904   -1206070.19949   -938229.07348                  19784167.5504
        51.5004         40.5004
  23496988.8004   -4105332.06649  -3194416.74046                  23496986.7804
        41.2504         20.7504
 04  7  6 18 14  9.9990000  0  9G 3G 9G14G18G19G21G22G15G25
  22411553.4954     472571.99249    361654.93547                  22411552.0114
        45.2504         29.5004
  23400964.5034     486389.79349    374586.25146                  23400961.7654
        40.0004         19.5004
  19861699.8704   -3425618.98049  -2656362.82048                  19861696.1754
        47.5004         40.5004
  22539090.9644    1048390.79349    803528.80747                  22539087.5384
        45.0004         27.7504
  22374627.9644   -3968400.58249  -3074721.85447                  22374624.3084
        47.0004         32.0004
  23071621.1514    3164797.77749   2443261.82346                  23071618.2654
        44.7504         24.2504
  20854547.4254   -1036256.18049   -808409.51847                  20854542.5814
        49.5004         37.2504
  19783453.6204   -1209835.31249   -941162.93648                  19783451.1554
        51.5004         40.0004
  23487693.2064   -4154178.57849  -3232479.01046                  23487691.5114
        42.0004         19.0004
 04  7  6 18 14 19.9990000  0  9G 3G 9G14G18G19G21G22G15G25
  22412398.4874     477011.57049    365114.33747                  22412396.8084
        45.0004         30.0004
  23402158.3314     492663.73449    379475.02446                  23402155.7574
        39.5004         19.7504
  19858651.4014   -3441638.50849  -2668845.57248                  19858647.8584
        46.7504         40.0004
  22539990.0974    1053116.97749    807211.50847                  22539987.0424
        43.7504         28.0004
  22371105.8624   -3986909.39549  -3089144.29947                  22371102.0894
        46.7504         32.2504
  23075102.1444    3183088.38349   2457514.19946                  23075099.1794
        44.7504         24.0004
  20853334.7614   -1042630.45349   -813376.48747                  20853330.0224
        49.2504         37.2504
  19782745.1904   -1213557.74649   -944063.53748                  19782742.5304
        51.0004         40.2504
  23478396.4094   -4203036.82449  -3270550.35346                  23478394.0264
        41.5004         20.0004
 04  7  6 18 14 29.9990000  0  9G 3G 9G14G18G19G21G22G15G25
  22413247.2144     481473.46949    368591.14147                  22413245.8084
        44.5004         29.7504
  23403359.9174     498981.16449    384397.78446                  23403357.9294
        41.0004         20.5004
  19855610.2844   -3457618.52349  -2681297.53748                  19855607.0584
        48.0004         40.0004
  22540888.9644    1057839.32449    810891.28647                  22540885.4524
        44.0004         27.5004
  22367592.9874   -4005370.74249  -3103529.78447                  22367589.0424
        46.7504         32.0004
  23078584.6594    3201391.52349   2471776.38346                  23078581.9094
        44.5004         23.7504
  20852121.7454   -1049003.82449   -818342.75547                  20852117.0464
        49.2504         37.2504
  19782045.0654   -1217236.61349   -946930.19848                  19782042.6014
        51.5004         40.0004
  23469096.6514   -4251905.73049  -3308630.00246                  23469094.5544
        41.0004         20.0004
 04  7  6 18 14 39.9990000  0  9G 3G 9G14G18G19G21G22G15G25
  22414100.1984     485955.22749    372083.38047                  22414099.3434
        44.7504         31.0004
  23404570.5344     505339.55949    389352.33746                  23404568.4524
        40.5004         22.0004
  19852576.4174   -3473561.48849  -2693720.62948                  19852573.2884
        47.5004         40.2504
  22541785.8624    1062555.26249    814566.02247                  22541783.2024
        42.7504         28.0004
  22364088.3864   -4023787.08649  -3117880.19547                  22364083.8864
        46.7504         32.2504
  23082069.1444    3219704.99649   2486046.55746                  23082067.1404
        43.0004         22.5004
  20850908.6594   -1055378.72349   -823310.22647                  20850903.8514
        49.5004         37.2504
  19781352.8394   -1220874.39849   -949764.85148                  19781350.4014
        51.7504         40.2504
  23459794.4334   -4300787.75049  -3346719.93946                  23459792.8474
        41.5004         20.2504
 04  7  6 18 14 49.9990000  0  9G 3G 9G14G18G19G21G22G15G25
  22414957.0424     490459.19149    375592.96647                  22414955.9804
        44.0004         30.0004
  23405788.8314     511741.23849    394340.63146                  23405786.5934
        42.0004         21.2504
  19849550.3234   -3489465.08249  -2706113.04348                  19849546.8824
        48.0004         40.5004
  22542682.7144    1067267.26249    818237.70647                  22542680.0464
        43.0004         27.7504
  22360592.8624   -4042156.00449  -3132193.63547                  22360588.6364
        47.7504         32.2504
  23085556.1124    3238030.69949   2500326.33146                  23085553.9564
        42.5004         21.5004
  20849695.5974   -1061752.77749   -828277.02447                  20849691.1944
        50.2504         37.7504
  19780669.0264   -1224468.71549   -952565.61248                  19780666.3124
        52.2504         40.0004
  23450490.8624   -4349680.45749  -3384818.06446                  23450489.9334
        40.2504         20.7504
 04  7  6 18 14 59.9990000  0  9G 3G 9G14G18G19G21G22G15G25
  22415818.5264     494983.82049    379118.64547                  22415817.0624
        44.0004         31.2504
  23407014.0814     518184.84449    399361.58446                  23407013.0504
        42.0004         22.0004
  19846531.1514   -3505330.61349  -2718475.79648                  19846527.8474
        46.7504         41.5004
  22543578.5344    1071974.05549    821905.31647                  22543575.5304
        42.0004         28.0004
  22357106.1904   -4060478.85249  -3146471.20347                  22357101.9834
        48.0004         32.7504
  23089045.5194    3256367.43849   2514614.67646                  23089043.9294
        43.0004         21.0004
  20848482.6514   -1068127.28949   -833244.17547                  20848477.8944
        49.2504         38.7504
  19779992.7844   -1228020.87949   -955333.55848                  19779990.2924
        52.2504         41.0004
  23441184.6124   -4398584.90249  -3422925.42746                  23441183.1904
        41.5004         21.5004
 04  7  6 18 15  9.9990000  0  9G 3G 9G14G18G19G21G22G15G25
  22416683.2764     499531.01249    382661.90347                  22416682.5074
        43.7504         30.5004
  23408249.4564     524672.20749    404416.64746                  23408247.4954
        41.5004         21.5004
  19843519.7374   -3521156.19549  -2730807.42348                  19843516.3514
        48.2504         41.0004
  22544473.7844    1076677.58649    825570.37347                  22544469.9214
        43.2504         26.5004
  22353628.6364   -4078753.71549  -3160711.35247                  22353624.5034
        47.5004         32.2504
  23092537.3154    3274716.89549   2528912.87846                  23092535.6084
        42.5004         20.7504
  20847269.7224   -1074500.33649   -838210.19347                  20847265.1244
        50.7504         38.0004
  19779325.5114   -1231529.02349   -958067.17048                  19779323.0154
        51.5004         40.5004
  23431876.9014   -4447499.16449  -3461040.37946                  23431875.0774
        41.7504         21.2504
 04  7  6 18 15 19.9990000  0  9G 3G 9G14G18G19G21G22G15G25
  22417552.9484     504099.08649    386221.42347                  22417551.8784
        44.5004         30.2504
  23409492.0424     531201.67249    409504.56046                  23409489.9804
        40.2504         21.5004
  19840515.4724   -3536943.50849  -2743109.22648                  19840512.3704
        47.5004         40.5004
  22545368.0344    1081376.21149    829231.64747                  22545364.8274
        43.5004         26.2504
  22350159.6444   -4096982.14549  -3174915.34047                  22350155.9134
        47.5004         32.5004
  23096031.6124    3293077.44549   2543219.80046                  23096029.4604
        41.2504         21.5004
  20846056.8624   -1080873.51249   -843176.31347                  20846052.6874
        49.5004         38.0004
  19778665.8474   -1234994.65649   -960767.66548                  19778663.2694
        51.7504         40.2504
  23422566.0504   -4496424.66849  -3499164.17046                  23422565.1714
        40.0004         21.2504
 04  7  6 18 15 29.9990000  0  9G 3G 9G14G18G19G21G22G15G25
  22418426.2924     508688.54349    389797.62047                  22418424.9334
        45.0004         30.2504
  23410741.8784     537773.82049    414625.70246                  23410740.4834
        42.2504         22.5004
  19837518.5034   -3552691.89149  -2755380.69848                  19837515.0624
        47.5004         40.5004
  22546261.1904    1086070.59849    832889.59247                  22546257.7884
        43.0004         26.5004
  22346699.8784   -4115163.50449  -3189082.63547                  22346696.0224
        47.5004         31.5004
  23099527.5974    3311449.68049   2557535.79846                  23099525.8354
        43.0004         20.7504
  20844844.5584   -1087246.17649   -848142.02747                  20844839.3274
        50.0004         37.5004
  19778014.4874   -1238417.09849   -963434.51048                  19778012.0774
        51.5004         40.0004
  23413253.6514   -4545360.69149  -3537296.07546                  23413252.2694
        41.2504         21.5004
 04  7  6 18 15 39.9990000  0  9G 3G 9G14G18G19G21G22G15G25
  22419304.2144     513300.38349    393391.24947                  22419302.9134
        45.7504         28.7504
  23412001.4804     544389.57849    419780.83046                  23411999.2884
        39.0004         22.7504
  19834529.6514   -3568400.39549  -2767621.10648                  19834525.8194
        47.0004         40.5004
  22547153.9874    1090761.81649    836545.05647                  22547150.4444
        43.7504         27.2504
  22343249.5654   -4133296.80549  -3203212.50247                  22343245.4764
        47.0004         32.0004
  23103026.2534    3329834.59849   2571861.64246                  23103024.2654
        42.0004         20.5004
  20843632.1904   -1093617.26649   -853106.51947                  20843627.4914
        50.2504         37.2504
  19777371.7764   -1241795.36349   -966066.93748                  19777369.1904
        50.7504         39.5004
  23403939.5504   -4594306.07449  -3575435.35846                  23403938.3624
        41.5004         21.2504
 04  7  6 18 15 49.9990000  0  9G 3G 9G14G18G19G21G22G15G25
  22420185.5264     517933.89149    397001.74647                  22420183.9834
        45.2504         30.2504
  23413268.6834     551048.33249    424969.47446                  23413267.1714
        40.5004         22.5004
  19831547.7924   -3584069.59449  -2779830.86648                  19831544.4564
        47.2504         41.0004
  22548045.9874    1095449.25849    840197.61247                  22548042.8084
        44.2504         27.0004
  22339807.9254   -4151382.61749  -3217305.35847                  22339803.8514
        47.7504         32.2504
  23106527.3554    3348231.54749   2586196.91546                  23106525.6594
        41.5004         21.5004
  20842419.8004   -1099987.36749   -858070.25047                  20842415.2104
        50.0004         38.0004
  19776737.4254   -1245130.06649   -968665.41348                  19776734.6014
        52.0004         40.2504
  23394624.4014   -4643261.31249  -3613582.29546                  23394622.5774
        42.2504         22.2504
 04  7  6 18 15 59.9990000  0  9G 3G 9G14G18G19G21G22G15G25
  22421071.7224     522589.37949    400629.40947                  22421070.2884
        45.5004         30.2504
  23414543.1124     557750.31649    430191.76246                  23414541.8664
        37.2504         22.5004
  19828573.4804   -3599699.09049  -2792009.69348                  19828570.3004
        48.0004         40.2504
  22548937.3864    1100133.23849    843847.45547                  22548933.5114
        44.5004         27.7504
  22336375.2304   -4169420.58249  -3231360.91747                  22336371.4014
        47.0004         32.5004
  23110030.5344    3366640.89149   2600541.81246                  23110028.5114
        41.7504         20.5004
  20841208.1124   -1106356.05949   -863032.86347                  20841203.0304
        50.0004         37.5004
  19776111.1364   -1248420.80949   -971229.63448                  19776108.5974
        51.5004         40.0004
  23385306.8314   -4692225.95749  -3651736.50446                  23385305.5734
        43.0004         22.5004
 04  7  6 18 16  9.9990000  0  9G 3G 9G14G18G19G21G22G15G25
  22421961.4644     527266.02749    404273.52847                  22421960.0584
        46.0004         31.5004
  23415827.1364     564494.79749    435447.19046                  23415825.8944
        37.2504         22.5004
  19825606.4564   -3615289.65649  -2804158.18948                  19825603.3584
        48.2504         41.0004
  22549827.9174    1104813.18449    847494.15547                  22549824.8904
        44.5004         28.5004
  22332951.4174   -4187411.35249  -3245379.70847                  22332947.9174
        47.2504         33.0004
  23113536.1204    3385061.84449   2614895.75146                  23113533.6444
        41.5004         19.5004
  20839996.2374   -1112724.11749   -867994.99047                  20839991.8274
        50.5004         38.0004
  19775492.9174   -1251668.30549   -973760.17348                  19775490.2924
        51.7504         41.0004
  23375987.2454   -4741200.52349  -3689898.51146                  23375985.6054
        43.2504         24.7504
 04  7  6 18 16 19.9990000  0  9G 3G 9G14G18G19G21G22G15G25
  22422855.4094     531964.01249    407934.28647                  22422854.2454
        45.5004         30.2504
  23417118.0344     571281.91849    440735.88146                  23417117.1164
        37.5004         22.2504
  19822647.4404   -3630841.12949  -2816276.22348                  19822643.9644
        47.5004         41.0004
  22550717.3554    1109489.27749    851137.83847                  22550714.0034
        43.2504         28.2504
  22329537.4724   -4205354.74249  -3259361.57247                  22329533.4374
        47.0004         32.2504
  23117043.0264    3403494.45749   2629258.74846                  23117041.2184
        41.2504         20.2504
  20838784.4334   -1119091.27749   -872956.42247                  20838779.9954
        50.7504         37.7504
  19774883.4404   -1254872.31649   -976256.80148                  19774880.7454
        51.7504         40.2504
  23366665.8624   -4790184.77349  -3728068.03946                  23366664.1364
        43.0004         25.0004
 04  7  6 18 16 29.9990000  0  9G 3G 9G14G18G19G21G22G15G25
  22423753.4484     536682.99649    411611.40347                  22423752.0814
        45.5004         31.2504
  23418417.6834     578111.45749    446057.57246                  23418417.3824
        38.2504         21.7504
  19819695.3944   -3646353.68749  -2828363.92348                  19819691.9444
        48.2504         40.5004
  22551606.8704    1114161.44549    854778.49647                  22551603.5894
        43.7504         27.7504
  22326131.5894   -4223250.84849  -3273306.60247                  22326127.9134
        47.0004         32.0004
  23120553.4724    3421938.69549   2643630.88046                  23120551.0544
        42.2504         19.2504
  20837573.0504   -1125457.59049   -877917.19747                  20837568.6204
        51.0004         37.5004
  19774282.1594   -1258032.89849   -978719.60248                  19774279.0624
        52.0004         40.2504
  23357342.1284   -4839178.68049  -3766245.05046                  23357341.2304
        42.2504         22.7504
 04  7  6 18 16 39.9990000  0  9G 3G 9G14G18G19G21G22G15G25
  22424655.2374     541424.38349    415305.97447                  22424654.0224
        45.0004         30.2504
  23419726.4874     584984.91049    451413.45046                  23419724.8974
        38.0004         22.2504
  19816751.0504   -3661825.95349  -2840420.24648                  19816747.8124
        48.2504         40.5004
  22552495.6904    1118831.16449    858417.22147                  22552492.2184
        44.5004         27.7504
  22322735.3234   -4241098.29349  -3287213.69947                  22322731.4644
        46.2504         32.0004
  23124066.0894    3440396.08249   2658013.21446                  23124062.8974
        42.5004         19.5004
  20836361.9564   -1131821.64549   -882876.20047                  20836357.4724
        50.0004         37.7504
  19773688.8944   -1261148.68049   -981147.49448                  19773686.1714
        52.0004         40.2504
  23348017.4094   -4888180.60249  -3804428.35746                  23348016.3664
        42.5004         21.7504
 04  7  6 18 16 49.9990000  0  9G 3G 9G14G18G19G21G22G15G25
  22425561.9564     546188.77749    419018.47347                  22425561.0774
        45.7504         29.5004
  23421042.0264     591902.80549    456803.98346                  23421041.5974
        36.2504         21.5004
  19813814.4724   -3677257.18449  -2852444.58448                  19813811.2844
        49.2504         39.5004
  22553383.6674    1123499.09449    862054.55847                  22553380.3944
        44.7504         26.7504
  22319348.3154   -4258896.35249  -3301082.31747                  22319344.8154
        47.0004         31.5004
  23127580.8624    3458867.08249   2672406.18746                  23127578.0774
        43.2504         20.7504
  20835151.4174   -1138182.75849   -887832.92147                  20835146.6594
        51.0004         37.5004
  19773104.6514   -1264218.91849   -983539.89448                  19773102.4644
        51.5004         40.0004
  23338690.8234   -4937189.80149  -3842617.32346                  23338690.1364
        43.0004         22.5004
 04  7  6 18 16 59.9990000  0  9G 3G 9G14G18G19G21G22G15G25
  22426472.7374     550974.42649    422747.54747                  22426471.8944
        44.5004         30.2504
  23422367.8944     598863.29749    462227.76846                  23422365.7024
        36.2504         21.7504
  19810885.8554   -3692649.14849  -2864438.32748                  19810882.2804
        48.0004         40.5004
  22554271.3624    1128163.68049    865689.28947                  22554268.2304
        41.7504         26.0004
  22315970.6054   -4276646.81249  -3314913.86447                  22315966.6014
        47.2504         32.5004
  23131098.0194    3477349.93849   2686808.38146                  23131095.8904
        42.7504         20.7504
  20833941.5734   -1144542.65249   -892788.68847                  20833936.4334
        51.0004         38.0004
  19772528.6054   -1267245.36749   -985898.17148                  19772525.9804
        52.0004         40.7504
  23329363.9094   -4986207.98849  -3880813.31846                  23329362.2724
        43.5004         24.5004
 04  7  6 18 17  9.9990000  0  9G 3G 9G14G18G19G21G22G15G25
  22427387.7304     555779.58649    426491.81847                  22427386.0734
        44.0004         30.5004
  23423698.9644     605864.74249    467683.38146                  23423698.6244
        36.0004         21.5004
  19807963.6984   -3708003.52349  -2876402.78748                  19807960.5934
        48.5004         40.7504
  22555158.0424    1132823.17649    869320.03047                  22555154.8704
        43.2504         26.7504
  22312601.7374   -4294351.19149  -3328709.49447                  22312597.6754
        46.5004         32.5004
  23134617.7694    3495843.00449   2701218.52846                  23134614.8314
        43.5004         22.7504
  20832731.2064   -1150902.88749   -897744.72447                  20832726.1404
        50.5004         37.5004
  19771960.9954   -1270229.62949   -988223.58748                  19771958.2104
        52.5004         40.7504
  23320033.4644   -5035236.55549  -3919017.36446                  23320032.7534
        44.2504         24.0004
 04  7  6 18 17 19.9990000  0  9G 3G 9G14G18G19G21G22G15G25
  22428306.0264     560607.13349    430253.51647                  22428304.4174
        43.2504         30.2504
  23425039.5584     612910.07049    473173.27446                  23425039.2924
        36.2504         20.7504
  19805049.9874   -3723317.33649  -2888335.61648                  19805046.6204
        48.5004         41.0004
  22556044.5264    1137480.53149    872949.15747                  22556041.1124
        42.2504         27.7504
  22309242.0734   -4312006.59449  -3342466.95547                  22309238.2724
        46.5004         32.2504
  23138138.9174    3514349.17249   2715638.85046                  23138136.2184
        43.5004         22.5004
  20831521.1124   -1157260.52349   -902698.73047                  20831516.4564
        50.0004         38.2504
  19771401.9334   -1273168.78149   -990513.84248                  19771399.0384
        51.7504         41.0004
  23310703.2144   -5084272.48049  -3957227.17346                  23310701.4094
        43.0004         24.5004
 04  7  6 18 17 29.9980000  0  9G 3G 9G14G18G19G21G22G15G25
  22429228.7724     565455.85549    434031.74647                  22429227.3224
        42.5004         30.7504
  23426387.4824     619997.89148    478696.19346                  23426387.9594
        35.0004         20.7504
  19802143.2724   -3738589.69149  -2900236.15848                  19802140.2954
        48.7504         40.7504
  22556929.4984    1142134.75849    876575.77547                  22556926.4084
        43.5004         27.5004
  22305891.5374   -4329611.85549  -3356185.35247                  22305887.9714
        47.5004         31.7504
  23141662.7874    3532865.89549   2730067.46846                  23141659.6234
        44.0004         22.5004
  20830311.8654   -1163615.58649   -907650.73247                  20830306.9944
        51.0004         38.0004
  19770851.0764   -1276063.10549   -992769.16848                  19770848.3774
        52.0004         41.0004
  23301370.1004   -5133311.30949  -3995439.20846                  23301369.3224
        43.0004         25.0004
 04  7  6 18 17 39.9980000  0  9G 3G 9G14G18G19G21G22G15G25
  22430155.2404     570324.99249    437825.85347                  22430153.9474
        43.5004         30.2504
  23427744.9514     627127.80948    484251.95546                  23427744.6584
        34.5004         19.7504
  19799244.2014   -3753825.41849  -2912108.16848                  19799240.9554
        48.2504         40.7504
  22557814.5614    1146785.02349    880199.35747                  22557811.9474
        43.0004         27.5004
  22302550.0924   -4347172.17249  -3369868.73147                  22302546.5534
        47.2504         32.7504
  23145188.3114    3551395.15649   2744505.81546                  23145186.0684
        43.2504         22.5004
  20829102.3574   -1169970.92649   -912602.95847                  20829097.7724
        50.7504         37.7504
  19770308.2874   -1278914.85949   -994991.31348                  19770305.5574
        51.5004         40.5004
  23292036.0374   -5182364.43049  -4033662.41646                  23292035.1744
        44.0004         25.0004
 04  7  6 18 17 49.9980000  0  9G 3G 9G14G18G19G21G22G15G25
  22431085.7794     575213.91449    441635.39047                  22431083.9824
        44.0004         29.2504
  23429110.3734     634299.10248    489839.94846                  23429109.6474
        33.0004         21.2504
  19796352.5924   -3769022.95749  -2923950.39348                  19796348.8614
        47.5004         40.2504
  22558699.0764    1151430.96949    883819.54047                  22558695.8184
        42.7504         26.7504
  22299217.8034   -4364685.77749  -3383515.69247                  22299213.9674
        46.7504         32.2504
  23148716.6544    3569935.03549   2758952.41146                  23148714.0144
        43.7504         21.5004
  20827893.0924   -1176325.92649   -917554.90447                  20827888.4984
        50.2504         37.5004
  19769773.5844   -1281723.72749   -997180.04048                  19769770.9324
        51.0004         40.2504
  23282700.0844   -5231426.80949  -4071892.81746                  23282698.9164
        44.5004         25.5004
 04  7  6 18 17 59.9980000  0  9G 3G 9G14G18G19G21G22G15G25
  22432020.0224     580123.28949    445460.87047                  22432018.6354
        44.0004         29.7504
  23430482.3184     641512.54348    495460.79346                  23430482.2404
        35.0004         21.0004
  19793467.8654   -3784181.60249  -2935762.33348                  19793464.0804
        47.7504         40.0004
  22559582.5144    1156073.27049    887436.90447                  22559579.0144
        44.0004         27.5004
  22295893.8344   -4382151.95749  -3397125.71147                  22295890.0024
        47.0004         31.5004
  23152246.5684    3588486.23049   2773407.86946                  23152244.2254
        43.5004         22.0004
  20826684.1544   -1182679.79749   -922505.98047                  20826679.3384
        50.2504         37.5004
  19769247.5924   -1284488.98449   -999334.80448                  19769244.8694
        52.0004         39.5004
  23273362.3264   -5280497.62149  -4110129.81046                  23273360.7724
        43.7504         24.7504
 04  7  6 18 18  9.9980000  0  9G 3G 9G14G18G19G21G22G15G25
  22432957.2874     585051.14149    449300.74247                  22432956.4554
        44.2504         28.7504
  23431862.7484     648766.02048    501112.81046                  23431862.6394
        34.0004         20.0004
  19790590.0534   -3799303.29349  -2947545.46348                  19790586.5414
        48.0004         40.7504
  22560464.6004    1160710.12949    891050.08347                  22560461.4554
        44.5004         27.2504
  22292578.6544   -4399572.55149  -3410700.19947                  22292575.1584
        46.5004         31.5004
  23155778.9514    3607046.77049   2787870.59246                  23155776.0024
        43.7504         22.2504
  20825474.8034   -1189034.45349   -927457.64847                  20825469.9674
        50.2504         37.5004
  19768729.2954   -1287212.50849  -1001457.02648                  19768726.6504
        51.0004         39.5004
  23264021.9434   -5329578.74249  -4148374.79846                  23264021.0454
        44.0004         25.2504
 04  7  6 18 18 19.9980000  0  9G 3G 9G14G18G19G21G22G15G25
  22433899.7174     590000.56349    453157.41247                  22433898.6154
        43.7504         29.5004
  23433251.7564     656062.71548    506798.48346                  23433250.7174
        35.5004         20.5004
  19787720.0454   -3814384.92249  -2959297.39948                  19787716.6744
        47.7504         40.7504
  22561346.5614    1165344.71149    894661.38647                  22561343.2954
        45.0004         26.5004
  22289273.2794   -4416944.41449  -3424236.73747                  22289269.2364
        46.5004         32.0004
  23159313.1544    3625619.79749   2802343.02746                  23159310.5614
        43.5004         22.0004
  20824266.4984   -1195386.73449   -932407.49347                  20824261.2404
        50.7504         37.5004
  19768219.4984   -1289891.15249  -1003544.30648                  19768216.8814
        51.5004         39.7504
  23254681.2094   -5378666.85949  -4186625.25746                  23254680.2174
        44.7504         24.7504
 04  7  6 18 18 29.9980000  0  9G 3G 9G14G18G19G21G22G15G25
  22434845.4904     594971.97349    457031.25247                  22434843.7364
        45.0004         28.7504
  23434648.7014     663403.12948    512518.26046                  23434647.8034
        34.7504         21.5004
  19784857.9594   -3829425.93749  -2971017.65548                  19784854.6864
        49.5004         40.7504
  22562228.2254    1169977.49249    898271.33347                  22562225.1114
        44.5004         26.0004
  22285976.8344   -4434267.03949  -3437734.88147                  22285972.7174
        47.0004         31.7504
  23162850.2014    3644205.81649   2816825.65546                  23162847.5494
        44.5004         24.5004
  20823057.8894   -1201736.05549   -937355.01347                  20823053.2214
        51.5004         38.0004
  19767718.4364   -1292524.36349  -1005596.15148                  19767715.7444
        51.7504         40.5004
  23245339.0454   -5427761.25049  -4224880.65046                  23245337.5684
        44.5004         22.5004
 04  7  6 18 18 39.9980000  0  9G 3G 9G14G18G19G21G22G15G25
  22435794.9364     599961.52749    460919.17347                  22435793.3734
        45.0004         30.5004
  23436052.8974     670783.29749    518269.01846                  23436052.2054
        36.0004         21.2504
  19782002.6784   -3844430.19549  -2982709.31448                  19781999.2404
        48.0004         41.2504
  22563108.6864    1174604.77049    901876.98647                  22563105.4794
        45.0004         27.2504
  22282689.2254   -4451544.20749  -3451197.63447                  22282685.2364
        46.5004         32.7504
  23166388.4904    3662800.96149   2831315.30246                  23166386.2094
        44.7504         24.5004
  20821849.4284   -1208086.12949   -942303.15447                  20821844.9284
        50.2504         38.5004
  19767225.3504   -1295115.89149  -1007615.55648                  19767222.5964
        52.2504         40.7504
  23235994.2324   -5476865.54349  -4263143.71346                  23235992.8734
        44.0004         22.5004
 04  7  6 18 18 49.9980000  0  9G 3G 9G14G18G19G21G22G15G25
  22436748.5534     604972.12149    464823.51647                  22436746.7324
        44.7504         30.0004
  23437465.8344     678206.20349    524053.10146                  23437464.3184
        38.2504         22.0004
  19779155.0764   -3859394.68049  -2994369.94948                  19779151.9324
        49.2504         40.7504
  22563988.8504    1179229.57049    905480.71547                  22563986.1004
        45.2504         27.5004
  22279410.7874   -4468772.92649  -3464622.63047                  22279406.5104
        47.2504         32.2504
  23169929.2794    3681408.22349   2845814.42546                  23169927.7834
        44.0004         24.5004
  20820641.4754   -1214434.03149   -947249.57047                  20820636.5184
        50.5004         38.5004
  19766740.7014   -1297662.74249  -1009600.12448                  19766738.0534
        52.2504         40.5004
  23226648.9754   -5525976.68449  -4301412.08846                  23226647.6234
        44.5004         22.7504
 04  7  6 18 18 59.9980000  0  9G 3G 9G14G18G19G21G22G15G25
  22437705.4514     610003.35949    468743.97047                  22437704.4674
        43.5004         28.7504
  23438886.3974     685671.46949    529870.19946                  23438885.0184
        39.0004         22.5004
  19776315.2014   -3874319.68049  -3005999.81448                  19776311.4944
        47.7504         40.0004
  22564868.2324    1183851.58249    909082.30047                  22564865.1864
        45.5004         26.0004
  22276140.8344   -4485953.47749  -3478010.07147                  22276137.4004
        47.0004         32.5004
  23173472.9824    3700027.31349   2860322.79546                  23173470.7564
        45.2504         25.0004
  20819433.6784   -1220779.98449   -952194.46747                  20819429.2834
        50.2504         38.0004
  19766264.5534   -1300165.16849  -1011550.06548                  19766261.8574
        51.5004         40.0004
  23217302.2724   -5575094.82449  -4339685.97846                  23217300.8544
        44.0004         24.5004
 04  7  6 18 19  9.9980000  0  9G 3G 9G14G18G19G21G22G15G25
  22438667.2484     615054.83649    472680.16047                  22438665.9514
        45.0004         30.0004
  23440315.2404     693178.59449    535719.88446                  23440313.8264
        38.5004         22.5004
  19773482.0374   -3889205.73049  -3017599.34848                  19773478.8774
        48.5004         40.0004
  22565747.6154    1188470.45749    912681.39347                  22565744.3774
        45.0004         27.2504
  22272880.8504   -4503086.32049  -3491360.34947                  22272877.0024
        46.2504         32.2504
  23177017.5764    3718657.57049   2874839.82246                  23177015.7294
        45.0004         24.2504
  20818226.7874   -1227124.46549   -957138.22647                  20818222.0254
        50.7504         37.7504
  19765796.6704   -1302623.67249  -1013465.79248                  19765794.2954
        51.7504         39.5004
  23207953.7954   -5624220.32449  -4377965.55046                  23207952.3974
        44.0004         23.7504
 04  7  6 18 19 19.9980000  0  9G 3G 9G14G18G19G21G22G15G25
  22439631.3974     620123.83649    476630.04847                  22439630.6894
        44.5004         28.0004
  23441750.8814     700725.09849    541600.24946                  23441750.2324
        38.0004         25.0004
  19770656.5534   -3904055.30549  -3029170.43148                  19770652.7524
        48.5004         40.0004
  22566625.6624    1193083.79749    916276.20246                  22566621.7994
        45.0004         25.2504
  22269629.2564   -4520173.79749  -3504675.27947                  22269625.7014
        44.5004         31.7504
  23180565.0924    3737296.69949   2889363.76746                  23180562.9984
        44.2504         23.2504
  20817019.0844   -1233469.85949   -962082.69547                  20817014.1864
        50.0004         37.0004
  19765336.8114   -1305040.69149  -1015349.17447                  19765334.3894
        51.5004         39.0004
  23198603.8184   -5673355.42249  -4416252.58746                  23198601.9634
        44.2504         24.5004
 04  7  6 18 19 29.9980000  0  9G 3G 9G14G18G19G21G22G15G25
  22440600.4904     625214.43049    480596.68947                  22440599.5764
        43.0004         29.0004
  23443195.7324     708314.93049    547514.40146                  23443194.7794
        41.7504         25.0004
  19767838.7254   -3918864.39849  -3040709.99248                  19767835.0884
        48.0004         40.2504
  22567503.1474    1197695.58649    919869.77447                  22567499.1114
        45.0004         26.2504
  22266386.7014   -4537211.94949  -3517951.77247                  22266383.0024
        46.5004         33.0004
  23184114.2094    3755948.62549   2903897.68546                  23184112.5184
        44.5004         22.7504
  20815812.2014   -1239812.08649   -967024.69147                  20815807.6434
        50.0004         37.7504
  19764885.7014   -1307412.12149  -1017197.06148                  19764882.9244
        52.0004         40.2504
  23189252.9044   -5722495.93749  -4454543.91146                  23189251.1434
        44.0004         25.2504
 04  7  6 18 19 39.9980000  0  9G 3G 9G14G18G19G21G22G15G25
  22441573.1234     630324.53149    484578.59747                  22441571.7524
        44.7504         29.5004
  23444648.1474     715946.06349    553460.72446                  23444646.8614
        40.0004         25.5004
  19765027.7794   -3933634.95749  -3052219.51348                  19765024.2954
        48.7504         40.5004
  22568379.9594    1202303.88749    923460.64947                  22568376.0924
        46.0004         26.2504
  22263153.6784   -4554202.68749  -3531191.31647                  22263150.3074
        45.0004         31.7504
  23187665.6864    3774611.27049   2918439.97546                  23187664.0804
        44.0004         23.0004
  20814605.6934   -1246153.16849   -971965.79447                  20814600.9514
        50.0004         37.7504
  19764442.5064   -1309739.96149  -1019010.96348                  19764439.9824
        51.7504         40.0004
  23179900.2174   -5771643.78949  -4492840.92646                  23179898.7254
        44.5004         22.5004
 04  7  6 18 19 49.9980000  0  9G 3G 9G14G18G19G21G22G15G25
  22442549.5064     635455.45349    488576.67647                  22442548.0684
        43.5004         30.0004
  23446107.9204     723619.85249    559440.27046                  23446106.7834
        37.2504         25.5004
  19762224.0684   -3948365.65649  -3063697.99448                  19762221.1074
        48.5004         41.0004
  22569256.5614    1206910.12949    927049.90947                  22569253.2994
        45.0004         28.2504
  22259929.9124   -4571144.71949  -3544392.90647                  22259926.2874
        45.2504         32.7504
  23191219.4044    3793286.07049   2932991.71746                  23191218.1504
        43.2504         24.5004
  20813399.4204   -1252491.69949   -976904.93747                  20813394.4754
        50.7504         38.2504
  19764008.0924   -1312022.82849  -1020789.83748                  19764005.5224
        51.0004         41.2504
  23170546.4674   -5820797.54349  -4531142.53646                  23170544.9634
        43.7504         22.5004
 04  7  6 18 19 59.9980000  0  9G 3G 9G14G18G19G21G22G15G25
  22443529.3034     640605.36349    492589.59147                  22443527.7214
        44.5004         28.5004
  23447576.2094     731334.42649    565451.57946                  23447575.1114
        42.0004         24.7504
  19759428.8654   -3963058.18449  -3075146.72148                  19759424.9824
        49.5004         41.0004
  22570132.2564    1211512.58649    930636.22947                  22570128.9044
        45.0004         26.5004
  22256714.7174   -4588039.74249  -3557557.86447                  22256711.1004
        46.5004         32.5004
  23194775.5924    3811971.18049   2947551.49446                  23194773.4904
        44.2504         23.5004
  20812193.5764   -1258829.33249   -981843.35147                  20812188.4514
        50.0004         38.5004
  19763581.8574   -1314262.44549  -1022534.99548                  19763579.3614
        52.5004         40.5004
  23161191.0224   -5869958.76649  -4569449.92646                  23161189.6744
        43.5004         23.5004
 04  7  6 18 20  9.9980000  0  9G 3G 9G14G18G19G21G22G15G25
  22444513.2874     645776.25849    496618.84747                  22444511.8544
        43.7504         29.0004
  23449052.4204     739091.78949    571496.30347                  23449050.8544
        39.0004         26.0004
  19756640.2094   -3977710.59849  -3086564.18048                  19756637.0614
        48.2504         40.5004
  22571007.6004    1216113.36349    934221.25747                  22571004.4824
        45.5004         26.5004
  22253509.0924   -4604885.66849  -3570684.57247                  22253505.1824
        45.5004         32.2504
  23198333.3814    3830668.47749   2962120.80246                  23198331.0454
        43.0004         23.2504
  20810987.9434   -1265164.05149   -986779.49447                  20810983.4754
        50.0004         37.7504
  19763164.4124   -1316456.71549  -1024244.82848                  19763161.6974
        51.5004         40.0004
  23151834.4364   -5919125.34049  -4607761.54246                  23151833.8264
        42.5004         22.5004
 04  7  6 18 20 19.9980000  0  9G 3G 9G14G18G19G21G22G15G25
  22445501.2794     650967.07449    500663.63447                  22445499.6474
        44.2504         28.7504
  23450536.4364     746891.03149    577573.60246                  23450535.5844
        42.0004         25.0004
  19753859.3264   -3992323.84449  -3097951.12648                  19753856.1004
        49.2504         40.5004
  22571882.7254    1220711.51249    937804.21347                  22571879.9204
        45.2504         27.0004
  22250312.6154   -4621683.47749  -3583773.78447                  22250308.6664
        45.7504         32.5004
  23201893.0064    3849377.10249   2976698.91846                  23201891.3974
        42.7504         22.0004
  20809783.0614   -1271496.73449   -991714.05347                  20809778.2014
        50.2504         37.7504
  19762755.1394   -1318606.57049  -1025920.03448                  19762752.6894
        52.0004         40.5004
  23142478.0844   -5968298.02349  -4646077.90346                  23142476.7724
        43.0004         22.7504
 04  7  6 18 20 29.9980000  0  9G 3G 9G14G18G19G21G22G15G25
  22446492.7564     656177.48849    504723.67647                  22446491.5614
        45.5004         29.2504
  23452028.7644     754731.72349    583683.23646                  23452027.3144
        42.5004         25.5004
  19751085.9594   -4006898.25049  -3109307.81548                  19751082.7724
        49.5004         40.0004
  22572756.8894    1225306.86749    941384.99647                  22572754.6934
        45.0004         27.0004
  22247125.3424   -4638433.40249  -3596825.67447                  22247121.5224
        46.5004         32.0004
  23205454.9674    3868096.71549   2991285.57646                  23205453.6934
        42.7504         21.7504
  20808578.1934   -1277827.64549   -996647.23947                  20808573.5614
        50.5004         37.2504
  19762354.4904   -1320712.27349  -1027560.85548                  19762351.8344
        52.0004         40.0004
  23133119.3894   -6017476.95749  -4684399.12446                  23133117.8424
        42.7504         22.0004
 04  7  6 18 20 39.9980000  0  9G 3G 9G14G18G19G21G22G15G25
  22447488.1934     661408.30549    508799.63547                  22447487.4944
        43.5004         29.7504
  23453528.7564     762614.80949    589825.90447                  23453527.7724
        40.5004         26.5004
  19748320.1234   -4021432.85949  -3120633.49148                  19748316.9554
        48.0004         40.7504
  22573630.8974    1229900.28149    944964.25247                  22573628.6274
        45.2504         27.0004
  22243946.8504   -4655134.52749  -3609839.56647                  22243943.0534
        45.7504         32.5004
  23209019.8034    3886828.18049   3005881.46046                  23209018.0374
        43.0004         22.7504
  20807374.0294   -1284155.82849  -1001578.29247                  20807369.2724
        50.7504         37.5004
  19761962.4754   -1322772.87149  -1029166.52448                  19761959.9474
        51.2504         40.5004
  23123759.3814   -6066661.10549  -4722724.41746                  23123758.3614
        42.2504         21.5004
 04  7  6 18 20 49.9980000  0  9G 3G 9G14G18G19G21G22G15G25
  22448487.2174     666658.43449    512890.62647                  22448486.3424
        44.2504         29.0004
  23455036.0764     770539.09049    596000.63847                  23455035.7874
        39.5004         25.7504
  19745561.6004   -4035928.75049  -3131928.98348                  19745558.3384
        48.5004         41.0004
  22574504.7014    1234490.74249    948541.21847                  22574502.0804
        44.2504         27.0004
  22240777.6474   -4671787.91849  -3622816.22147                  22240774.4754
        45.7504         32.2504
  23212586.5064    3905570.40649   3020485.79046                  23212584.4754
        41.5004         22.2504
  20806169.8814   -1290482.34449  -1006508.04447                  20806165.5924
        50.5004         37.2504
  19761578.5534   -1324789.52049  -1030737.94148                  19761576.3694
        51.7504         40.7504
  23114398.5224   -6115851.40249  -4761054.47246                  23114397.7724
        42.7504         21.7504
 04  7  6 18 20 59.9980000  0  9G 3G 9G14G18G19G21G22G15G25
  22449489.6314     671926.75049    516995.78847                  22449488.3504
        44.5004         29.2504
  23456552.1314     778503.39149    602206.56447                  23456550.7134
        41.5004         27.7504
  19742810.4364   -4050387.04349  -3143195.18548                  19742807.0684
        49.2504         41.0004
  22575377.7404    1239077.21549    952115.07047                  22575374.6824
        45.0004         27.7504
  22237617.7404   -4688394.60249  -3635756.51247                  22237613.9984
        46.5004         33.0004
  23216154.4124    3924322.26649   3035097.58146                  23216152.8654
        40.5004         22.0004
  20804966.2094   -1296808.15249  -1011437.25147                  20804961.4244
        50.5004         37.7504
  19761203.1004   -1326763.19949  -1032275.87948                  19761200.8114
        51.5004         41.0004
  23105037.2174   -6165048.73849  -4799390.04246                  23105035.4164
        42.5004         22.5004
 04  7  6 18 21  9.9980000  0  9G 3G 9G14G18G19G21G22G15G25
  22450496.1154     677214.38749    521116.01447                  22450494.2684
        45.0004         29.2504
  23458075.3264     786508.96149    608444.68047                  23458074.2564
        40.5004         26.0004
  19740066.6234   -4064806.52049  -3154431.15048                  19740063.3934
        49.2504         41.2504
  22576249.8574    1243661.10249    955686.91547                  22576247.0924
        44.5004         26.5004
  22234466.8574   -4704953.35549  -3648659.45547                  22234463.2644
        46.0004         32.7504
  23219724.3574    3943084.89849   3049717.74646                  23219723.3424
        41.2504         22.0004
  20803763.1154   -1303132.07449  -1016365.00047                  20803758.2364
        49.7504         38.2504
  19760835.6394   -1328692.68049  -1033779.38148                  19760833.1354
        51.0004         40.5004
  23095673.6624   -6214251.82049  -4837730.13546                  23095671.9714
        43.5004         21.5004
 04  7  6 18 21 19.9980000  0  9G 3G 9G14G18G19G21G22G15G25
  22451505.8894     682521.64149    525251.53447                  22451504.3384
        45.5004         28.7504
  23459606.6234     794556.25049    614715.30247                  23459605.9794
        40.7504         26.2504
  19737329.9124   -4079186.74249  -3165636.51748                  19737326.8034
        49.5004         41.0004
  22577121.4124    1248242.73449    959256.99847                  22577118.9164
        45.2504         27.7504
  22231325.2014   -4721463.73849  -3661524.68947                  22231321.7484
        47.0004         32.5004
  23223297.6934    3961858.83249   3064346.70346                  23223295.2914
        40.7504         22.2504
  20802559.7644   -1309453.63349  -1021290.88547                  20802555.2724
        50.5004         37.5004
  19760477.1544   -1330577.46949  -1035248.05648                  19760474.7444
        50.7504         40.5004
  23086310.0294   -6263460.12949  -4876074.26046                  23086308.4674
        43.0004         22.0004
 04  7  6 18 21 29.9980000  0  9G 3G 9G14G18G19G21G22G15G25
  22452519.5844     687849.09849    529402.78347                  22452518.1004
        44.7504         29.0004
  23461146.0374     802645.83249    621018.79946                  23461145.2254
        39.0004         25.5004
  19734601.3344   -4093527.09049  -3176810.81948                  19734597.9324
        49.2504         40.5004
  22577993.6004    1252822.73449    962825.79447                  22577990.7404
        44.5004         27.0004
  22228192.2324   -4737925.15649  -3674351.77047                  22228188.7524
        46.7504         31.2504
  23226872.2094    3980644.63749   3078984.99046                  23226870.6504
        41.2504         22.0004
  20801357.2644   -1315772.14149  -1026214.38947                  20801352.7564
        50.7504         37.5004
  19760127.2724   -1332416.93749  -1036681.41048                  19760124.6434
        50.7504         40.2504
  23076945.7404   -6312672.84849  -4914421.82646                  23076943.4284
        43.5004         22.2504
 04  7  6 18 21 39.9980000  0  9G 3G 9G14G18G19G21G22G15G25
  22453537.1624     693195.84449    533569.07447                  22453535.2914
        44.0004         29.0004
  23462693.9824     810776.66049    627354.53846                  23462692.0534
        42.5004         22.7504
  19731879.6934   -4107828.41849  -3187954.71548                  19731876.6074
        48.7504         40.5004
  22578863.9514    1257400.42249    966392.82847                  22578861.7444
        45.0004         27.2504
  22225069.1624   -4754338.32849  -3687141.26847                  22225065.4824
        46.2504         32.2504
  23230449.4674    3999441.50049   3093631.83246                  23230447.6074
        41.0004         21.7504
  20800155.4204   -1322088.41049  -1031136.16947                  20800150.8974
        50.2504         37.5004
  19759785.4364   -1334211.90249  -1038080.09648                  19759783.1434
        51.5004         40.0004
  23067579.6934   -6361890.70749  -4952773.39346                  23067577.6234
        43.5004         22.2504
 04  7  6 18 21 49.9980000  0  9G 3G 9G14G18G19G21G22G15G25
  22454558.3814     698561.37149    537749.97147                  22454556.8734
        44.7504         29.5004
  23464248.7324     818948.33249    633722.05346                  23464246.6624
        43.0004         25.2504
  19729165.3654   -4122091.25849  -3199068.60948                  19729162.2834
        49.0004         41.0004
  22579734.9284    1261975.31349    969957.65947                  22579732.4984
        45.0004         28.0004
  22221955.0614   -4770703.79349  -3699893.59147                  22221951.2094
        47.5004         32.5004
  23234028.6544    4018248.87149   3108286.90646                  23234026.4714
        39.0004         21.0004
  20798954.2094   -1328402.89849  -1036056.55347                  20798949.4514
        50.2504         37.7504
  19759452.5144   -1335962.85249  -1039444.48748                  19759449.9944
        51.0004         40.5004
  23058211.7724   -6411114.08249  -4991129.21646                  23058210.9394
        43.7504         23.0004
 04  7  6 18 21 59.9980000  0  9G 3G 9G14G18G19G21G22G15G25
  22455583.0924     703947.11749    541946.64747                  22455581.7834
        45.7504         29.0004
  23465811.6624     827162.28149    640122.56246                  23465809.9434
        41.5004         25.0004
  19726459.1394   -4136314.05549  -3210151.30748                  19726455.7994
        49.0004         40.5004
  22580605.3504    1266549.07849    973521.61747                  22580602.9244
        44.7504         26.5004
  22218850.1234   -4787019.97749  -3712607.51147                  22218846.4204
        47.2504         32.2504
  23237609.7874    4037068.18849   3122951.26846                  23237607.6114
        39.2504         19.2504
  20797752.8974   -1334714.02049  -1040974.32347                  20797748.2094
        50.7504         37.5004
  19759127.9514   -1337668.14849  -1040773.28348                  19759125.4434
        51.2504         40.5004
  23048844.7094   -6460341.18049  -5029487.98446                  23048843.5064
        43.5004         22.5004
 04  7  6 18 22  9.9980000  0  9G 3G 9G14G18G19G21G22G15G25
  22456611.7014     709351.84449    546158.12347                  22456610.5574
        45.2504         29.7504
  23467381.8034     835417.17649    646554.90546                  23467380.7644
        40.5004         24.5004
  19723760.1474   -4150498.04349  -3221203.76748                  19723756.6434
        48.7504         41.0004
  22581475.0064    1271120.43049    977083.68747                  22581472.2014
        45.0004         27.7504
  22215754.4594   -4803288.10949  -3725283.97647                  22215750.8504
        46.5004         32.7504
  23241192.9044    4055898.18049   3137623.94046                  23241190.3114
        40.0004         18.5004
  20796552.5144   -1341022.91449  -1045890.35247                  20796547.6624
        51.5004         38.5004
  19758811.8184   -1339329.03549  -1042067.49348                  19758809.3424
        51.0004         40.5004
  23039476.0684   -6509573.18749  -5067850.59946                  23039474.7604
        43.7504         22.5004
 04  7  6 18 22 19.9980000  0  9G 3G 9G14G18G19G21G22G15G25
  22457644.0064     714775.83249    550384.56847                  22457642.4754
        45.2504         28.5004
  23468961.6074     843713.53149    653019.59846                  23468959.3974
        41.7504         24.0004
  19721068.5064   -4164642.82849  -3232225.68448                  19721064.6704
        50.0004         41.0004
  22582344.8114    1275689.95749    980644.34147                  22582342.1154
        43.7504         26.7504
  22212667.8424   -4819507.71949  -3737922.64547                  22212664.2994
        46.0004         32.5004
  23244778.2174    4074739.27749   3152305.26346                  23244775.6474
        38.7504         19.7504
  20795352.3734   -1347329.18049  -1050804.33047                  20795347.7564
        50.7504         38.5004
  19758504.3264   -1340945.11749  -1043326.79348                  19758501.7644
        51.2504         40.2504
  23030106.8814   -6558809.48849  -5106216.55346                  23030105.6704
        44.2504         22.7504
 04  7  6 18 22 29.9980000  0  9G 3G 9G14G18G19G21G22G15G25
  22458679.1704     720217.62149    554624.91747                  22458678.2444
        45.5004         29.5004
  23470547.9674     852049.82449    659515.39446                  23470545.8894
        41.7504         23.2504
  19718383.6544   -4178749.77749  -3243218.11748                  19718380.4904
        50.0004         41.0004
  22583213.8034    1280256.14549    984202.39847                  22583211.4164
        44.0004         26.0004
  22209590.6784   -4835680.25849  -3750524.64047                  22209586.7054
        46.0004         33.0004
  23248365.3894    4093590.11749   3166994.16446                  23248363.2794
        38.2504         19.5004
  20794152.5844   -1353634.17649  -1055717.32247                  20794148.0574
        50.5004         38.0004
  19758205.0454   -1342517.71149  -1044552.19248                  19758202.6004
        51.0004         40.0004
  23020736.6004   -6608051.38349  -5144586.81646                  23020734.6744
        43.5004         22.7504
 04  7  6 18 22 39.9980000  0  9G 3G 9G14G18G19G21G22G15G25
  22459718.6154     725678.94949    558880.47847                  22459717.2054
        44.7504         29.5004
  23472142.1934     860427.85249    666043.73246                  23472140.3464
        42.5004         23.5004
  19715706.8344   -4192817.09849  -3254179.65648                  19715703.7404
        49.7504         40.2504
  22584082.3184    1284820.82449    987759.27447                  22584079.6314
        43.2504         26.7504
  22206522.1474   -4851803.88749  -3763088.50247                  22206518.5644
        46.2504         33.0004
  23251954.7324    4112452.42249   3181692.07446                  23251952.5964
        38.2504         19.2504
  20792953.6074   -1359935.95749  -1060627.79647                  20792949.2174
        51.0004         38.0004
  19757914.5064   -1344045.03149  -1045742.31248                  19757911.7994
        51.2504         40.0004
  23011365.3654   -6657296.92249  -5182959.96146                  23011364.1504
        44.2504         24.7504
 04  7  6 18 22 49.9980000  0  9G 3G 9G14G18G19G21G22G15G25
  22460761.4514     731158.62149    563150.35147                  22460760.2724
        45.5004         28.7504
  23473744.1394     868846.36749    672603.61446                  23473742.5414
        43.0004         22.2504
  19713037.1784   -4206845.97349  -3265111.25448                  19713033.7954
        49.5004         40.5004
  22584950.3504    1289382.92649    991314.13947                  22584947.8574
        43.0004         26.5004
  22203462.9124   -4867879.68749  -3775615.10747                  22203459.5144
        45.0004         32.0004
  23255546.5224    4131324.91449   3196397.86746                  23255543.3614
        38.0004         19.0004
  20791754.6544   -1366235.75449  -1065536.73847                  20791750.0224
        50.0004         37.0004
  19757632.2724   -1345528.14549  -1046897.98647                  19757630.1744
        51.2504         39.0004
  23001993.6154   -6706547.05949  -5221336.69446                  23001992.2054
        45.0004         24.5004
 04  7  6 18 22 59.9980000  0  9G 3G 9G14G18G19G21G22G15G25
  22461807.7874     736657.28549    567435.04347                  22461805.9204
        46.0004         28.5004
  23475353.5374     877305.99649    679195.52346                  23475351.9864
        42.2504         22.2504
  19710375.0224   -4220835.70349  -3276012.33448                  19710372.1154
        49.5004         40.2504
  22585817.9674    1293943.12549    994867.54247                  22585815.3464
        42.5004         26.5004
  22200413.2954   -4883906.97349  -3788103.90447                  22200409.8464
        45.5004         32.7504
  23259139.7954    4150208.34049   3211112.13546                  23259137.1664
        39.0004         19.2504
  20790556.3734   -1372532.77349  -1070443.49247                  20790551.9434
        50.5004         37.5004
  19757358.5294   -1346966.37949  -1048018.69248                  19757356.1234
        51.0004         39.7504
  22992620.9594   -6755800.91049  -5259716.28046                  22992619.4364
        45.0004         25.2504
 04  7  6 18 23  9.9980000  0  9G 3G 9G14G18G19G21G22G15G25
  22462857.7404     742176.30949    571735.54147                  22462856.3814
        45.7504         29.5004
  23476971.2794     885808.14549    685820.55746                  23476969.5294
        42.5004         23.2504
  19707720.8654   -4234784.86749  -3286881.83148                  19707717.1894
        49.2504         40.5004
  22586685.8574    1298502.93449    998420.61147                  22586683.0334
        43.2504         26.7504
  22197372.8114   -4899884.28149  -3800553.78647                  22197369.3424
        45.5004         32.7504
  23262736.0144    4169104.08649   3225836.05046                  23262733.3184
        40.0004         19.2504
  20789359.1474   -1378825.55149  -1075346.97747                  20789354.1934
        50.0004         38.0004
  19757093.3814   -1348358.28549  -1049103.31548                  19757091.1894
        51.0004         40.5004
  22983247.9124   -6805057.00049  -5298097.64146                  22983246.4944
        45.0004         25.0004
 04  7  6 18 23 19.9980000  0  9G 3G 9G14G18G19G21G22G15G25
  22463911.8424     747714.16449    576050.75247                  22463910.4674
        46.7504         30.0004
  23478596.9754     894351.36349    692477.58246                  23478595.7134
        42.0004         22.5004
  19705073.8264   -4248694.88749  -3297720.79848                  19705070.5644
        49.7504         41.0004
  22587553.1624    1303061.07049   1001972.39347                  22587550.9324
        42.2504         26.7504
  22194341.4984   -4915813.01649  -3812965.77847                  22194338.0454
        44.2504         32.0004
  23266333.4514    4188010.79749   3240568.52046                  23266331.3654
        39.0004         19.5004
  20788161.9204   -1385115.46949  -1080248.20847                  20788157.4204
        50.0004         37.0004
  19756837.4364   -1349705.23849  -1050152.87548                  19756834.7724
        51.2504         40.2504
  22973873.9204   -6854316.48449  -5336481.65047                  22973872.5534
        44.5004         26.0004
 04  7  6 18 23 29.9980000  0  9G 3G 9G14G18G19G21G22G15G25
  22464969.6314     753270.83649    580380.58647                  22464967.9634
        45.7504         30.7504
  23480230.8974     902935.63749    699166.66146                  23480229.5534
        40.5004         22.5004
  19702434.3424   -4262565.88749  -3308529.38348                  19702431.0644
        49.5004         41.0004
  22588420.3574    1307617.50449   1005522.83447                  22588417.8114
        42.5004         26.5004
  22191320.1314   -4931693.17249  -3825339.93247                  22191316.1354
        45.7504         32.2504
  23269933.7094    4206928.36749   3255309.42846                  23269930.9674
        39.2504         21.5004
  20786965.9904   -1391402.54349  -1085147.24547                  20786961.1784
        50.2504         37.7504
  19756589.3974   -1351007.20349  -1051167.41248                  19756587.0724
        51.0004         40.5004
  22964499.3894   -6903579.45349  -5374868.38447                  22964498.0804
        45.2504         27.2504
 04  7  6 18 23 39.9980000  0  9G 3G 9G14G18G19G21G22G15G25
  22466029.8814     758844.20349    584723.46547                  22466028.7294
        46.7504         30.2504
  23481872.1704     911558.91449    705886.03346                  23481870.3384
        40.7504         22.0004
  19699801.6784   -4276399.79349  -3319309.04448                  19699798.4004
        49.2504         41.2504
  22589286.9754    1312170.24649   1009070.41147                  22589284.2644
        42.5004         26.7504
  22188306.3974   -4947526.83249  -3837677.86347                  22188303.1824
        45.0004         32.2504
  23273535.0064    4225854.75449   3270057.27546                  23273532.7564
        41.0004         22.0004
  20785769.4514   -1397688.68449  -1090045.53447                  20785764.9004
        50.5004         37.5004
  19756350.2644   -1352266.23049  -1052148.48548                  19756347.4324
        51.0004         40.0004
  22955123.8894   -6952847.68049  -5413259.18047                  22955123.5144
        45.0004         26.7504
 04  7  6 18 23 49.9980000  0  9G 3G 9G14G18G19G21G22G15G25
  22467093.9124     764434.87949    589079.81847                  22467092.4004
        46.7504         30.0004
  23483520.6624     920221.73449    712636.31146                  23483518.6934
        40.5004         21.7504
  19697176.4904   -4290195.94949  -3330059.28748                  19697172.8034
        49.2504         40.5004
  22590152.8734    1316720.06349   1012615.70147                  22590150.3504
        43.2504         26.7504
  22185302.5924   -4963313.16449  -3849978.90447                  22185299.3464
        45.2504         32.0004
  23277137.9754    4244790.64549   3284812.48146                  23277136.7524
        40.0004         22.0004
  20784573.5844   -1403973.13749  -1094942.50947                  20784569.1584
        50.7504         37.2504
  19756118.7724   -1353481.59849  -1053095.52348                  19756116.4324
        51.0004         39.7504
  22945747.8034   -7002120.35249  -5451653.43146                  22945747.3114
        45.2504         25.5004
 04  7  6 18 23 59.9980000  0  9G 3G 9G14G18G19G21G22G15G25
  22468160.9044     770042.48049    593449.33747                  22468160.0104
        46.2504         30.0004
  23485176.1004     928923.85249    719417.22146                  23485175.0684
        40.0004         21.5004
  19694557.9904   -4303954.60249  -3340780.32048                  19694554.7444
        49.5004         41.2504
  22591017.7254    1321266.71549   1016158.54146                  22591015.0224
        42.5004         25.5004
  22182307.4434   -4979052.57849  -3862243.39547                  22182304.3544
        46.0004         32.0004
  23280743.5684    4263735.70349   3299574.83346                  23280741.3774
        40.5004         21.0004
  20783377.8734   -1410256.26249  -1099838.45847                  20783373.4394
        49.7504         38.0004
  19755895.7724   -1354653.59449  -1054008.77748                  19755893.1584
        51.0004         40.0004
  22936370.7724   -7051397.57049  -5490051.28047                  22936369.4674
        44.7504         26.2504
 04  7  6 18 24  9.9980000  0  9G 3G 9G14G18G19G21G22G15G25
  22469231.2874     775668.14549    597832.97747                  22469230.5764
        46.0004         30.0004
  23486839.3264     937666.39549    726229.59346                  23486839.0454
        39.7504         19.5004
  19691947.4204   -4317674.59049  -3351471.21048                  19691944.1664
        49.7504         40.0004
  22591882.4124    1325811.43849   1019699.88846                  22591879.5724
        42.7504         25.2504
  22179321.7484   -4994743.80549  -3874470.31247                  22179318.3654
        45.5004         31.7504
  23284351.0144    4282691.04749   3314345.17646                  23284348.8614
        39.5004         21.0004
  20782182.7254   -1416536.77749  -1104732.35747                  20782177.9984
        50.0004         37.7504
  19755680.9984   -1355780.94549  -1054887.21348                  19755678.5844
        50.5004         40.0004
  22926992.9044   -7100677.95749  -5528451.54947                  22926992.0614
        44.0004         26.0004
 04  7  6 18 24 19.9980000  0  9G 3G 9G14G18G19G21G22G15G25
  22470305.4124     781312.37949    602231.07047                  22470304.5884
        46.0004         30.7504
  23488511.3184     946449.72749    733073.70346                  23488510.0454
        40.0004         19.5004
  19689344.2954   -4331355.41849  -3362131.60448                  19689340.9164
        49.5004         40.5004
  22592747.2794    1330354.79749   1023240.09946                  22592744.4824
        43.2504         25.5004
  22176345.0534   -5010386.21149  -3886659.22447                  22176341.5884
        47.0004         33.2504
  23287960.2324    4301657.10249   3329123.94446                  23287957.9794
        41.0004         22.0004
  20780988.3344   -1422814.10949  -1109623.80047                  20780983.7954
        50.7504         38.7504
  19755475.5374   -1356863.14149  -1055730.51448                  19755472.9004
        51.0004         40.0004
  22917614.2794   -7149960.93449  -5566853.85347                  22917613.5644
        44.5004         27.0004
 04  7  6 18 24 29.9980000  0  9G 3G 9G14G18G19G21G22G15G25
  22471382.8974     786974.26249    606642.92747                  22471381.9824
        46.7504         30.5004
  23490189.7564     955273.08649    739949.01846                  23490188.8344
        39.7504         19.2504
  19686747.7954   -4344997.95749  -3372762.15648                  19686744.8144
        49.2504         40.5004
  22593611.2094    1334896.00849   1026778.73347                  22593609.3734
        43.5004         26.0004
  22173377.4204   -5025980.68749  -3898810.76847                  22173373.9634
        46.5004         32.2504
  23291570.9824    4320633.20749   3343910.37446                  23291568.7604
        39.5004         22.5004
  20779793.9434   -1429088.99249  -1114513.31047                  20779789.6154
        50.5004         38.0004
  19755277.9984   -1357900.93749  -1056539.18648                  19755275.5884
        51.0004         40.0004
  22908235.5064   -7199247.10249  -5605258.63147                  22908234.4164
        44.5004         26.5004
 04  7  6 18 24 39.9980000  0  9G 3G 9G14G18G19G21G22G15G25
  22472463.8734     792654.18049    611068.78947                  22472462.5684
        46.0004         31.0004
  23491876.8424     964136.82449    746855.74246                  23491875.4394
        39.5004         18.2504
  19684159.1004   -4358601.77749  -3383362.54948                  19684155.8934
        49.7504         41.5004
  22594475.3424    1339435.56649   1030316.01947                  22594472.5614
        43.0004         26.7504
  22170419.5614   -5041526.83649  -3910924.68447                  22170415.4474
        46.7504         33.2504
  23295184.1474    4339619.59449   3358704.97346                  23295182.2524
        41.0004         21.5004
  20778600.6544   -1435361.00849  -1119400.61647                  20778595.8424
        50.7504         38.5004
  19755088.7954   -1358893.93449  -1057312.97348                  19755086.4514
        51.0004         40.0004
  22898857.0294   -7248536.00049  -5643665.55547                  22898854.8504
        44.2504         26.5004
 04  7  6 18 24 49.9980000  0  9G 3G 9G14G18G19G21G22G15G25
  22473548.1704     798353.58249    615509.86447                  22473547.3814
        46.5004         30.0004
  23493571.7094     973042.43049    753795.20746                  23493570.0804
        38.5004         19.2504
  19681578.0614   -4372165.23049  -3393931.47448                  19681574.6354
        50.0004         41.0004
  22595338.9204    1343975.11749   1033853.30347                  22595336.3574
        43.5004         26.5004
  22167470.3734   -5057023.07049  -3922999.67947                  22167466.6894
        47.0004         33.0004
  23298799.5924    4358617.89149   3373508.83346                  23298797.0764
        41.0004         22.0004
  20777408.0374   -1441628.58649  -1124284.45547                  20777403.0294
        50.2504         38.0004
  19754908.6474   -1359840.53549  -1058050.58648                  19754906.1114
        51.0004         39.7504
  22889477.1004   -7297825.90249  -5682073.28547                  22889475.7524
        44.2504         26.7504
 04  7  6 18 24 59.9980000  0  9G 3G 9G14G18G19G21G22G15G25
  22474635.8574     804070.45349    619964.57547                  22474635.0144
        47.0004         29.5004
  23495274.1544     981987.88749    760765.74746                  23495272.5844
        37.2504         18.2504
  19679003.9984   -4385690.44549  -3404470.59748                  19679001.0884
        49.7504         40.5004
  22596202.5294    1348512.58649   1037388.98147                  22596200.6274
        43.0004         27.0004
  22164530.5924   -5072471.37149  -3935037.31647                  22164526.8854
        46.0004         32.5004
  23302416.5224    4377626.06649   3388320.33946                  23302414.3264
        41.0004         21.7504
  20776215.8344   -1447893.64149  -1129166.31447                  20776211.1314
        50.5004         37.2504
  19754737.0374   -1360742.76249  -1058753.61548                  19754734.4124
        51.5004         39.5004
  22880097.2724   -7347118.71549  -5720483.22347                  22880095.2684
        44.0004         27.0004
 04  7  6 18 25  9.9980000  0  9G 3G 9G14G18G19G21G22G15G25
  22475727.0844     809803.32049    624431.72447                  22475726.5224
        46.2504         29.0004
  23496982.9594     990971.68449    767766.03146                  23496981.6114
        37.2504         16.7504
  19676437.6784   -4399178.85549  -3414981.05848                  19676434.1744
        50.0004         40.5004
  22597065.3654    1353046.68849   1040922.03946                  22597063.1584
        43.5004         25.5004
  22161599.8814   -5087873.10549  -3947038.67547                  22161595.6864
        47.0004         32.0004
  23306035.7324    4396642.58649   3403138.35246                  23306033.4674
        41.2504         22.5004
  20775023.8264   -1454157.57449  -1134047.31447                  20775019.5684
        50.7504         37.0004
  19754573.7954   -1361601.94549  -1059423.12348                  19754571.2644
        51.0004         39.7504
  22870715.7874   -7396415.60949  -5758896.36046                  22870714.9324
        44.0004         25.5004
 04  7  6 18 25 19.9980000  0  9G 3G 9G14G18G19G21G22G15G25
  22476821.5454     815553.67249    628912.52047                  22476820.1544
        46.5004         29.0004
  23498700.3734     999995.41049    774797.47346                  23498698.7094
        36.7504         17.2504
  19673878.1234   -4412628.86349  -3425461.57248                  19673874.8574
        50.0004         40.7504
  22597927.9674    1357578.97349   1044453.69546                  22597925.5494
        44.2504         25.0004
  22158678.2794   -5103226.68049  -3959002.50647                  22158674.8034
        47.0004         31.5004
  23309656.3034    4415669.08649   3417964.15846                  23309654.2834
        42.2504         22.0004
  20773831.9904   -1460418.64149  -1138926.05047                  20773827.7834
        50.5004         36.5004
  19754418.8424   -1362416.48849  -1060057.81747                  19754416.1624
        50.5004         39.0004
  22861334.6004   -7445714.88349  -5797311.35046                  22861332.7604
        44.0004         24.5004
 04  7  6 18 25 29.9980000  0  9G 3G 9G14G18G19G21G22G15G25
  22477918.4824     821320.88749    633406.41947                  22477917.5804
        46.2504         29.2504
  23500424.9594    1009058.39849    781859.58246                  23500423.1394
        37.2504         16.2504
  19671326.1004   -4426040.97349  -3435912.58648                  19671322.3114
        50.0004         40.7504
  22598790.3574    1362109.00449   1047983.53047                  22598787.5334
        44.0004         27.0004
  22155765.7954   -5118532.61349  -3970929.22747                  22155762.0494
        47.2504         33.0004
  23313278.0764    4434704.92649   3432797.27146                  23313276.7014
        41.2504         21.7504
  20772641.1154   -1466677.48449  -1143803.08647                  20772636.9364
        50.7504         38.0004
  19754272.2404   -1363186.91849  -1060658.18247                  19754269.7954
        50.5004         39.2504
  22851952.0614   -7495016.91449  -5835728.50146                  22851950.9594
        43.7504         24.2504
 04  7  6 18 25 39.9980000  0  9G 3G 9G14G18G19G21G22G15G25
  22479019.7954     827105.57049    637913.94547                  22479018.6584
        45.7504         28.2504
  23502157.2954    1018161.36749    788952.75846                  23502155.3264
        38.0004         17.2504
  19668781.0144   -4439414.57449  -3446333.56248                  19668777.4824
        50.0004         40.5004
  22599651.6784    1366637.35949   1051512.13247                  22599649.1824
        42.5004         26.2504
  22152862.0454   -5133790.30549  -3982818.34147                  22152858.4394
        45.7504         32.2504
  23316902.9434    4453750.78949   3447638.15546                  23316901.6194
        40.7504         21.5004
  20771450.9124   -1472933.36749  -1148677.80747                  20771446.5064
        51.0004         37.5004
  19754133.7254   -1363912.59849  -1061223.63947                  19754131.5064
        51.0004         39.2504
  22842570.4204   -7544320.97749  -5874147.24946                  22842568.7834
        44.7504         24.2504
 04  7  6 18 25 49.9980000  0  9G 3G 9G14G18G19G21G22G15G25
  22480123.8814     832907.03949    642434.54047                  22480122.7484
        46.5004         30.5004
  23503896.8654    1027303.58649    796076.58646                  23503895.2954
        37.0004         15.5004
  19666243.1704   -4452750.25449  -3456725.01048                  19666239.9594
        50.7504         41.5004
  22600512.9824    1371163.70349   1055039.10447                  22600510.8344
        43.5004         26.2504
  22149967.4364   -5149000.29749  -3994670.30247                  22149964.2794
        47.0004         33.0004
  23320528.9984    4472806.04349   3462486.35146                  23320526.9514
        41.2504         22.2504
  20770260.9364   -1479186.84449  -1153550.65947                  20770256.2754
        51.2504         38.5004
  19754004.0294   -1364594.13749  -1061754.73448                  19754001.5494
        51.2504         40.5004
  22833187.7564   -7593627.54749  -5912567.95346                  22833185.9244
        44.0004         25.0004
 04  7  6 18 25 59.9980000  0  9G 3G 9G14G18G19G21G22G15G25
  22481231.4434     838725.89549    646968.68047                  22481229.9904
        47.0004         29.0004
  23505644.3574    1036485.71549    803231.48046                  23505642.0414
        38.0004         15.5004
  19663712.7014   -4466047.39549  -3467086.41548                  19663709.5064
        50.0004         41.0004
  22601374.2174    1375688.68849   1058565.04947                  22601371.9044
        43.2504         26.0004
  22147082.5534   -5164161.96149  -4006484.59947                  22147079.1274
        46.7504         32.2504
  23324157.0144    4491871.35949   3477342.38146                  23324155.3344
        39.7504         22.7504
  20769071.4754   -1485437.20749  -1158421.07447                  20769066.7794
        51.0004         37.7504
  19753883.0534   -1365230.74249  -1062250.79048                  19753880.4674
        51.5004         40.0004
  22823804.4044   -7642935.71949  -5950989.89646                  22823803.1234
        44.5004         25.0004
 04  7  6 18 26  9.9980000  0  9G 3G 9G14G18G19G21G22G15G25
  22482341.9984     844562.54349    651516.72347                  22482340.3974
        46.5004         29.5004
  23507399.6394    1045708.02748    810417.72346                  23507397.2644
        35.5004         15.5004
  19661189.8574   -4479305.55949  -3477417.45448                  19661186.6744
        50.2504         40.5004
  22602234.8654    1380212.75849   1062090.29747                  22602232.2834
        43.7504         26.5004
  22144206.8424   -5179274.77049  -4018260.80347                  22144203.2294
        46.2504         32.5004
  23327786.6004    4510947.04749   3492206.52546                  23327785.4514
        40.2504         22.0004
  20767882.7324   -1491684.00849  -1163288.71647                  20767877.7684
        50.5004         37.5004
  19753770.4984   -1365822.03949  -1062711.54148                  19753768.2214
        50.7504         39.5004
  22814421.2404   -7692244.92249  -5989412.64246                  22814419.9434
        44.7504         25.5004
 04  7  6 18 26 19.9980000  0  9G 3G 9G14G18G19G21G22G15G25
  22483455.6784     850415.78949    656077.67447                  22483453.7094
        46.5004         29.0004
  23509161.5374    1054969.51648    817634.41046                  23509159.0144
        34.5004         16.2504
  19658674.3184   -4492525.85249  -3487718.98548                  19658670.8974
        49.5004         40.7504
  22603095.7484    1384734.85249   1065613.97247                  22603093.4394
        42.5004         27.2504
  22141339.8034   -5194339.85249  -4029999.84647                  22141336.3224
        46.2504         32.5004
  23331418.1624    4530032.04349   3507077.87346                  23331417.2404
        39.2504         21.0004
  20766694.6474   -1497928.27049  -1168154.37647                  20766689.8974
        50.2504         37.5004
  19753666.5924   -1366369.07449  -1063137.81148                  19753663.9284
        51.0004         39.5004
  22805037.4364   -7741556.19149  -6027836.98646                  22805036.3734
        44.2504         22.5004
 04  7  6 18 26 29.9980000  0  9G 3G 9G14G18G19G21G22G15G25
  22484572.6544     856285.56649    660651.52847                  22484571.0684
        46.0004         29.0004
  23510930.7014    1064270.06349    824881.57846                  23510929.6934
        37.0004         16.7504
  19656166.1074   -4505708.28149  -3497991.00548                  19656162.5614
        49.7504         40.2504
  22603955.8894    1389254.98449   1069136.13846                  22603953.3854
        43.0004         25.5004
  22138481.8424   -5209357.16049  -4041701.64147                  22138478.7364
        46.0004         31.7504
  23335051.4204    4549126.44949   3521956.66446                  23335050.5884
        40.0004         21.0004
  20765506.9674   -1504169.88349  -1173017.98147                  20765502.4394
        50.7504         36.7504
  19753570.8814   -1366871.82849  -1063529.55047                  19753568.1864
        50.7504         39.0004
  22795653.3264   -7790869.29349  -6066262.76346                  22795652.1864
        44.7504         23.7504
 04  7  6 18 26 39.9980000  0  9G 3G 9G14G18G19G21G22G15G25
  22485692.5454     862171.63749    665238.05247                  22485691.3424
        46.0004         29.5004
  23512708.4594    1073609.43849    832158.98846                  23512706.9864
        36.7504         16.7504
  19653664.4284   -4518853.03949  -3508233.68348                  19653660.8934
        50.0004         40.7504
  22604815.3734    1393773.07049   1072656.68647                  22604812.7324
        43.5004         26.7504
  22135633.3574   -5224326.85249  -4053366.35747                  22135629.7684
        45.5004         32.5004
  23338687.0684    4568229.87549   3536842.30646                  23338685.9164
        38.0004         21.5004
  20764319.7874   -1510409.02049  -1177879.65147                  20764314.7874
        50.7504         37.2504
  19753483.1784   -1367330.42649  -1063886.92448                  19753481.1314
        51.2504         39.5004
  22786269.3654   -7840184.29349  -6104690.01847                  22786267.7914
        44.5004         26.0004
 04  7  6 18 26 49.9980000  0  9G 3G 9G14G18G19G21G22G15G25
  22486816.2324     868075.46549    669838.41647                  22486814.8894
        46.0004         29.2504
  23514493.7484    1082989.12549    839467.82846                  23514491.8734
        38.2504         17.7504
  19651170.4044   -4531958.62149  -3518445.82948                  19651167.2684
        50.0004         40.0004
  22605675.2174    1398290.65649   1076176.88347                  22605672.5684
        43.5004         25.7504
  22132794.1624   -5239247.45349  -4064992.81147                  22132790.8574
        46.5004         32.5004
  23342324.7014    4587343.78949   3551736.20646                  23342323.0224
        39.0004         21.5004
  20763133.1314   -1516644.11749  -1182738.17847                  20763128.3034
        50.5004         37.2504
  19753404.8424   -1367743.35949  -1064208.69047                  19753402.3854
        51.0004         39.0004
  22776884.7954   -7889499.62949  -6143117.53647                  22776883.1894
        44.2504         26.0004
 04  7  6 18 26 59.9980000  0  9G 3G 9G14G18G19G21G22G15G25
  22487942.4044     873996.41849    674452.14147                  22487941.4824
        46.5004         29.5004
  23516287.0764    1092408.44149    846807.51646                  23516284.9824
        38.5004         17.7504
  19648683.8184   -4545025.60249  -3528627.90148                  19648680.5064
        49.5004         41.0004
  22606535.1004    1402807.16849   1079696.23347                  22606532.0374
        44.0004         26.5004
  22129964.2724   -5254119.62549  -4076581.52147                  22129960.5684
        46.2504         33.2504
  23345963.6234    4606467.71949   3566637.97446                  23345962.0644
        37.7504         22.0004
  20761947.3574   -1522875.67649  -1187593.94347                  20761942.7364
        51.0004         38.5004
  19753334.7794   -1368111.17649  -1064495.32448                  19753332.6624
        50.7504         40.2504
  22767500.1394   -7938815.60949  -6181545.56447                  22767498.5964
        44.7504         26.2504
 04  7  6 18 27  9.9980000  0  9G 3G 9G14G18G19G21G22G15G25
  22489072.8114     879934.34449    679079.06647                  22489071.9244
        45.5004         28.7504
  23518086.1624    1101867.42248    854178.12846                  23518085.3934
        35.7504         19.0004
  19646204.4824   -4558054.02749  -3538779.92048                  19646201.2684
        50.0004         40.7504
  22607394.1704    1407322.74649   1083214.82647                  22607391.3424
        44.2504         26.5004
  22127143.4754   -5268943.24649  -4088132.41047                  22127139.7604
        47.0004         33.2504
  23349604.8034    4625601.54749   3581547.42346                  23349602.7684
        40.2504         21.5004
  20760761.9364   -1529103.70749  -1192446.95947                  20760757.4674
        51.0004         38.2504
  19753273.2874   -1368433.91049  -1064746.80048                  19753270.8074
        51.0004         40.2504
  22758115.5374   -7988132.14149  -6219974.05146                  22758114.2174
        44.5004         24.5004
 04  7  6 18 27 19.9980000  0  9G 3G 9G14G18G19G21G22G15G25
  22490206.0294     885888.67249    683718.76847                  22490204.6434
        45.5004         27.2504
  23519893.3894    1111365.37149    861579.10746                  23519892.5184
        37.2504         18.5004
  19643732.8504   -4571044.44149  -3548902.31748                  19643729.2014
        50.0004         41.0004
  22608252.8344    1411836.84049   1086732.29546                  22608250.3694
        43.5004         25.5004
  22124331.7254   -5283718.79349  -4099645.82647                  22124327.8694
        46.2504         32.2504
  23353247.9594    4644744.70349   3596464.07846                  23353245.3034
        39.5004         20.2504
  20759577.3264   -1535328.73849  -1197297.63247                  20759572.5334
        50.7504         37.2504
  19753220.5454   -1368712.08649  -1064963.56647                  19753218.1974
        51.2504         39.2504
  22748730.4824   -8037449.66849  -6258403.28946                  22748729.4754
        43.7504         25.0004
 04  7  6 18 27 29.9980000  0  9G 3G 9G14G18G19G21G22G15G25
  22491342.3814     891859.87949    688371.67547                  22491341.2364
        45.2504         27.0004
  23521708.4824    1120902.81349    869010.89146                  23521707.7484
        36.7504         17.7504
  19641268.2174   -4583996.36349  -3558994.72448                  19641264.8034
        49.7504         40.7504
  22609111.8894    1416350.05149   1090249.08647                  22609109.4084
        43.7504         26.0004
  22121529.3264   -5298445.78549  -4111121.40947                  22121525.8504
        47.0004         32.2504
  23356892.1004    4663897.60249   3611388.39446                  23356889.6784
        39.2504         20.5004
  20758393.5374   -1541550.19149  -1202145.51947                  20758388.9324
        50.7504         38.0004
  19753176.2014   -1368945.12149  -1065145.15348                  19753173.6934
        51.5004         39.5004
  22739345.5374   -8086767.48449  -6296832.71646                  22739344.5924
        43.5004         22.0004
 04  7  6 18 27 39.9980000  0  9G 3G 9G14G18G19G21G22G15G25
  22492481.1074     897847.89549    693037.64347                  22492480.4434
        45.5004         27.2504
  23523530.4514    1130479.82049    876473.47746                  23523530.0724
        36.7504         16.2504
  19638810.5684   -4596909.76649  -3569057.10648                  19638807.5614
        50.0004         40.5004
  22609970.7954    1420862.40249   1093765.15947                  22609967.8464
        44.5004         26.0004
  22118736.1074   -5313124.24249  -4122559.16447                  22118732.5064
        47.0004         31.5004
  23360539.0764    4683060.28949   3626320.26746                  23360537.1434
        39.7504         20.5004
  20757210.4434   -1547767.95749  -1206990.53847                  20757205.7294
        50.7504         37.2504
  19753140.4904   -1369132.97749  -1065291.55747                  19753138.2054
        51.2504         39.0004
  22729960.7794   -8136085.45749  -6335262.26646                  22729959.3734
        44.0004         24.0004
 04  7  6 18 27 49.9980000  0  9G 3G 9G14G18G19G21G22G15G25
  22493624.1544     903852.48049    697716.48947                  22493623.1744
        45.5004         28.2504
  23525361.5224    1140096.01249    883966.60546                  23525359.7524
        37.5004         18.2504
  19636360.5614   -4609784.83649  -3579089.64748                  19636357.4554
        50.5004         40.5004
  22610829.1704    1425373.77349   1097280.52347                  22610826.4324
        45.0004         26.5004
  22115952.1074   -5327754.39549  -4133959.30647                  22115948.2754
        46.5004         32.7504
  23364186.7644    4702232.54249   3641259.68646                  23364185.5924
        39.0004         20.2504
  20756027.9284   -1553982.25449  -1211832.86347                  20756023.2644
        50.7504         38.0004
  19753113.2094   -1369275.83249  -1065402.86848                  19753111.0184
        51.0004         39.5004
  22720576.2254   -8185403.59449  -6373691.99546                  22720574.5724
        43.5004         25.2504
 04  7  6 18 27 59.9980000  0  9G 3G 9G14G18G19G21G22G15G25
  22494769.9754     909872.75449    702407.60747                  22494768.1314
        45.0004         26.2504
  23527198.3814    1149750.49249    891489.55746                  23527196.9714
        37.5004         18.2504
  19633917.8654   -4622622.38749  -3589092.93848                  19633914.3974
        50.5004         40.5004
  22611687.4594    1429883.34049   1100794.46746                  22611684.2254
        43.2504         25.0004
  22113177.7174   -5342336.93049  -4145322.33247                  22113173.3974
        46.7504         32.7504
  23367838.2794    4721413.62149   3656205.97046                  23367835.6664
        38.0004         20.7504
  20754846.0064   -1560193.81249  -1216673.04547                  20754841.1974
        51.2504         37.5004
  19753094.4754   -1369374.49249  -1065479.75347                  19753092.3264
        51.2504         39.0004
  22711191.0064   -8234722.56249  -6412122.35146                  22711189.2954
        44.5004         23.7504
 04  7  6 18 28  9.9980000  0  9G 3G 9G14G18G19G21G22G15G25
  22495918.7324     915910.44949    707112.29047                  22495917.3114
        45.2504         28.0004
  23529043.2094    1159445.19549    899043.83546                  23529040.9794
        36.7504         19.0004
  19631482.0924   -4635420.52049  -3599065.50248                  19631479.0574
        50.0004         41.0004
  22612545.3424    1434393.00849   1104308.49047                  22612542.5684
        43.7504         27.7504
  22110411.5374   -5356870.03949  -4156646.82747                  22110408.0804
        46.2504         33.5004
  23371489.2644    4740605.22349   3671160.34846                  23371487.9714
        39.0004         21.0004
  20753664.6544   -1566400.68749  -1221509.58147                  20753659.8184
        50.2504         38.0004
  19753084.7254   -1369427.06249  -1065520.72548                  19753082.6474
        51.0004         40.0004
  22701806.1004   -8284040.33249  -6450551.75346                  22701804.3424
        44.5004         24.7504
 04  7  6 18 28 19.9980000  0  9G 3G 9G14G18G19G21G22G15G25
  22497071.0844     921965.84449    711830.76547                  22497069.5224
        45.2504         28.5004
  23530895.2404    1169180.29349    906629.59546                  23530893.3734
        37.0004         18.5004
  19629054.2874   -4648179.12149  -3609007.27348                  19629051.3304
        50.0004         40.7504
  22613403.8424    1438903.19549   1107822.91347                  22613400.8734
        44.0004         27.5004
  22107655.5294   -5371353.44149  -4167932.62047                  22107651.8344
        46.5004         32.5004
  23375143.1934    4759807.63349   3686123.22446                  23375142.0454
        39.7504         21.5004
  20752484.7724   -1572602.58649  -1226342.23347                  20752479.8574
        50.7504         37.5004
  19753083.3734   -1369433.25049  -1065525.55748                  19753081.0884
        51.5004         40.0004
  22692420.9754   -8333356.50049  -6488979.93746                  22692419.6864
        44.0004         24.5004
 04  7  6 18 28 29.9980000  0  9G 3G 9G14G18G19G21G22G15G25
  22498226.5224     928037.87149    716562.19747                  22498225.0884
        44.5004         28.2504
  23532754.9044    1178954.72749    914246.00546                  23532753.9004
        37.2504         19.0004
  19626633.8734   -4660899.16049  -3618919.00348                  19626630.5454
        50.5004         40.7504
  22614261.8504    1443412.94149   1111336.95546                  22614258.8464
        43.0004         25.5004
  22104908.9204   -5385788.08649  -4179180.41047                  22104905.0254
        46.0004         32.7504
  23378799.7874    4779019.83649   3701093.65546                  23378798.7874
        39.5004         20.7504
  20751305.2324   -1578800.46549  -1231171.76547                  20751300.5764
        50.2504         38.0004
  19753091.2404   -1369394.05149  -1065495.01348                  19753088.3734
        52.0004         39.5004
  22683037.0684   -8382671.99249  -6527407.61446                  22683035.2724
        44.0004         25.5004
 04  7  6 18 28 39.9980000  0  9G 3G 9G14G18G19G21G22G15G25
  22499385.3184     934127.93849    721307.70047                  22499383.9674
        44.2504         27.7504
  23534623.3034    1188769.94949    921894.26746                  23534621.7754
        36.5004         18.5004
  19624221.2564   -4673579.08649  -3628799.44948                  19624217.5964
        50.2504         40.5004
  22615120.1394    1447923.71549   1114851.84446                  22615117.0844
        43.5004         24.7504
  22102171.8424   -5400172.49649  -4190389.04547                  22102167.7874
        46.2504         31.7504
  23382457.6864    4798243.24649   3716072.92146                  23382456.6584
        40.0004         20.7504
  20750126.7254   -1584992.82049  -1235996.95947                  20750121.9394
        50.2504         37.5004
  19753107.3184   -1369307.97349  -1065427.94047                  19753104.8734
        50.7504         39.0004
  22673653.1544   -8431985.21149  -6565833.44846                  22673651.0144
        42.5004         25.0004
 04  7  6 18 28 49.9980000  0  9G 3G 9G14G18G19G21G22G15G25
  22500547.0374     940232.20749    726064.24847                  22500545.7604
        45.2504         28.2504
  23536498.3654    1198622.13349    929571.26646                  23536496.9634
        39.0004         19.0004
  19621815.3654   -4686222.68749  -3638651.60748                  19621811.7294
        50.0004         40.0004
  22615978.2724    1452431.77049   1118364.65046                  22615974.9754
        44.0004         25.0004
  22099443.0534   -5414510.44149  -4201561.46947                  22099439.6934
        47.0004         33.2504
  23386117.8114    4817474.10949   3731057.94046                  23386115.8504
        41.2504         21.2504
  20748948.8504   -1591183.38349  -1240820.78647                  20748944.2644
        50.7504         37.0004
  19753131.5374   -1369178.76249  -1065327.26947                  19753129.4904
        51.0004         39.0004
  22664269.3114   -8481299.62549  -6604260.26546                  22664267.1584
        43.5004         25.5004
 04  7  6 18 28 59.9980000  0  9G 3G 9G14G18G19G21G22G15G25
  22501711.7484     946352.25049    730833.11847                  22501710.5764
        43.0004         26.7504
  23538380.3504    1208512.74249    937278.20446                  23538378.6504
        37.7504         19.2504
  19619416.1934   -4698828.41049  -3648474.24948                  19619412.9674
        50.0004         40.2504
  22616836.0614    1456938.81349   1121876.59246                  22616832.5924
        43.5004         25.5004
  22096723.6004   -5428800.36749  -4212696.47847                  22096720.3574
        44.5004         32.7504
  23389779.5454    4836713.96549   3746050.01046                  23389777.4084
        42.2504         21.2504
  20747771.2564   -1597370.47749  -1245641.91547                  20747766.6234
        51.2504         37.2504
  19753164.9434   -1369004.84049  -1065191.75347                  19753162.5534
        50.5004         39.0004
  22654884.5764   -8530613.57049  -6642686.69346                  22654883.0334
        42.7504         24.0004
